     2.11           OBSERVATION DATA    G (GPS)             RINEX VERSION / TYPE
teqc 2010Oct21 OPUS Account 20111028 14:47:55UTC            PGM / RUN BY / DATE
G 1385                                                      MARKER NAME
2070                                                        MARKER NUMBER
CSMIDDLETON NGS                                             OBSERVER / AGENCY
0220390632 TRIMBLE R7 2.28                                  REC # / TYPE / VERS
11909788 TRM41249.00 NONE                                   ANT # / TYPE
  -739530.0426 -5582344.3063  2985140.4379                  APPROX POSITION XYZ
        1.9990        0.0000        0.0000                  ANTENNA: DELTA H/E/N
     1     1                                                WAVELENGTH FACT L1/2
     5    L1    L2    C1    P1    P2                        # / TYPES OF OBSERV
    15                                                      LEAP SECONDS
  2011     8    22    16    33    0.0000000     GPS         TIME OF FIRST OBS
                                                            END OF HEADER
 11  8 22 16 33  0.0000000  0 11G03G06G07G08G10G11G13G16G19G23G28
    429589.60557    308687.46554  21946132.9144                   21946131.2774
    459712.48856    336698.66853  23900451.8204                   23900452.1214
   -126322.99256    -96659.41854  21662694.7114                   21662691.5314
   -206273.82456   -157261.47353  23417085.2734                   23417083.3524
    256113.85556    182557.10953  24378548.4924                   24378547.8164
   -234174.75856   -175679.95752  23973992.2664                   23973990.6334
    235303.87957    172082.07456  20305751.3444                   20305748.0944
    463582.26656    334387.29353  24454756.9224                   24454754.5514
    128217.45357     91156.76255  21051894.7034                   21051890.5944
    461909.79757    339737.70355  21316006.1644                   21316002.2424
   -157637.77356   -119638.66852  24006270.2344                   24006268.6024
 11  8 22 16 33 30.0000000  0 11G03G06G07G08G10G11G13G16G19G23G28
    528958.31646    386117.59444  21965041.6564                   21965040.4844
    571427.07446    423748.91043  23921710.8524                   23921711.2274
   -155822.91846   -119646.35943  21657081.0554                   21657078.4264
   -254075.77046   -194509.71143  23407988.7894                   23407987.1764
    318078.44946    230841.14842  24390340.1644                   24390339.0904
   -289599.93446   -218868.41042  23963445.2894                   23963442.9384
    289549.77347    214351.57046  20316073.5394                   20316071.1804
    573848.86746    420309.23843  24475739.3054                   24475737.3834
    158676.98047    114891.46145  21057691.5784                   21057686.5354
    566239.97347    421033.88345  21335859.7814                   21335855.1844
   -194270.43046   -148183.58643  23999299.7734                   23999297.5554
 11  8 22 16 34  0.0000000  0 11G03G06G07G08G10G11G13G16G19G23G28
    628933.35546    464020.17243  21984066.4844                   21984065.1054
    683586.53946    511145.83243  23943054.0314                   23943053.9454
   -185067.19946   -142434.12144  21651515.3674                   21651513.0634
   -301763.12546   -231668.64543  23398914.2344                   23398912.9144
    380521.11746    279497.74242  24402221.6884                   24402220.1564
   -344859.14545   -261927.47343  23952931.0554                   23952928.9494
    344547.74647    257207.10246  20326539.2734                   20326537.0124
    684205.97346    506301.75842  24496738.9694                   24496737.2114
    189921.28547    139237.66045  21063636.2424                   21063631.9774
    671158.00047    502788.13345  21355825.1024                   21355820.7894
   -230513.43746   -176424.84843  23992402.7344                   23992401.6334
 11  8 22 16 34 30.0000000  0 11G03G06G07G08G10G11G13G16G19G23G28
    729530.06346    542407.21144  22003209.5944                   22003208.0164
    796206.12546    598901.31643  23964485.2274                   23964484.9574
   -214036.99646   -165007.97344  21646003.1484                   21645999.8594
   -349317.51246   -268724.00842  23389865.1564                   23389863.0594
    443457.16846    328538.73842  24414198.0314                   24414198.7894
   -399931.82446   -304841.17243  23942449.5314                   23942448.9224
    400315.03547    300662.11346  20337151.5864                   20337149.0044
    794670.10546    592377.59042  24517760.3054                   24517758.1804
    221967.94547    164209.11345  21069734.6644                   21069730.6414
    776679.31647    585012.50445  21375904.7974                   21375901.2894
   -266349.10246   -204348.62543  23985584.1804                   23985582.2894
 11  8 22 16 35  0.0000000  0 11G03G06G07G08G10G11G13G16G19G23G28
    830759.32447    621287.10944  22022473.0704                   22022470.7664
    909296.92646    687023.91443  23986005.7734                   23986005.7424
   -242717.29746   -187356.26244  21640545.4384                   21640542.4574
   -396724.98046   -305664.85943  23380843.3594                   23380842.7274
    506897.65246    377972.83242  24426270.3524                   24426270.2304
   -454801.34846   -347596.62943  23932009.4384                   23932007.4454
    456864.58647    344726.66046  20347912.5474                   20347909.8674
    905253.89545    678546.74242  24538802.9534                   24538801.1884
    254830.50447    189816.28946  21075988.4064                   21075984.2934
    882814.65647    667715.30145  21396101.9924                   21396097.9694
   -301764.05546   -231944.66443  23978844.6174                   23978843.0554
 11  8 22 16 35 30.0000000  0 11G03G06G07G08G10G11G13G16G19G23G28
    932602.15647    700645.12144  22041852.6564                   22041851.1414
   1022840.08646    775499.01243  24007611.6174                   24007611.4224
   -271122.66046   -209490.30144  21635140.5944                   21635137.0984
   -444000.42246   -342502.85242  23371847.1094                   23371845.8794
    570824.15646    427785.62142  24438435.5234                   24438435.7424
   -509481.03145   -390204.09843  23921603.0314                   23921602.7974
    514179.35547    389387.48846  20358819.7194                   20358816.6294
   1015940.66445    764796.05542  24559866.2424                   24559864.1024
    288492.53547    216046.43845  21082393.5784                   21082390.1564
    989545.85947    750882.41045  21416412.0704                   21416408.3524
   -336774.83246   -259225.72743  23972182.3524                   23972181.0784
 11  8 22 16 36  0.0000000  0 11G03G06G07G08G10G11G13G16G19G23G28
   1035049.17647    780473.89544  22061348.5634                   22061346.4264
   1136826.47346    864319.48443  24029302.7664                   24029302.8484
   -299258.56246   -231414.37144  21629785.2894                   21629783.2734
   -491149.88746   -379242.69143  23362874.9774                   23362874.0124
    635227.50446    477970.02742  24450690.7344                   24450691.1214
   -563974.97746   -432666.89143  23911233.5554                   23911232.5744
    572251.85247    434638.74646  20369870.0704                   20369867.2464
   1126722.33646    851119.34042  24580947.8914                   24580945.4344
    322946.88747    242893.98045  21088950.5004                   21088946.4104
   1096863.59447    834506.55545  21436834.6414                   21436829.9654
   -371387.95746   -286196.93043  23965595.2974                   23965595.0984
 11  8 22 16 36 30.0000000  0 11G03G06G07G08G10G11G13G16G19G23G28
   -437327.05547   -366832.29744  21781164.1804                   21781162.4534
   -324170.55545   -274119.81643  23751284.7114                   23751283.4804
  -1902552.96946  -1480734.69944  21324688.4144                   21324685.9654
  -2113602.85946  -1643491.69943  23054133.4224                   23054130.8404
   -875320.99646   -699080.88343  24163244.0164                   24163243.9024
  -2193710.28946  -1702590.50043  23601105.1954                   23601105.0234
   -944344.87547   -747124.97746  20081271.2584                   20081268.7774
   -337826.24246   -290087.42642  24302253.5944                   24302251.7034
  -1217233.71147   -957246.76246  20795864.0944                   20795859.7424
   -370658.88747   -309017.52345  21157574.1804                   21157569.7424
  -1981032.96946  -1540465.74643  23659289.6024                   23659289.3164
 11  8 22 16 37  0.0000000  0 11G03G06G07G08G10G11G13G16G19G23G28
   -333709.68747   -286091.54344  21800881.7344                   21800880.4144
   -209334.92646   -184637.63342  23773136.9064                   23773136.2624
  -1930175.97746  -1502259.11744  21319431.8364                   21319429.6294
  -2160528.93746  -1680057.44143  23045203.3444                   23045199.9964
   -810001.82446   -648182.90243  24175674.0474                   24175673.9344
  -2247854.06646  -1744780.43043  23590802.3594                   23590800.7894
   -884789.01247   -700717.85246  20092604.5394                   20092601.6564
   -226887.23446   -203641.53542  24323364.9844                   24323362.3094
  -1181225.31647   -929188.29345  20802715.7734                   20802711.8554
   -262204.77047   -224507.88345  21178212.3594                   21178207.9574
  -2014881.23846  -1566840.98043  23652849.0474                   23652847.8364
 11  8 22 16 37 30.0000000  0 11G03G06G07G08G10G11G13G16G19G23G28
   -229528.13347   -204911.16444  21820707.7894                   21820704.9774
    -94095.77746    -94840.97342  23795067.2034                   23795064.7034
  -1957557.96146  -1523595.73044  21314222.0864                   21314218.6844
  -2207359.58246  -1716548.85243  23036291.1254                   23036288.8134
   -744245.69546   -596944.44143  24188187.1094                   24188186.0554
  -2301835.56246  -1786843.89843  23580530.0554                   23580527.5664
   -824509.80947   -653747.07446  20104075.2504                   20104072.4924
   -115888.27746   -117148.93042  24344487.0704                   24344485.3554
  -1144457.66847   -900538.19545  20809712.8444                   20809708.6334
   -153203.52347   -139571.91445  21198953.9454                   21198950.9344
  -2048364.65646  -1592931.93443  23646476.9144                   23646476.1644
 11  8 22 16 38  0.0000000  0 11G03G06G07G08G10G11G13G16G19G23G28
   -124786.78547   -123294.56644  21840638.5084                   21840637.1764
     21542.73446     -4733.10943  23817072.4694                   23817071.1294
  -1984698.69546  -1544744.35544  21309056.6484                   21309053.6054
  -2254095.29746  -1752966.31643  23027398.1414                   23027395.4964
   -678056.64146   -545368.61342  24200782.1094                   24200781.0634
  -2355653.56246  -1828779.97343  23570287.9924                   23570286.6054
   -763509.68447   -606214.53946  20115683.4064                   20115680.4734
     -4831.88746    -30611.59842  24365620.5004                   24365618.8634
  -1106932.77347   -871298.02746  20816853.3674                   20816849.0234
    -43658.90647    -54212.53545  21219799.7274                   21219796.0514
  -2081485.03146  -1618739.96543  23640174.7504                   23640173.3874
 11  8 22 16 38 30.0000000  0 11G03G06G07G08G10G11G13G16G19G23G28
    -19507.32447    -41258.67244  21860673.0234                   21860670.7934
    137559.27046     85669.28543  23839149.9224                   23839148.6564
  -2011615.89146  -1565718.80544  21303934.6564                   21303932.0354
  -2300754.39846  -1789323.98443  23018519.8984                   23018516.3324
   -611456.07446   -493472.14142  24213454.8984                   24213455.4454
  -2409324.35946  -1870601.36343  23560075.0944                   23560073.3754
   -701808.56247   -558135.77745  20127424.9924                   20127421.9614
    106262.07045     55955.09442  24386761.5084                   24386759.4494
  -1068669.74647   -841482.70346  20824134.4224                   20824130.6334
     66407.25847     31553.25045  21240745.1804                   21240741.4734
  -2114261.73046  -1644280.21143  23633936.5164                   23633935.9614
 11  8 22 16 39  0.0000000  0 11G03G06G07G08G10G11G13G16G19G23G28
     86301.27347     41189.53144  21880807.6804                   21880805.9694
    253944.63346    176359.11343  23861296.8914                   23861295.6954
  -2038314.48846  -1586522.89544  21298854.0554                   21298851.3324
  -2347342.67246  -1825626.54343  23009653.1024                   23009651.5124
   -544452.64846   -441261.73843  24226205.8444                   24226206.4304
  -2462851.18046  -1912310.57442  23549889.0784                   23549886.8444
   -639414.00447   -509516.67245  20139298.0084                   20139294.6414
    217386.58646    142545.52042  24407908.6804                   24407905.5274
  -1029675.91047   -811097.91045  20831554.7114                   20831550.7704
    176986.50847    117718.83245  21261788.0704                   21261783.6414
  -2146700.94146  -1669557.51243  23627764.7344                   23627762.5044
 11  8 22 16 39 30.0000000  0 11G03G06G07G08G10G11G13G16G19G23G28
    192615.68046    124031.88344  21901038.4224                   21901036.8914
    370676.16446    267318.67643  23883510.9384                   23883509.5314
  -2064813.37147  -1607171.37544  21293812.5234                   21293808.5314
  -2393879.96546  -1861889.29342  23000796.7424                   23000796.0164
   -477069.59846   -388755.53142  24239029.2344                   24239029.5274
  -2516251.80946  -1953921.45342  23539728.1644                   23539725.5164
   -576346.91047   -460373.51645  20151299.3054                   20151296.1254
    328520.13746    229143.10942  24429057.0234                   24429053.1134
   -989971.81647   -780159.66845  20839109.7114                   20839106.5864
    288056.07447    204266.48845  21282923.8054                   21282920.1294
  -2178823.68746  -1694588.22343  23621651.6414                   23621649.8554
 11  8 22 16 40  0.0000000  0 11G03G06G07G08G10G11G13G16G19G23G28
    299432.78146    207265.91444  21921365.0704                   21921363.3244
    487750.82846    358545.62543  23905788.1414                   23905787.9384
  -2091111.59846  -1627663.48844  21288806.9774                   21288804.4064
  -2440365.98046  -1898112.15242  22991951.2034                   22991949.1954
   -409309.72346   -335955.69143  24251923.0164                   24251922.7344
  -2569523.57446  -1995431.87143  23529590.2194                   23529587.6484
   -512608.87547   -410707.53945  20163428.5554                   20163425.2734
    439661.30145    315746.53142  24450204.9614                   24450202.7734
   -949557.92247   -748668.34045  20846800.7974                   20846796.7234
    399612.55547    291193.55545  21304152.3914                   21304148.5354
  -2210630.47346  -1719372.68043  23615598.9774                   23615597.4574
 11  8 22 16 40 30.0000000  0 11G03G06G07G08G10G11G13G16G19G23G28
    406737.60946    290880.04344  21941784.7974                   21941782.5864
    605153.73046    450028.31643  23928129.6484                   23928129.8094
  -2117220.33246  -1648007.94144  21283839.1414                   21283836.2584
  -2486811.92246  -1934303.75842  22983113.2814                   22983111.2424
   -341187.96146   -282873.91442  24264886.7114                   24264886.4964
  -2622676.10246  -2036849.40642  23519476.2274                   23519473.3244
   -448212.90647   -360528.88745  20175682.4694                   20175679.2234
    550796.93045    402345.69142  24471353.7424                   24471351.9024
   -908448.01647   -716634.64545  20854623.7274                   20854619.4304
    511641.43847    378488.71945  21325470.6174                   21325466.8754
  -2242133.86746  -1743920.76643  23609604.6174                   23609601.7974
 11  8 22 16 41  0.0000000  0 11G03G06G07G08G10G11G13G16G19G23G28
    514525.14546    374870.28944  21962296.2584                   21962294.2934
    722880.27346    541763.23042  23950532.1484                   23950532.4694
  -2143140.00447  -1668205.08644  21278906.5554                   21278904.3634
  -2533219.36346  -1970465.39842  22974282.0554                   22974280.5904
   -272709.24246   -229513.88743  24277917.3914                   24277918.1174
  -2675708.76246  -2078173.52343  23509384.7504                   23509381.5944
   -383162.48047   -309840.27345  20188060.9924                   20188058.3954
    661924.25045    488938.32442  24492499.5554                   24492498.3874
   -866644.52747   -684060.50845  20862577.7584                   20862574.3794
    624138.10547    466148.40245  21346877.7344                   21346873.8444
  -2273336.69546  -1768234.61343  23603666.5314                   23603663.7584
 11  8 22 16 41 30.0000000  0 11G03G06G07G08G10G11G13G16G19G23G28
    622781.13346    459225.56644  21982895.6174                   21982894.2424
    840916.33645    633739.23842  23972993.9224                   23972993.7234
  -2168880.67246  -1688262.74644  21274008.7114                   21274005.5594
  -2579598.91046  -2006605.28142  22965456.8984                   22965454.7074
   -203887.47346   -175886.64143  24291013.8594                   24291014.4264
  -2728629.71946  -2119410.62143  23499312.6644                   23499309.9924
   -317469.97347   -258651.33645  20200562.0634                   20200558.9924
    773030.93845    575514.90242  24513641.8754                   24513641.0164
   -824159.21947   -650955.06245  20870663.2274                   20870659.2114
    737088.55147    554161.67645  21368371.8364                   21368367.5434
  -2304250.15246  -1792323.00843  23597782.9304                   23597782.1094
 11  8 22 16 42  0.0000000  0 11G03G06G07G08G10G11G13G16G19G23G28
    731503.95346    543944.58244  22003585.6644                   22003584.2274
    959260.73846    725955.70742  23995514.0394                   23995512.8364
  -2194439.52047  -1708178.73044  21269144.8204                   21269142.0634
  -2625948.43746  -2042721.78943  22956636.4304                   22956634.5944
   -134723.85545   -121993.03142  24304174.5944                   24304176.0204
  -2781435.13346  -2160557.65243  23489265.0314                   23489261.5234
   -251135.41847   -206962.10246  20213185.1334                   20213182.1254
    884117.08645    662075.46942  24534781.7424                   24534781.3554
   -780991.87147   -617318.16845  20878877.9224                   20878873.1454
    850491.35547    642527.44145  21389952.5314                   21389947.1254
  -2334873.66446  -1816185.43043  23591955.4534                   23591954.7464
 11  8 22 16 42 30.0000000  0 11G03G06G07G08G10G11G13G16G19G23G28
    840686.16846    629021.57844  22024362.0314                   22024360.6024
   1077905.80146    818406.39542  24018091.4844                   24018089.4384
  -2219820.33247  -1727955.98444  21264314.9144                   21264312.2114
  -2672272.61346  -2078818.50042  22947821.0864                   22947818.6844
    -65226.28945    -67839.16042  24317400.3364                   24317400.2704
  -2834127.20746  -2201616.37943  23479237.8284                   23479235.4384
   -184164.68447   -154777.13746  20225928.8984                   20225926.5394
    995176.82446    748615.46142  24555915.6564                   24555914.6724
   -737148.00047   -583154.10945  20887220.5864                   20887216.7734
    964338.67647    731239.57845  21411615.8594                   21411612.0554
  -2365212.37546  -1839825.96942  23586182.6254                   23586181.2974
 11  8 22 16 43  0.0000000  0 11G03G06G07G08G10G11G13G16G19G23G28
    950322.06347    714452.08244  22045225.7114                   22045223.5824
   1196846.57846    911087.48442  24040725.6414                   24040724.0044
  -2245024.35246  -1747595.46944  21259519.0084                   21259515.5354
  -2718572.91446  -2114896.64542  22939010.2114                   22939008.2544
      4599.87145    -13429.20742  24330688.2664                   24330687.6484
  -2886705.53146  -2242586.47743  23469233.2194                   23469231.3834
   -116561.76647   -102099.57046  20238793.7344                   20238791.0004
   1106206.81646    835132.21143  24577044.3914                   24577043.2584
   -692630.89547   -548465.44545  20895692.0944                   20895688.3834
   1078625.36747    820294.07445  21433364.2424                   21433360.2234
  -2395269.26646  -1863246.88743  23580462.6954                   23580461.3714
 11  8 22 16 43 30.0000000  0 11G03G06G07G08G10G11G13G16G19G23G28
   1060406.68046    800232.24644  22066174.6564                   22066172.0044
   1316077.88346   1003994.95343  24063414.9144                   24063414.5474
  -2270052.04747  -1767097.57444  21254756.2974                   21254752.7424
  -2764850.74646  -2150957.27742  22930204.0314                   22930202.1604
     74749.83645     41233.04342  24344037.1564                   24344037.9694
  -2939169.61746  -2283467.54343  23459248.6644                   23459247.4144
    -48329.71147    -48931.77046  20251777.4454                   20251775.0984
   1217204.05546    921623.49243  24598166.4694                   24598164.6134
   -647443.28547   -513254.32846  20904291.4694                   20904287.1484
   1193346.68847    909687.23845  21455194.7504                   21455190.9024
  -2425046.78146  -1886450.10943  23574795.8834                   23574795.5664
 11  8 22 16 44  0.0000000  0 11G03G06G07G08G10G11G13G16G19G23G28
   1170935.50047    886358.54344  22087207.3284                   22087205.3014
   1435595.84046   1097125.73843  24086156.3284                   24086157.9924
  -2294903.72347  -1786462.51644  21250027.2034                   21250023.9844
  -2811106.94946  -2187001.01242  22921402.4774                   22921399.0594
    145219.88345     96144.68842  24357447.2814                   24357447.3874
  -2991517.71946  -2324258.21543  23449287.8834                   23449285.7074
     20528.41847      4723.89146  20264881.1024                   20264878.1094
   1328166.21546   1008087.46143  24619281.8364                   24619280.8984
   -601587.78147   -477522.75845  20913017.1644                   20913013.1334
   1308498.90247    999416.17245  21477107.8364                   21477103.8054
  -2454546.99646  -1909437.28943  23569182.8674                   23569180.7704
 11  8 22 16 44 30.0000000  0 11G03G06G07G08G10G11G13G16G19G23G28
   1281892.94947    972818.84844  22108322.7584                   22108319.4924
   1555384.86346   1190467.80143  24108953.7584                   24108952.8484
  -2319590.85247  -1805699.24244  21245329.2344                   21245325.6094
  -2857353.77346  -2223037.48042  22912601.3674                   22912599.0084
    215993.85945    151293.19542  24370916.0164                   24370915.7154
  -3043760.44146  -2364966.78543  23439345.9304                   23439344.4884
     89998.47747     58856.38346  20278100.5634                   20278098.1524
   1439079.39846   1094513.25443  24640389.1954                   24640386.4654
   -555078.00447   -441281.38745  20921867.7504                   20921863.8404
   1424066.45347   1089468.75045  21499099.6804                   21499095.8164
  -2483783.25046  -1932218.76243  23563618.6024                   23563617.2974
 11  8 22 16 45  0.0000000  0 11G03G06G07G08G10G11G13G16G19G23G28
   1393279.13346   1059613.20343  22129517.3204                   22129515.7774
   1675445.67246   1284021.60943  24131800.1094                   24131799.7274
  -2344108.64147  -1824804.00844  21240663.9224                   21240659.9224
  -2903586.81646  -2259063.25042  22903803.6094                   22903801.9534
    287072.98845    206679.41442  24384440.3134                   24384441.7624
  -3095891.25846  -2405588.14543  23429424.4614                   23429423.6374
    160082.61347    113467.37146  20291437.2894                   20291434.3284
   1549946.06345   1180902.80543  24661485.5944                   24661484.1174
   -507911.76647   -404528.47745  20930843.0234                   20930839.4184
   1540049.48047   1179845.07444  21521170.5314                   21521166.3794
  -2512752.71546  -1954792.33243  23558107.0084                   23558105.1484
 11  8 22 16 45 30.0000000  0 11G03G06G07G08G10G11G13G16G19G23G28
   1505084.94546   1146734.58244  22150794.2424                   22150791.6524
   1795769.16045   1377780.08643  24154697.1884                   24154696.6524
  -2368462.37147  -1843780.94944  21236029.7114                   21236026.4024
  -2949811.68746  -2295082.56242  22895007.7734                   22895005.7934
    358447.66445    262295.96942  24398022.7734                   24398024.0394
  -3147913.88746  -2446125.23043  23419526.0704                   23419523.8634
    230773.11347    168550.85945  20304888.8674                   20304886.6884
   1660758.82845   1267250.34842  24682571.9304                   24682570.9344
   -460096.38747   -367269.75445  20939942.1804                   20939937.6994
   1656438.97347   1270538.14145  21543318.5704                   21543314.6294
  -2541462.05146  -1977163.20343  23552643.0864                   23552642.3014
 11  8 22 16 46  0.0000000  0 11G03G06G07G08G10G11G13G16G19G23G28
   1617303.85246   1234177.84444  22172147.5944                   22172146.5394
   1916349.20745   1471738.47742  24177641.6564                   24177642.7114
  -2392654.07447  -1862631.62544  21231425.8444                   21231422.7544
  -2996031.60546  -2331098.06642  22886211.9384                   22886210.0554
    430111.37545    318137.71942  24411660.1884                   24411660.5314
  -3199828.93046  -2486578.45343  23409647.5164                   23409644.9964
    302064.80147    224102.79745  20318455.7194                   20318452.9184
   1771513.28145   1353552.50042  24703648.7344                   24703647.2154
   -411635.95347   -329508.40245  20949164.1254                   20949159.8794
   1773228.63747   1361543.01244  21565543.0314                   21565539.6954
  -2569915.55146  -1999334.70743  23547228.2344                   23547226.6994
 11  8 22 16 46 30.0000000  0 11G03G06G07G08G10G11G13G16G19G23G28
   1729928.49646   1321937.25443  22193579.9534                   22193578.0274
   2037178.75445   1565891.24643  24200635.5864                   24200635.4344
  -2416686.41847  -1881358.13744  21226852.7114                   21226849.8484
  -3042249.96545  -2367112.36342  22877416.5864                   22877414.4774
    502057.02345    374199.16042  24425349.4384                   24425351.4454
  -3251638.31646  -2526949.36743  23399788.6884                   23399786.4454
    373952.11347    280118.86345  20332135.4844                   20332132.3794
   1882204.30545   1439805.18842  24724711.2504                   24724711.2734
   -362536.08247   -291248.76246  20958507.4224                   20958503.1684
   1890411.01647   1452853.89844  21587841.3834                   21587838.6334
  -2598117.94146  -2021310.57443  23541861.6564                   23541860.0004
 11  8 22 16 47  0.0000000  0 11G03G06G07G08G10G11G13G16G19G23G28
   1842950.96546   1410006.65643  22215087.7504                   22215085.9414
   2158250.38746   1660232.68843  24223675.1094                   24223674.3054
  -2440562.87147  -1899963.17644  21222309.2734                   21222306.5664
  -3088470.71145  -2403128.51242  22868620.8444                   22868618.5124
    574277.18045    430474.58642  24439094.3054                   24439094.8164
  -3303343.83246  -2567239.32843  23389948.8834                   23389946.7074
    446428.70747    336594.11345  20345927.3834                   20345924.3094
   1992826.37145   1526004.19942  24745761.6954                   24745761.6954
   -312802.75447   -252495.53545  20967971.2504                   20967967.3364
   2007978.94547   1544465.20744  21610214.6174                   21610210.8094
  -2626074.77746  -2043095.03943  23536541.6804                   23536540.9024
 11  8 22 16 47 30.0000000  0 11G03G06G07G08G10G11G13G16G19G23G28
   1956365.70346   1498381.72743  22236669.2664                   22236667.4804
   2279558.29346   1754758.25842  24246759.7114                   24246757.8524
  -2464285.20347  -1918448.10544  21217795.0864                   21217791.9844
  -3134696.32045  -2439148.43442  22859824.7424                   22859821.1914
    646766.38745    486959.53142  24452888.1334                   24452889.3914
  -3354945.48846  -2607448.37543  23380129.4144                   23380127.8164
    519490.20747    393525.11745  20359830.2894                   20359827.3834
   2103375.54745   1612146.35542  24766799.9454                   24766798.3594
   -262439.74247   -213251.64545  20977555.5314                   20977551.1724
   2125926.63347   1636372.44144  21632659.3054                   21632655.5004
  -2653789.31646  -2064690.74643  23531268.1254                   23531266.5744
 11  8 22 16 48  0.0000000  0 11G03G06G07G08G10G11G13G16G19G23G28
   2070176.02746   1587065.03143  22258326.9384                   22258325.4304
   2401106.19146   1849470.89542  24269889.0314                   24269887.0984
  -2487845.70747  -1936806.93044  21213310.6334                   21213308.2584
  -3180919.50446  -2475166.47742  22851028.5394                   22851025.8054
    719527.93445    543656.77742  24466733.7274                   24466735.3554
  -3406434.07446  -2647569.29343  23370330.9304                   23370329.6134
    593141.55147    450915.74245  20373845.4384                   20373842.8364
   2213857.01655   1698235.73052  24787823.6484                   24787821.6764
   -211441.93447   -173513.10946  20987260.1644                   20987255.4104
   2244257.56347   1728578.29344  21655177.0004                   21655173.2854
  -2681255.84046  -2086093.19943  23526041.7194                   23526039.6564
 11  8 22 16 48 30.0000000  0 11G03G06G07G08G10G11G13G16G19G23G28
   2184372.29346   1676049.12543  22280057.7584                   22280055.9224
   2522884.85546   1944363.28142  24293062.8204                   24293061.0784
  -2511249.39547  -1955043.57844  21208857.7504                   21208855.5664
  -3227146.18045  -2511187.24242  22842231.1414                   22842229.4024
    792552.64555    600559.05152  24480630.4694                   24480632.1094
  -3457813.44946  -2687605.14543  23360554.3134                   23360553.1374
    667374.56347    508759.61345  20387971.7504                   20387969.2664
   2324263.62955   1784266.83252  24808834.2894                   24808830.9494
   -159817.05547   -133285.94545  20997083.6174                   20997079.3284
   2362962.41047   1821075.51244  21677765.6884                   21677761.5984
  -2708481.12946  -2107307.66443  23520860.3594                   23520859.2894
 11  8 22 16 49  0.0000000  0 11G03G06G07G08G10G11G13G16G19G23G28
   2298949.72346   1765330.15243  22301861.1414                   22301859.5864
   2644889.96146   2039432.21942  24316279.0004                   24316277.5784
  -2534496.60947  -1973158.29344  21204433.8984                   21204431.4964
  -3273377.46146  -2547211.60942  22833434.0554                   22833431.4844
    865835.49245    657662.48442  24494576.7424                   24494576.7034
  -3509082.78946  -2727555.21543  23350797.9694                   23350796.8874
    742185.91847    567054.14845  20402207.6094                   20402204.7854
   2434592.70345   1870237.43842  24829829.5944                   24829825.8164
   -107568.07847    -92572.47346  21007026.4534                   21007022.3134
   2482036.52047   1913860.44144  21700425.4144                   21700420.7934
  -2735467.89846  -2128336.25043  23515726.0164                   23515723.3794
 11  8 22 16 49 30.0000000  0 11G03G06G07G08G10G11G13G16G19G23G28
   2413902.25846   1854903.50443  22323736.0164                   22323734.1484
   2767115.95346   2134673.19542  24339538.2194                   24339537.5704
  -2557588.74647  -1991152.16444  21200040.0314                   21200036.5664
  -3319614.87146  -2583240.73442  22824635.1174                   22824633.1334
    939370.85245    714962.68042  24508569.7424                   24508570.0634
  -3560241.90246  -2767419.42643  23341063.1884                   23341060.5634
    817571.10547    625795.81345  20416553.2034                   20416549.9654
   2544840.52745   1956144.79742  24850808.3914                   24850805.5124
    -54698.86347    -51375.69546  21017087.2424                   21017082.7974
   2601474.12147   2006928.64144  21723153.0784                   21723149.2304
  -2762219.56646  -2149181.67643  23510634.5164                   23510632.3164
 11  8 22 16 50  0.0000000  0 10G03G06G07G08G10G11G13G19G23G28
   2529223.27346   1944763.98843  22345680.9454                   22345679.3244
   2889556.14146   2230081.11743  24362837.4144                   24362837.3364
  -2580527.93447  -2009026.86744  21195675.1884                   21195671.6094
  -3365861.32446  -2619276.92243  22815835.3364                   22815833.0594
   1013152.23045    772454.57042  24522608.7504                   24522610.4304
  -3611291.65246  -2807198.43043  23331348.4694                   23331346.5554
    893524.72347    684980.42245  20431007.1254                   20431004.4414
     -1214.45747     -9699.54345  21027264.7194                   21027260.4024
   2721268.65647   2100274.97344  21745949.8834                   21745945.8794
  -2788740.48846  -2169847.30543  23505587.9304                   23505585.6524
 11  8 22 16 50 30.0000000  0 10G03G06G07G08G10G11G13G19G23G28
   2644913.45746   2034912.09443  22367696.2274                   22367694.9344
   3012211.82445   2325656.88742  24386178.0394                   24386179.1994
  -2603309.52347  -2026778.77744  21191339.3754                   21191336.4494
  -3412112.71546  -2655316.91842  22807034.3134                   22807031.9494
   1087180.85945    830139.09842  24536696.3594                   24536698.3284
  -3662225.61746  -2846887.19943  23321655.8284                   23321653.8444
    970048.87547    744609.59845  20445569.1334                   20445566.1414
     52887.55947     32457.86345  21037559.8594                   21037555.9494
   2841420.87147   2193900.02344  21768814.3674                   21768810.5004
  -2815027.35946  -2190330.49243  23500585.7584                   23500583.4884
 11  8 22 16 51  0.0000000  0 10G03G06G07G08G10G11G13G19G23G28
   2760973.30546   2125348.27343  22389781.1334                   22389780.2424
   3135084.06645   2421401.41442  24409560.0004                   24409560.0354
  -2625928.23847  -2044403.76644  21187035.3674                   21187031.7974
  -3458364.41046  -2691357.19143  22798233.0554                   22798230.6764
   1161457.29745    888016.82043  24550831.5474                   24550831.6294
  -3713037.49646  -2886480.85243  23311986.3204                   23311984.6254
   1047145.62547    804684.95345  20460240.1094                   20460237.5744
    107609.62147     75098.42645  21047973.0234                   21047969.3754
   2961931.57847   2287804.40244  21791745.7194                   21791742.2234
  -2841077.26646  -2210629.09443  23495628.7034                   23495626.1254
 11  8 22 16 51 30.0000000  0 10G03G06G07G08G10G11G13G19G23G28
   2877398.61746   2216069.23443  22411936.9774                   22411934.9344
   3258168.06345   2517310.90242  24432982.3134                   24432981.7544
  -2648384.03147  -2061901.80544  21182762.1174                   21182758.9454
  -3504617.08646  -2727398.21142  22789431.3524                   22789429.5204
   1235976.75845    946083.82842  24565012.1954                   24565012.8204
  -3763725.71946  -2925978.14143  23302340.3284                   23302339.2854
   1124812.21947    865204.35245  20475019.3284                   20475017.1604
    162948.96947    118219.99245  21058504.1564                   21058499.6054
   3082796.46547   2381984.76644  21814746.4304                   21814742.9184
  -2866892.51246  -2230744.85943  23490715.2034                   23490713.9964
 11  8 22 16 52  0.0000000  0 10G03G06G07G08G10G11G13G19G23G28
   2994182.70746   2307069.78143  22434160.5704                   22434157.8094
   3381458.43445   2613381.29342  24456443.7274                   24456443.4224
  -2670678.73447  -2079274.30944  21178519.3054                   21178516.6254
  -3550873.23046  -2763441.92242  22780629.6094                   22780626.6994
   1310733.37946   1004335.63342  24579237.5314                   24579238.9924
  -3814291.03146  -2965379.64143  23292718.9224                   23292717.0864
   1203042.84847    926163.24645  20489905.7974                   20489903.7194
    218900.69147    161818.72745  21069151.8984                   21069147.0124
   3204009.36347   2476436.31344  21837812.4614                   21837808.5164
  -2892476.86746  -2250680.68443  23485846.5944                   23485844.8984
 11  8 22 16 52 30.0000000  0 10G03G06G07G08G10G11G13G19G23G28
   3111320.37546   2398345.80943  22456450.6564                   22456448.5084
   3504949.83646   2709608.26642  24479945.2584                   24479943.4104
  -2692813.31647  -2096522.04344  21174307.5004                   21174304.2464
  -3597134.40246  -2799489.59842  22771825.7664                   22771823.3284
   1385722.12545   1062768.27042  24593507.5394                   24593509.1454
  -3864732.92646  -3004684.99643  23283119.6254                   23283118.3794
   1281833.55547    987558.57445  20504899.4454                   20504896.5984
    275461.38347    205891.99245  21079915.0084                   21079910.3594
   3325564.85247   2571154.79344  21860943.6724                   21860939.3674
  -2917833.39546  -2270439.01243  23481021.5394                   23481020.1294
 11  8 22 16 53  0.0000000  0 10G03G06G07G08G10G11G13G19G23G28
   3228801.84446   2489889.77043  22478806.9144                   22478804.8634
   3628632.79345   2805984.55142  24503480.3754                   24503479.8754
  -2714793.25047  -2113649.25444  21170124.6954                   21170121.7154
  -3643406.77046  -2835545.96542  22763019.7734                   22763017.5084
   1460932.73046   1121373.82042  24607820.8444                   24607821.1054
  -3915055.37146  -3043897.23843  23273543.2424                   23273541.9534
   1361175.78547   1049383.66445  20519998.0784                   20519995.4494
    332622.56647    250433.17245  21090791.8054                   21090787.5664
   3447452.89847   2666132.42244  21884138.7194                   21884133.9574
  -2942969.86346  -2290025.85543  23476239.1804                   23476236.5634
 11  8 22 16 53 30.0000000  0 10G03G06G07G08G10G11G13G19G23G28
   3346627.88346   2581702.19543  22501228.6414                   22501226.7704
   3752508.47745   2902510.96142  24527052.6804                   24527052.4654
  -2736613.50447  -2130652.05544  21165972.3984                   21165969.8714
  -3689685.16846  -2871607.05942  22754214.1954                   22754211.4844
   1536366.64146   1180153.48442  24622175.3444                   24622175.5704
  -3965251.66446  -3083011.20343  23263992.1414                   23263989.7424
   1441071.82047   1111640.28945  20535201.2894                   20535199.0204
    390386.97747    295444.40645  21101784.4144                   21101779.6954
   3569674.68447   2761370.09844  21907396.3914                   21907392.2544
  -2967882.60546  -2309438.32043  23471497.7274                   23471495.9184
 11  8 22 16 54  0.0000000  0 10G03G06G07G08G10G11G13G19G23G28
   3464788.53946   2673775.38743  22523713.8284                   22523712.5164
   3876567.71545   2999180.34442  24550660.3364                   24550660.6024
  -2758278.78147  -2147534.08644  21161849.6024                   21161847.4144
  -3735975.48845  -2907677.43442  22745404.2894                   22745402.0944
   1612014.53146   1239099.80142  24636569.3284                   24636571.0084
  -4015325.41446  -3122029.69143  23254462.9844                   23254460.8094
   1521513.11747   1174321.78545  20550509.4694                   20550506.7774
    448746.28147    340919.18045  21112889.9454                   21112884.9574
   3692220.84047   2856860.54344  21930715.7504                   21930711.8984
  -2992579.10646  -2328682.32943  23466797.8984                   23466795.7274
 11  8 22 16 54 30.0000000  0 10G03G06G07G08G10G11G13G19G23G28
   3583282.11346   2766107.97743  22546261.5704                   22546260.9344
   4000809.09845   3095991.86342  24574302.6414                   24574302.6764
  -2779786.32847  -2164293.21544  21157757.0004                   21157754.7304
  -3782275.37946  -2943755.27342  22736593.6724                   22736591.4494
   1687874.44946   1298211.28142  24651006.0164                   24651006.6564
  -4065272.62546  -3160949.58643  23244957.6884                   23244957.0594
   1602499.33247   1237427.89845  20565920.6644                   20565918.4304
    507700.46147    386857.49245  21124108.2504                   21124104.1254
   3815089.68447   2952602.41444  21954097.2424                   21954093.4144
  -3017058.79746  -2347757.35943  23462139.1804                   23462138.0314
 11  8 22 16 55  0.0000000  0 10G03G06G07G08G10G11G13G19G23G28
   3702107.03546   2858698.80143  22568873.5634                   22568872.4494
   4125231.18845   3192944.17242  24597979.4224                   24597978.7584
  -2801133.30547  -2180927.21545  21153694.8284                   21153692.1764
  -3828582.68746  -2979838.84442  22727783.0864                   22727780.1374
   1763944.73045   1357486.63342  24665481.5634                   24665482.0234
  -4115089.18746  -3199767.62143  23235478.5784                   23235476.4844
   1684029.86347   1300958.14545  20581434.9454                   20581432.7384
    567249.47747    433259.31345  21135440.6564                   21135436.4614
   3938279.53147   3048594.43844  21977539.6954                   21977535.9414
  -3041320.87146  -2366662.84443  23457522.2114                   23457520.8834
 11  8 22 16 55 30.0000000  0 10G03G06G07G08G10G11G13G19G23G28
   3821256.67646   2951542.61343  22591547.1724                   22591545.8984
   4249828.05546   3290032.54342  24621689.5944                   24621689.4414
  -2822321.70747  -2197437.66445  21149663.3364                   21149660.3284
  -3874900.03146  -3015930.28942  22718968.2894                   22718965.8984
   1840219.07045   1416921.15642  24679996.6954                   24679996.8204
  -4164775.47346  -3238484.19543  23226022.9144                   23226021.3054
   1766099.39147   1364908.40645  20597052.3834                   20597049.6954
    627388.22347    480120.66445  21146884.3754                   21146879.2774
   4061783.99647   3144831.60544  22001042.0864                   22001037.9804
  -3065369.33646  -2385401.91442  23452946.5554                   23452943.9304
 11  8 22 16 56  0.0000000  0 10G03G06G07G08G10G11G13G19G23G28
   3940727.66846   3044636.84443  22614280.8594                   22614279.8834
   4374596.32845   3387254.49642  24645432.5084                   24645430.5164
  -2843350.87547  -2213824.02345  21145661.7974                   21145658.5354
  -3921227.18446  -3052029.37143  22710152.5234                   22710150.5474
   1916694.00445   1476511.91042  24694548.8134                   24694548.8914
  -4214329.34446  -3277097.58243  23216592.5864                   23216590.8554
   1848705.35247   1429276.64545  20612771.9384                   20612769.1054
    688114.48447    527439.81345  21158439.4304                   21158435.2974
   4185599.60947   3241311.22344  22024602.8754                   22024599.7814
  -3089206.12546  -2403975.96143  23448410.6724                   23448407.8634
 11  8 22 16 56 30.0000000  0 10G03G06G07G08G10G11G13G19G23G28
   4060518.21546   3137980.10543  22637076.6174                   22637075.3244
   4499534.95745   3484609.19142  24669206.2734                   24669206.0904
  -2864217.25047  -2230083.54345  21141690.4224                   21141687.3674
  -3967561.45346  -3088134.01643  22701335.3754                   22701333.4884
   1993368.08245   1536257.87942  24709139.0314                   24709139.7114
  -4263746.50046  -3315604.44143  23207189.4614                   23207187.8984
   1931847.35247   1494062.59045  20628593.6174                   20628590.9144
    749428.57047    575217.00845  21170107.6564                   21170103.4064
   4309724.77747   3338032.05544  22048223.7734                   22048219.4384
  -3112829.90646  -2422384.09443  23443914.3834                   23443912.1684
 11  8 22 16 57  0.0000000  0 10G03G06G07G08G10G11G13G19G23G28
   4180631.52346   3231574.83243  22659933.8364                   22659933.1764
   4624647.46945   3582099.34842  24693016.1724                   24693014.7974
  -2884913.16047  -2246210.22744  21137752.0394                   21137749.2034
  -4013895.62146  -3124238.53143  22692518.7114                   22692516.7894
   2070245.05145   1596161.88342  24723767.4144                   24723769.0044
  -4313017.75046  -3353997.61743  23197813.1954                   23197810.8874
   2015529.75047   1559269.60945  20644517.6174                   20644514.8554
    811335.55547    623456.19945  21181888.1024                   21181883.7894
   4434162.87947   3434996.74244  22071903.0474                   22071899.4844
  -3136234.44546  -2440621.32843  23439460.3834                   23439459.1764
 11  8 22 16 57 30.0000000  0 10G03G06G07G08G10G11G13G19G23G28
   4301058.25046   3325413.78543  22682850.2504                   22682848.7274
   4749924.58646   3679717.80943  24716856.3594                   24716854.4224
  -2905443.91047  -2262208.19544  21133845.1954                   21133841.7704
  -4060235.31246  -3160347.40643  22683700.4064                   22683698.7304
   2147315.090 5                  24738434.719
  -4362146.79746  -3392279.98043  23188464.8674                   23188462.7034
   2099744.35547   1624891.34445  20660543.1484                   20660540.6484
    873826.15247    672150.16045  21193779.6174                   21193775.0164
   4558904.30547   3532197.77044  22095640.8524                   22095637.3984
  -3159428.09846  -2458694.30143  23435048.1484                   23435045.2934
 11  8 22 16 58  0.0000000  0 10G03G06G07G08G10G11G13G19G23G28
   4421789.12146   3419489.74243  22705825.1254                   22705822.9384
   4875357.23446   3777457.48043  24740724.3524                   24740723.3954
  -2925814.41847  -2278081.34445  21129969.0314                   21129965.1994
  -4106586.12546  -3196464.87142  22674880.7814                   22674878.4264
   2224568.582 5                  24753134.250
  -4411137.61346  -3430454.62143  23179141.9774                   23179140.3714
   2184482.07847   1690920.70745  20676668.4064                   20676665.3794
    936892.79747    721292.97345  21205780.7894                   21205776.1334
   4683939.56646   3629627.76244  22119433.9224                   22119430.8984
  -3182417.98846  -2476608.44543  23430672.1174                   23430670.2894
 11  8 22 16 58 30.0000000  0 10G03G06G07G08G10G11G13G19G23G28
   4542817.07046   3513797.16443  22728855.2814                   22728854.2704
   5000939.32045   3875313.62543  24764622.3054                   24764621.2774
  -2946026.57847  -2293831.07844  21126122.6564                   21126119.1024
  -4152950.27046  -3232592.75843  22666057.9844                   22666055.3404
   2301999.637 5                  24767869.867
  -4459990.28546  -3468521.60543  23169845.1564                   23169844.3284
   2269737.89547   1757353.78145  20692891.8754                   20692889.6294
   1000530.34047    770880.65245  21217890.5474                   21217885.8794
   4809262.46146   3727281.88744  22143282.3204                   22143278.8634
  -3205208.13346  -2494366.98443  23426336.2734                   23426333.8164
 11  8 22 16 59  0.0000000  0 10G03G06G07G08G10G11G13G19G23G28
   4664149.02346   3608341.49643  22751945.1484                   22751942.9104
   5126678.36345   3973292.01243  24788550.5474                   24788549.4964
  -2966068.48447  -2309448.14845  21122308.9224                   21122305.1564
  -4199316.53546  -3268722.33643  22657234.5864                   22657232.1644
   2379615.234 5                  24782640.336
  -4508691.89546  -3506470.89843  23160577.0004                   23160576.2814
   2355519.90647   1824196.87145  20709215.5004                   20709212.8834
   1064747.16047    820919.70745  21230110.6564                   21230105.8284
   4934879.89546   3825165.52344  22167186.3054                   22167183.1294
  -3227789.07846  -2511962.46943  23422039.4384                   23422036.5434
 11  8 22 16 59 30.0000000  0 10G03G06G07G08G10G11G13G19G23G28
   4785774.45746   3703114.51243  22775089.8524                   22775087.4264
   5252563.95345   4071384.62542  24812504.1564                   24812504.7234
  -2985946.65247  -2324937.63745  21118525.8284                   21118523.2584
  -4245692.04346  -3304859.05143  22648409.8754                   22648407.1684
   2457404.695 5                  24797443.344
  -4557247.72346  -3544306.59043  23151338.7194                   23151336.4844
   2441817.84047   1891441.96945  20725637.6724                   20725634.8244
   1129534.05147    871402.97345  21242439.6804                   21242434.6644
   5060780.78147   3923270.03544  22191145.0554                   22191140.9574
  -3250169.55946  -2529401.79743  23417780.9614                   23417777.4264
 11  8 22 17  0  0.0000000  0 10G03G06G07G08G10G11G13G19G23G28
   4907693.77346   3798116.53143  22798289.6724                   22798288.6564
   5378596.78545   4169591.91442  24836487.1484                   24836487.5004
  -3005656.19547  -2340295.72745  21114775.2194                   21114772.6564
  -4292072.20346  -3340999.45342  22639583.0004                   22639579.5824
   2535368.309 5                  24812279.258
  -4605651.19146  -3582023.55543  23142127.0864                   23142125.3054
   2528633.34047   1959090.37545  20742158.7344                   20742155.6724
   1194892.57847    922331.67245  21254876.5394                   21254871.9264
   5186966.05147   4021596.09844  22215157.2424                   22215153.0784
  -3272346.67246  -2546682.63743  23413559.8364                   23413558.1604
 11  8 22 17  0 30.0000000  0 10G03G06G07G08G10G11G13G19G23G28
   5029903.62946   3893344.93043  22821545.5164                   22821544.1294
   5504774.11355   4267911.85552  24860499.2974                   24860497.8914
  -3025195.24247  -2355520.97345  21111057.3524                   21111054.4804
  -4338455.92646  -3377142.61742  22630756.7114                   22630753.8954
   2613503.219 5                  24827147.852
  -4653899.67246  -3619619.75043  23132945.1334                   23132943.8714
   2615964.55147   2027140.62545  20758776.7344                   20758774.1994
   1260820.94947    973704.39545  21267422.7504                   21267417.4304
   5313432.27347   4120141.11744  22239223.3594                   22239219.0784
  -3294321.41846  -2563805.77743  23409378.8054                   23409376.4924
 11  8 22 17  1  0.0000000  0 10G03G06G07G08G10G11G13G19G23G28
   5152396.82046   3988794.11343  22844854.9384                   22844854.2544
   5631089.109 5                  24884535.969
  -3044566.48447  -2370615.45345  21107371.8444                   21107368.5354
  -4384846.47746  -3413291.11742  22621928.6644                   22621926.2934
   2691802.664 5                  24842047.891
  -4701994.38346  -3657096.12543  23123794.1564                   23123791.3094
   2703804.89147   2095587.59845  20775492.3834                   20775489.6884
   1327313.05147   1025516.41045  21280075.1334                   21280070.6954
   5440172.57047   4218899.68444  22263341.4224                   22263337.3914
  -3316098.66046  -2580775.03143  23405234.4224                   23405232.2194
 11  8 22 17  1 30.0000000  0 10G03G06G07G08G10G11G13G19G23G28
   5275166.58646   4084458.80143  22868216.8984                   22868216.3244
   5757535.74215                  24908596.625
  -3063772.17647  -2385580.93445  21103716.3914                   21103713.8164
  -4431246.41446  -3449446.89842  22613099.0634                   22613097.4224
   2770259.879 5                  24856978.555
  -4749935.91446  -3694453.14843  23114670.8204                   23114668.4774
   2792148.79747   2164426.94945  20792303.0634                   20792300.5984
   1394363.61747   1077763.57045  21292835.0314                   21292830.3244
   5567179.82847   4317866.28144  22287509.8524                   22287505.9694
  -3337682.79346  -2597593.77743  23401127.0554                   23401125.2974
 11  8 22 17  2  0.0000000  0 10G03G06G07G08G10G11G13G19G23G28
   5398218.21546   4180343.10243  22891633.5084                   22891631.8594
   5884119.324 5                  24932686.109
  -3082802.62147  -2400409.85945  21100095.1024                   21100092.6254
  -4477646.50046  -3485602.77342  22604269.2734                   22604267.2704
   2848879.660 5                  24871937.820
  -4797713.42246  -3731682.35543  23105578.9224                   23105576.2974
   2881001.79747   2233663.01645  20809211.2584                   20809209.1214
   1461979.12947   1130450.96945  21305702.1334                   21305696.8714
   5694459.65647   4417045.29744  22311730.7344                   22311726.9224
  -3359066.48846  -2614256.38743  23397057.7114                   23397055.3364
 11  8 22 17  2 30.0000000  0 10G03G06G07G08G10G11G13G19G23G28
   5521538.27046   4276436.57843  22915101.0084                   22915099.3444
   6010827.141 5                  24956797.219
  -3101666.29347  -2415108.83245  21096505.3754                   21096502.8914
  -4524055.91446  -3521765.93043  22595438.4694                   22595435.6254
   2927648.89845   2264267.52052  24886927.5314                   24886930.2234
  -4845334.33246  -3768789.56243  23096517.1414                   23096514.2114
   2970351.86347   2303286.39845  20826214.0004                   20826212.3874
   1530147.27747   1183568.98445  21318673.7974                   21318669.4614
   5821998.59447   4516426.20744  22336000.2344                   22335996.5084
  -3380261.07046  -2630771.59443  23393024.5394                   23393022.6684
 11  8 22 17  3  0.0000000  0 10G03G06G07G08G10G11G13G19G23G28
   5645122.11346   4372735.61743  22938618.0864                   22938616.3674
   6137654.45315                  24980932.313
  -3120363.60947  -2429678.17245  21092947.4534                   21092944.5354
  -4570475.48046  -3557937.04342  22586604.5474                   22586602.7154
   3006563.00445   2325758.93842  24901945.1024                   24901946.6054
  -4892797.49646  -3805773.83243  23087485.0164                   23087482.7934
   3060194.92647   2373293.93445  20843310.8914                   20843308.2974
   1598864.24647   1237114.66045  21331749.4774                   21331745.3364
   5949791.72347   4616005.19144  22360318.5314                   22360315.0704
  -3401268.91446  -2647141.33243  23389026.7194                   23389024.8054
 11  8 22 17  3 30.0000000  0  9G03G07G08G10G11G13G19G23G28
   5768973.41046   4469243.09843  22962186.2424                   22962184.7734
  -3138885.61347  -2444110.90245  21089423.0164                   21089420.0554
  -4616896.84046  -3594109.52042  22577772.4694                   22577768.0474
   3085626.17245   2387366.49642  24916991.8364                   24916992.1564
  -4940092.87146  -3842627.37143  23078485.0704                   23078482.9344
   3150536.09447   2443689.60945  20860502.1414                   20860500.2074
   1668135.49247   1291092.23445  21344931.6884                   21344927.4304
   6077843.05947   4715785.35544  22384685.4224                   22384682.2894
  -3422083.79346  -2663360.68743  23385065.8754                   23385063.4384
 11  8 22 17  4  0.0000000  0  9G03G07G08G10G11G13G19G23G28
   5893078.17646   4565948.07443  22985802.1334                   22985801.1414
  -3157242.23047  -2458414.77745  21085929.5634                   21085927.0044
  -4663330.34846  -3630291.44143  22568934.9144                   22568932.1954
   3164823.98846   2449078.97342  24932060.6804                   24932063.2114
  -4987229.38746  -3879357.07043  23069514.9774                   23069512.8594
   3241361.64147   2514462.72745  20877785.9774                   20877783.5594
   1737947.72747   1345491.36745  21358216.7504                   21358212.5004
   6206138.12147   4815755.43844  22409099.9144                   22409096.6334
  -3442717.92246  -2679439.19143  23381139.4614                   23381136.9384
 11  8 22 17  4 30.0000000  0  9G03G07G08G10G11G13G19G23G28
   6017440.05946   4662853.32843  23009467.6724                   23009466.4734
  -3175425.00847  -2472583.17245  21082469.0474                   21082466.3204
  -4709767.73445  -3666476.41442  22560098.8134                   22560096.4104
   3244160.39845   2510899.43442  24947159.3834                   24947161.4734
  -5034197.03146  -3915955.21943  23060577.3284                   23060575.0234
   3332675.50447   2585616.35945  20895162.2664                   20895159.6374
   1808305.78147   1400315.80945  21371605.2424                   21371600.6804
   6334680.88347   4915918.52744  22433560.3594                   22433557.7234
  -3463165.34846  -2695372.22743  23377248.3284                   23377246.2114
 11  8 22 17  5  0.0000000  0  9G03G07G08G10G11G13G19G23G28
   6142064.27346   4759963.04743  23033181.8914                   23033181.6524
  -3193423.96947  -2486608.34445  21079044.4384                   21079041.1764
  -4756199.46946  -3702657.00843  22551262.1954                   22551261.0744
   3323640.94545   2572832.19942  24962283.9614                   24962284.7154
  -5080984.27346  -3952412.82443  23051674.1334                   23051672.1644
   3424484.53547   2657155.82845  20912632.9144                   20912630.4454
   1879216.15247   1455570.62545  21385098.8914                   21385094.6604
   6463476.51647   5016278.63744  22458070.2584                   22458066.4144
  -3483418.10946  -2711153.58243  23373393.7194                   23373391.7344
 11  8 22 17  5 30.0000000  0  9G03G07G08G10G11G13G19G23G28
   6266942.76246   4857270.87142  23056946.3754                   23056945.3094
  -3211242.48847  -2500492.91845  21075653.6724                   21075650.5474
  -4802629.53146  -3738836.27742  22542427.2584                   22542425.5274
   3403257.63345   2634871.08242  24977433.9844                   24977435.2704
  -5127593.65246  -3988731.80143  23042804.9384                   23042802.7504
   3516781.38747   2729075.39845  20930196.9304                   20930194.4414
   1950671.77747   1511250.32045  21398696.8054                   21398692.1684
   6592516.88746   5116829.46544  22482625.7504                   22482622.3054
  -3503482.33246  -2726788.00443  23369575.9224                   23369574.0204
 11  8 22 17  6  0.0000000  0  9G03G07G08G10G11G13G19G23G28
   6392075.22346   4954776.60243  23080758.8284                   23080757.0784
  -3228876.32047  -2514233.57445  21072298.6884                   21072294.7704
  -4849054.48046  -3775011.53543  22533593.2194                   22533590.3954
   3483009.89845   2697015.57442  24992609.9614                   24992611.8674
  -5174019.54746  -4024907.82443  23033970.3674                   23033967.7424
   3609566.36747   2801375.34845  20947853.2424                   20947850.4104
   2022673.77047   1567355.75045  21412397.5784                   21412393.4654
   6721801.90647   5217570.92644  22507227.6174                   22507224.2304
  -3523356.19946  -2742274.07443  23365794.1094                   23365792.2544
 11  8 22 17  6 30.0000000  0 10G03G24G07G08G10G11G13G19G23G28
   6517446.87146   5052468.69943  23104616.0314                   23104614.6764
  -1663830.09815                  24498641.563
  -3246335.34447  -2527838.02346  21068975.9064                   21068972.4844
  -4895484.64546  -3811190.87943  22524757.6414                   22524755.2194
   3562883.37545   2759254.51642  25007810.8754                   25007811.2274
  -5220270.98046  -4060947.87543  23025169.2974                   23025166.0314
   3702825.33647   2874044.62545  20965600.0944                   20965597.4654
   2095207.80147   1623875.76245  21426201.2344                   21426196.2344
   6851316.69147   5318491.44144  22531873.6024                   22531869.9104
  -3543052.48846  -2757621.80143  23362045.8984                   23362044.2074
 11  8 22 17  7  0.0000000  0 10G03G24G07G08G10G11G13G19G23G28
   6643054.77346   5150344.95343  23128518.7114                   23128517.5234
  -1709972.164 5                  24489861.242
  -3263617.73447  -2541304.83246  21065687.4304                   21065684.2774
  -4941918.09446  -3847372.74643  22515921.7034                   22515919.1804
   3642875.31645   2821585.71542  25023031.6564                   25023032.5514
  -5266344.31646  -4096849.16443  23016401.8204                   23016399.6374
   3796556.27347   2947081.68045  20983435.7664                   20983433.8914
   2168272.27747   1680809.10545  21440104.4304                   21440100.2854
   6981058.31346   5419588.69944  22556562.5944                   22556559.5204
  -3562571.59046  -2772831.45343  23358331.7504                   23358329.9454
 11  8 22 17  7 30.0000000  0 10G03G24G07G08G10G11G13G19G23G28
   5193478.99246   4020805.31643  22852673.2664                   22852672.1524
  -3331625.891 5                  24181270.453
  -4856143.48847  -3782234.00446  20762639.7814                   20762636.7624
  -6563776.59446  -5111158.57843  22207291.8914                   22207289.2274
   2147564.10945   1656408.06642  24738484.3524                   24738484.9964
  -6887659.46946  -5360211.60243  22707875.3594                   22707872.6994
   2315338.84847   1792886.23445  20701569.8594                   20701567.8524
    666446.59047    510555.30945  21154316.2894                   21154312.3554
   5535606.63347   4293262.61344  22281502.5004                   22281499.1054
  -5157335.95746  -4015504.94143  23054857.5944                   23054856.0824
 11  8 22 17  8  0.0000000  0 10G03G24G07G08G10G11G13G19G23G28
   5319540.54746   4119035.09442  22876662.9774                   22876661.1564
  -3377953.19115                  24172454.672
  -4873077.66047  -3795429.46946  20759417.3054                   20759414.7664
  -6610223.65246  -5147351.10243  22198452.8914                   22198450.3284
   2227773.95346   1718909.13342  24753748.5474                   24753748.9064
  -6933378.19146  -5395836.57843  22699174.9224                   22699173.1884
   2409996.76247   1866645.59445  20719582.8914                   20719580.4144
    740556.04747    568302.91845  21168419.2274                   21168414.9844
   5665782.53547   4394698.28544  22306274.1174                   22306270.8284
  -5176513.23446  -4030448.25843  23051208.7734                   23051206.9184
 11  8 22 17  8 30.0000000  0 10G03G24G07G08G10G11G13G19G23G28
   5445826.42646   4217439.63743  22900694.2584                   22900691.2504
  -3424367.023 5                  24163620.867
  -4889833.11747  -3808485.67246  20756228.7344                   20756226.2504
  -6656673.56246  -5183545.85543  22189615.1094                   22189611.6994
   2308090.63745   1781493.37942  24769030.3204                   24769033.3484
  -6978913.26646  -5431318.42243  22690510.3364                   22690507.5744
   2505116.99647   1940765.21545  20737683.8914                   20737681.0704
    815187.22347    626457.06345  21182621.2424                   21182616.6804
   5796173.32847   4496301.39144  22331086.9454                   22331083.6054
  -5195518.67646  -4045257.64843  23047591.4844                   23047589.2934
 11  8 22 17  9  0.0000000  0 10G03G24G07G08G10G11G13G19G23G28
   5572331.34846   4316014.81643  22924766.6954                   22924765.4844
  -3470867.02015                  24154773.375
  -4906410.13347  -3821402.83646  20753073.6564                   20753071.4304
  -6703127.43046  -5219743.66843  22180774.2034                   22180772.0634
   2388509.04745   1844157.00842  24784333.8984                   24784336.6684
  -7024263.91846  -5466656.57043  22681881.0704                   22681878.2894
   2600694.55147   2015241.16845  20755871.7114                   20755869.0084
    890335.66847    685014.26645  21196921.7344                   21196917.4454
   5926773.79347   4598067.89544  22355939.3984                   22355936.1844
  -5214355.39546  -4059935.55943  23044007.6954                   23044005.2504
 11  8 22 17  9 30.0000000  0 10G03G24G07G08G10G11G13G19G23G28
   5699062.26646   4414766.11343  22948882.0164                   22948881.7344
  -3517440.801 5                  24145909.617
  -4922798.07047  -3834172.64546  20749955.0234                   20749952.8914
  -6749573.84446  -5255935.65243  22171935.7034                   22171933.8094
   2469035.60945   1906904.79742  24799658.7814                   24799659.8674
  -7069417.77746  -5501841.35543  22673288.3364                   22673286.1524
   2696736.69547   2090079.14845  20774147.9774                   20774145.2814
    966008.86347    743980.35945  21211321.0234                   21211317.2154
   6057590.40647   4700002.78943  22380832.9064                   22380829.1294
  -5233014.52346  -4074475.12943  23040456.4924                   23040454.4614
 11  8 22 17 10  0.0000000  0  9G03G24G07G08G11G13G19G23G28
   5826006.66046   4513683.73843  22973039.3284                   22973038.6994
  -3564095.523 5                  24137031.273
  -4939004.13747  -3846800.76246  20746871.5864                   20746869.1414
  -6796021.23046  -5292128.45743  22163096.8204                   22163094.7664
  -7114381.54746  -5536878.02343  22664731.1254                   22664729.6094
   2793231.75047   2165270.03945  20792510.0234                   20792507.2624
   1042195.16847    803346.29345  21225819.1884                   21225815.3054
   6188610.76647   4802096.48843  22405765.6724                   22405761.6214
  -5251506.76646  -4088884.64543  23036937.4064                   23036936.2424
 11  8 22 17 10 30.0000000  0  9G03G24G07G08G11G13G19G23G28
   5953160.73846   4612764.78943  22997235.8054                   22997235.2704
  -3610829.387 5                  24128138.219
  -4955027.23047  -3859286.28946  20743822.4144                   20743820.4304
  -6842469.06246  -5328321.54743  22154259.0314                   22154256.2504
  -7159152.77046  -5571764.66443  22656212.0474                   22656209.5044
   2890176.30147   2240811.18845  20810958.1954                   20810955.7274
   1118891.76647    863109.84845  21240414.3914                   21240410.3134
   6319830.80146   4904345.74643  22430735.3914                   22430732.1994
  -5269833.60546  -4103165.28543  23033449.6484                   23033447.6094
 11  8 22 17 11  0.0000000  0  9G03G24G07G08G11G13G19G23G28
   6080536.66846   4712018.66843  23021474.0784                   23021474.8404
  -3657624.53945  -2842274.54752  24119233.1644                   24119236.6374
  -4970851.03547  -3871616.53146  20740811.4064                   20740808.5984
  -6888901.03146  -5364502.28143  22145422.6724                   22145420.5984
  -7203713.33246  -5606487.13743  22647732.5234                   22647730.0234
   2987583.23047   2316712.63345  20829494.1254                   20829491.6764
   1196111.68447    923281.18445  21255109.1254                   21255104.3674
   6451262.67246   5006760.08243  22455746.8134                   22455743.4224
  -5287980.63346  -4117305.77043  23029996.5474                   23029994.5984
 11  8 22 17 11 30.0000000  0  9G03G24G07G08G11G13G19G23G28
   6208126.15645   4811439.00042  23045754.3134                   23045753.7384
  -3704482.99246  -2878787.59843  24110316.2584                   24110318.8634
  -4986478.64847  -3883793.89846  20737837.1724                   20737834.4224
  -6935320.60546  -5400673.37943  22136589.5234                   22136587.4804
  -7248065.53946  -5641047.25443  22639292.6484                   22639290.1884
   3085445.00847   2392968.51645  20848116.2114                   20848114.1564
   1273847.54747    983854.55545  21269901.2034                   21269896.8554
   6582898.47746   5109333.29743  22480795.8984                   22480792.8794
  -5305953.75046  -4131310.76643  23026576.4384                   23026574.2624
 11  8 22 17 12  0.0000000  0  9G03G24G07G08G11G13G19G23G28
   6335927.72746   4911024.53142  23070074.7034                   23070073.1764
  -3751401.10546  -2915347.06643  24101389.2034                   24101390.1954
  -5001906.69947  -3895815.75846  20734902.0164                   20734898.3834
  -6981724.85546  -5436832.53943  22127759.1724                   22127756.8094
  -7292204.99246  -5675441.59043  22630892.4534                   22630889.9534
   3183760.55947   2469577.98445  20866826.0394                   20866823.0824
   1352098.90647   1044829.60945  21284792.5634                   21284788.0554
   6714736.16846   5212063.86343  22505884.4454                   22505880.8244
  -5323752.58646  -4145179.93443  23023190.0784                   23023187.7814
 11  8 22 17 12 30.0000000  0  9G03G24G07G08G11G13G19G23G28
   6463936.07445   5010771.22342  23094434.2424                   23094431.8794
  -3798378.85946  -2951953.08243  24092448.9924                   24092450.2344
  -5017136.32447  -3907683.00046  20732003.8834                   20732000.6804
  -7028115.42246  -5472980.99643  22118931.7424                   22118929.2704
  -7336131.53146  -5709670.03943  22622533.9384                   22622531.4104
   3282524.59447   2546536.92645  20885619.7814                   20885617.0984
   1430860.73047   1106202.42245  21299779.9454                   21299775.8554
   6846770.14546   5314947.33644  22531008.8364                   22531006.8014
  -5341380.68046  -4158916.08243  23019835.1484                   23019832.5274
 11  8 22 17 13  0.0000000  0  9G03G24G07G08G11G13G19G23G28
   6592143.41846   5110673.00042  23118831.4064                   23118828.6884
  -3845418.11746  -2988606.99243  24083497.9844                   24083499.5314
  -5032170.28547  -3919397.78946  20729142.7664                   20729139.9264
  -7074495.17646  -5509121.07043  22110106.2504                   22110102.5474
  -7379846.81646  -5743733.83243  22614214.8054                   22614212.7424
   3381730.38347   2623840.09445  20904497.8754                   20904495.5704
   1510126.30147   1167967.77045  21314863.6804                   21314859.7194
   6978992.80946   5417977.85244  22556170.6804                   22556167.9924
  -5358843.42246  -4172523.37143  23016512.0234                   23016509.2854
 11  8 22 17 13 30.0000000  0  9G03G24G07G08G11G13G19G23G28
   6720542.36746   5210724.03942  23143264.7034                   23143262.6884
  -3892520.62146  -3025310.20743  24074534.3204                   24074536.3594
  -5047011.32447  -3930962.24246  20726318.7664                   20726315.9384
  -7120867.35546  -5545255.24243  22101281.5164                   22101279.3874
  -7423352.20746  -5777634.10943  22605935.8834                   22605934.4184
   3481370.73047   2701481.87945  20923458.7194                   20923456.8794
   1589888.71947   1230120.27745  21330042.2974                   21330037.8984
   7111397.11346   5521149.92244  22581366.8594                   22581363.6024
  -5376145.92646  -4186005.82843  23013218.9614                   23013216.5554
 11  8 22 17 14  0.0000000  0  9G03G24G07G08G11G13G19G23G28
   6849137.39846   5310927.85243  23167736.5634                   23167733.8594
  -3939676.30946  -3062054.84843  24065561.6174                   24065562.3914
  -5061650.43047  -3942369.34446  20723533.0004                   20723529.8874
  -7167223.25846  -5581376.71543  22092459.8444                   22092457.2274
  -7466637.46146  -5811362.82843  22597698.6564                   22597697.3014
   3581450.52347   2779466.07045  20942503.6804                   20942501.7304
   1670153.47347   1292664.19945  21345316.2814                   21345311.8404
   7243987.09846   5624466.68844  22606597.1954                   22606594.6954
  -5393281.83646  -4199358.44943  23009958.7504                   23009955.7814
 11  8 22 17 14 30.0000000  0  9G03G24G07G08G11G13G19G23G28
   6977928.69146   5411284.65243  23192243.8054                   23192242.5904
  -3986879.38346  -3098836.41043  24056579.1024                   24056580.3444
  -5076082.75847  -3953615.32446  20720786.8284                   20720783.8794
  -7213558.23846  -5617481.89543  22083643.2344                   22083640.2584
  -7509696.89546  -5844915.59843  22589505.2274                   22589503.7584
   3681970.39847   2857793.19145  20961632.6024                   20961629.9384
   1750921.34047   1355600.17245  21360685.0944                   21360681.6094
   7376762.30946   5727927.75844  22631865.1884                   22631860.8244
  -5410249.17246  -4212579.73443  23006730.3674                   23006727.3094
 11  8 22 17 15  0.0000000  0  9G03G24G07G08G11G13G19G23G28
   7106906.84846   5511787.05543  23216787.7584                   23216786.6214
  -4034133.73046  -3135657.92643  24047585.7344                   24047588.1884
  -5090312.92247  -3964703.77346  20718078.9454                   20718076.0044
  -7259877.86746  -5653575.07443  22074828.4144                   22074825.8674
  -7552533.94946  -5878295.09043  22581353.2034                   22581352.1994
   3782921.11347   2936456.03145  20980842.1334                   20980840.0744
   1832183.22747   1418921.09045  21376149.3674                   21376145.4104
   7509713.73846   5831526.14844  22657164.2194                   22657161.5824
  -5427055.30946  -4225675.43443  23003531.1884                   23003529.3754
 11  8 22 17 15 30.0000000  0  9G03G24G07G08G11G13G19G23G28
   7236078.26246   5612439.99643  23241368.5004                   23241367.3714
  -4081426.79746  -3172509.60943  24038587.0474                   24038588.6724
  -5104329.43747  -3975625.72746  20715411.4844                   20715408.9774
  -7306170.19146  -5689646.98843  22066017.9614                   22066016.2234
  -7595135.80146  -5911491.30144  22573246.8444                   22573244.8634
   3884310.14147   3015460.41845  21000135.9534                   21000133.7544
   1913946.83247   1482632.95745  21391708.8364                   21391704.5514
   7642848.00447   5935266.98043  22682498.8834                   22682495.6254
  -5443691.03946  -4238638.32043  23000365.5394                   23000363.8834
 11  8 22 17 16  0.0000000  0  9G03G24G07G08G11G13G19G23G28
   7365437.92246   5713239.66043  23265984.6724                   23265983.3164
  -4128758.27345  -3209391.23442  24029579.1484                   24029581.6914
  -5118132.91447  -3986381.69946  20712784.3834                   20712781.8984
  -7352436.53546  -5725698.68443  22057214.9844                   22057212.1914
  -7637501.93446  -5944503.82443  22565183.3914                   22565182.6914
   3986132.36747   3094802.35545  21019512.0634                   21019509.8594
   1996207.44547   1546732.11345  21407362.3054                   21407358.4534
   7776159.64846   6039146.06643  22707867.0314                   22707863.9804
  -5460160.02746  -4251471.27343  22997231.4614                   22997229.9344
 11  8 22 17 16 30.0000000  0  9G03G24G07G08G11G13G19G23G28
   7494985.35246   5814185.64142  23290636.6024                   23290635.7734
  -4176123.00045  -3246298.73043  24020565.7114                   24020568.0004
  -5131718.91047  -3996968.19146  20710199.4304                   20710196.9224
  -7398673.06246  -5761727.14143  22048416.2274                   22048413.7504
  -7679627.37546  -5977328.80143  22557168.3524                   22557166.3484
   4088387.57447   3174481.69145  21038970.7584                   21038968.1914
   2078965.20347   1611218.65245  21423110.6174                   21423106.4454
   7909648.00846   6143162.83643  22733268.6724                   22733266.3984
  -5476460.82446  -4264173.18443  22994129.6954                   22994128.0234
 11  8 22 17 17  0.0000000  0  9G03G24G07G08G11G13G19G23G28
   7624718.51646   5915276.29342  23315324.1804                   23315323.0044
  -4223517.34045  -3283229.29742  24011546.5944                   24011549.3554
  -5145084.85247  -4007383.21946  20707655.8284                   20707653.0394
  -7444877.30146  -5797730.39543  22039622.9774                   22039621.5434
  -7721508.10246  -6009963.10543  22549198.6024                   22549196.1174
   4191073.98847   3254497.03945  21058511.5784                   21058509.1804
   2162218.39847   1676091.25445  21438953.1174                   21438948.9844
   8043310.80946   6247315.55943  22758703.8524                   22758701.4734
  -5492593.19146  -4276743.82043  22991059.6484                   22991058.3634
 11  8 22 17 17 30.0000000  0  9G03G24G07G08G11G13G19G23G28
   7754636.11746   6016510.79342  23340046.3594                   23340045.0634
  -4270937.31245  -3320179.90642  24002524.1334                   24002526.0744
  -5158228.08647  -4017624.70346  20705154.8594                   20705151.9414
  -7491046.79746  -5833706.63343  22030838.8834                   22030836.2274
  -7763139.88346  -6042403.39543  22541276.2814                   22541274.0474
   4294190.21547   3334847.28945  21078133.5234                   21078131.4064
   2245966.29347   1741349.33245  21454889.6024                   21454885.2854
   8177146.35246   6351602.84443  22784172.6334                   22784170.3164
  -5508556.82846  -4289182.99644  22988023.0474                   22988020.7504
 11  8 22 17 18  0.0000000  0  9G03G24G07G08G11G13G19G23G28
   7884733.39546   6117885.25842  23364803.2584                   23364801.4804
  -4318381.71545  -3357149.44942  23993495.3674                   23993497.2974
  -5171148.09847  -4027692.25046  20702696.2034                   20702693.3594
  -7537181.20746  -5869655.52043  22022059.2504                   22022056.9024
  -7804521.27346  -6074648.61343  22533401.7814                   22533398.8914
   4397732.35547   3415529.41045  21097837.1644                   21097835.1484
   2330205.06347   1806989.91445  21470919.8914                   21470915.6884
   8311150.16046   6456021.28543  22809672.3524                   22809669.7664
  -5524354.14546  -4301492.55544  22985016.3054                   22985014.2774
 11  8 22 17 18 30.0000000  0  9G03G24G07G08G11G13G19G23G28
   8015013.71946   6219402.35943  23389594.9144                   23389593.6804
  -4365841.20345  -3394130.86742  23984463.7664                   23984465.9414
  -5183836.69147  -4037579.47746  20700281.7974                   20700278.6174
  -7583272.50846  -5905570.81643  22013288.1484                   22013285.8674
  -7845642.60946  -6106691.18043  22525577.3754                   22525574.2424
   4501704.22747   3496546.39145  21117622.3754                   21117620.3634
   2414938.67247   1873016.09045  21487044.4224                   21487039.6414
   8445325.59446   6560573.42643  22835205.3204                   22835202.6134
  -5539979.57446  -4313668.19144  22982042.8674                   22982040.8244
 11  8 22 17 19  0.0000000  0  9G03G24G07G08G11G13G19G23G28
   8145478.81346   6321063.35243  23414421.9924                   23414421.2734
  -4413308.41845  -3431118.25442  23975429.6334                   23975433.2704
  -5196287.23047  -4047281.20746  20697912.5394                   20697909.4844
  -7629314.50046  -5941447.65243  22004526.8054                   22004524.9264
  -7886496.89846  -6138525.65643  22517802.4534                   22517799.4224
   4606107.55947   3577899.57445  21137489.5634                   21137487.7274
   2500169.26247   1939429.51245  21503263.3754                   21503258.4804
   8579674.04346   6665260.40243  22860772.2814                   22860769.1214
  -5555429.43746  -4325707.01644  22979102.5164                   22979100.8754
 11  8 22 17 19 30.0000000  0  9G03G24G07G08G11G13G19G23G28
   8276126.91446   6422866.95743  23439283.3754                   23439282.4574
  -4460779.62545  -3468108.62142  23966397.9924                   23966399.8054
  -5208497.23847  -4056795.51646  20695588.7814                   20695585.5474
  -7675304.64146  -5977284.09843  21995775.6094                   21995772.2464
  -7927080.25846  -6170149.01243  22510079.1484                   22510076.2074
   4710940.80947   3659587.75445  21157439.2504                   21157437.0274
   2585895.34047   2006229.03145  21519576.3134                   21519571.8134
   8714193.66846   6770080.73443  22886370.1334                   22886367.2074
  -5570703.83246  -4337609.10944  22976196.2194                   22976193.5474
 11  8 22 17 20  0.0000000  0  9G03G24G07G08G11G13G19G23G28
   8406957.96146   6524813.15643  23464178.8444                   23464178.9304
  -4508249.20345  -3505097.87542  23957363.8364                   23957365.2234
  -5220461.85247  -4066118.60546  20693312.2344                   20693308.9964
  -7721238.86746  -6013076.98043  21987034.2344                   21987031.2664
  -7967387.12946  -6201556.93443  22502409.5554                   22502406.2384
   4816203.85547   3741610.85245  21177469.2974                   21177467.9344
   2672116.98847   2073414.69545  21535983.9614                   21535979.6954
   8848883.98846   6875034.07843  22912000.8914                   22911997.9534
  -5585801.04746  -4349373.12543  22973323.2584                   22973320.6254
 11  8 22 17 20 30.0000000  0  9G03G24G07G08G11G13G19G23G28
   8537968.96145   6626899.53143  23489110.5944                   23489110.1764
  -4555714.45345  -3542083.66842  23948331.6724                   23948332.9384
  -5232179.55147  -4075249.29346  20691082.2274                   20691079.1294
  -7767115.53546  -6048825.02743  21978304.0004                   21978301.5314
  -8007414.21546  -6232746.83643  22494792.9384                   22494789.5984
   4921894.27747   3823966.97345  21197582.6334                   21197579.6644
   2758832.23447   2140985.00445  21552485.2504                   21552480.8634
   8983742.19946   6980118.25843  22937663.5314                   22937661.3554
  -5600721.86346  -4360999.71144  22970483.6334                   22970482.1764
 11  8 22 17 21  0.0000000  0  9G03G24G07G08G11G13G19G23G28
   8669154.71145   6729122.04742  23514073.5084                   23514073.5474
  -4603175.26646  -3579066.19542  23939300.5004                   23939300.6644
  -5243650.99647  -4084188.09046  20688899.1564                   20688896.3204
  -7812935.46946  -6084528.86343  21969585.4224                   21969583.0354
  -8047161.69146  -6263718.87544  22487228.5394                   22487226.4264
   5028006.43447   3906651.69945  21217774.1644                   21217772.0434
   2846035.89847   2208935.87945  21569079.1254                   21569075.4264
   9118762.34846   7085328.62543  22963356.5234                   22963354.6294
  -5615469.91446  -4372491.69144  22967677.2974                   22967674.7894
 11  8 22 17 21 30.0000000  0  9G03G24G07G08G11G13G19G23G28
   8800519.18446   6831483.84843  23539071.1414                   23539071.2934
  -4650621.78546  -3616037.37942  23930271.8364                   23930271.2624
  -5254867.27347  -4092928.05946  20686765.2344                   20686761.9924
  -7858690.41846  -6120182.05943  21960877.8444                   21960876.0824
  -8086619.54346  -6294465.22343  22479720.1644                   22479717.8094
   5134544.90647   3989668.63744  21238048.1414                   21238045.8164
   2933732.53947   2277270.91045  21585767.7114                   21585763.4734
   9253948.22346   7190668.12543  22989081.9304                   22989079.5234
  -5630038.84846  -4383844.08243  22964904.2114                   22964903.2734
 11  8 22 17 22  0.0000000  0  9G03G24G07G08G11G13G19G23G28
   8932060.75046   6933983.67643  23564104.6884                   23564102.7234
  -4698049.84846  -3652994.33642  23921245.3054                   23921246.4264
  -5265825.46147  -4101466.91046  20684679.7034                   20684676.6414
  -7904377.28146  -6155782.19543  21952183.5554                   21952181.8484
  -8125783.41046  -6324982.48443  22472267.4774                   22472265.0164
   5241508.46547   4073016.80545  21258403.2034                   21258400.8134
   3021921.19147   2345989.29745  21602549.2344                   21602545.1804
   9389298.54746   7296135.76243  23014838.7344                   23014835.2154
  -5644428.48046  -4395056.75843  22962166.4304                   22962164.6094
 11  8 22 17 22 30.0000000  0  9G03G24G07G08G11G13G19G23G28
   9063784.11346   7036625.23042  23589169.2734                   23589168.1844
  -4745449.05146  -3689928.72342  23912226.3984                   23912227.2814
  -5276516.20347  -4109797.36746  20682645.2114                   20682642.3754
  -7949986.77346  -6191322.05943  21943504.6334                   21943501.9844
  -8164642.94146  -6355262.59844  22464872.6024                   22464870.0124
   5348901.46147   4156699.61344  21278838.9304                   21278836.6764
   3110606.71947   2415094.88345  21619425.5864                   21619422.0204
   9524817.85946   7401735.05543  23040627.1174                   23040624.5434
  -5658632.37546  -4406124.71943  22959463.6564                   22959461.3984
 11  8 22 17 23  0.0000000  0  9G03G24G07G08G11G13G19G23G28
   9195683.77746   7139404.17242  23614269.2664                   23614267.5394
  -4792819.45746  -3726840.65642  23903211.7664                   23903213.7624
  -5286940.19547  -4117919.95346  20680661.6334                   20680658.8794
  -7995520.33246  -6226802.75043  21934840.0394                   21934837.6844
  -8203198.25446  -6385305.68043  22457536.2034                   22457533.6334
   5456718.26647   4240712.64545  21299356.1024                   21299353.9844
   3199783.60947   2484583.34845  21636394.3984                   21636391.2424
   9660499.96546   7507461.23043  23066447.1884                   23066443.7304
  -5672654.16846  -4417050.77743  22956795.7974                   22956793.6054
 11  8 22 17 23 30.0000000  0  9G03G24G07G08G11G13G19G23G28
   9327754.71546   7242316.50842  23639402.1954                   23639401.0234
  -4840160.04746  -3763729.34442  23894204.0784                   23894204.9534
  -5297097.71547  -4125834.91446  20678728.8984                   20678725.9384
  -8040978.05546  -6262224.35543  21926189.8134                   21926187.0944
  -8241448.16846  -6415110.76244  22450257.2344                   22450255.1644
   5564954.56347   4325052.55145  21319952.7734                   21319950.5204
   3289447.45747   2554451.25845  21653457.2584                   21653453.5664
   9796340.09046   7613310.52343  23092295.9064                   23092293.1804
  -5686496.62946  -4427837.08644  22954161.4144                   22954159.7464
 11  8 22 17 24  0.0000000  0  9G03G24G07G08G11G13G19G23G28
   9459994.38746   7345360.32042  23664567.2664                   23664565.9964
  -4887467.96546  -3800592.59043  23885201.7894                   23885203.1764
  -5306987.15247  -4133540.97346  20676847.3054                   20676843.9964
  -8086358.22346  -6297585.50443  21917553.6414                   21917551.7034
  -8279389.89546  -6444675.71943  22443037.1484                   22443034.5824
   5673607.31647   4409716.96945  21340628.7274                   21340626.3914
   3379595.77747   2624696.68045  21670612.7114                   21670608.1954
   9932335.32046   7719280.68043  23118174.8914                   23118172.7504
  -5700160.97346  -4438484.61744  22951561.3204                   22951558.8244
 11  8 22 17 24 30.0000000  0  9G03G24G07G08G11G13G19G23G28
   9592402.98846   7448535.83242  23689762.8594                   23689762.4884
  -4934737.55546  -3837425.97743  23876206.4924                   23876208.0744
  -5316603.09047  -4141033.91046  20675017.4064                   20675014.3524
  -8131656.10946  -6332882.54343  21908934.4144                   21908931.5044
  -8317017.47346  -6473995.87143  22435876.2114                   22435874.5474
   5782677.03947   4494706.31645  21361383.5704                   21361381.7154
   3470229.18847   2695320.08245  21687859.0234                   21687855.5314
  10068485.32046   7825371.44143  23144084.2814                   23144081.6094
  -5713644.87946  -4448991.53944  22948995.3914                   22948992.9184
 11  8 22 17 25  0.0000000  0  9G03G24G07G08G11G13G19G23G28
   9724972.80545   7551836.90643  23714989.9924                   23714989.4184
  -4981970.68446  -3874230.93443  23867218.4064                   23867219.1254
  -5325949.37547  -4148316.74246  20673238.6644                   20673235.5084
  -8176875.07046  -6368118.12543  21900328.9224                   21900326.5354
  -8354333.03546  -6503072.86743  22428775.5394                   22428773.3204
   5892155.62947   4580014.25445  21382217.1174                   21382215.1804
   3561339.93047   2766315.43445  21705197.0314                   21705193.1764
  10204782.21146   7931576.66443  23170020.9064                   23170018.6454
  -5726954.38346  -4459362.56243  22946462.5004                   22946460.4304
 11  8 22 17 25 30.0000000  0  9G03G24G07G08G11G13G19G23G28
   9857704.59045   7655264.13342  23740248.3444                   23740247.6484
  -5029160.94146  -3911002.51643  23858238.4614                   23858239.3954
  -5335019.74247  -4155384.56246  20671512.5314                   20671509.5394
  -8222009.69546  -6403287.93743  21891740.0704                   21891738.2504
  -8391330.58646  -6531902.10544  22421735.0394                   22421732.2234
   6002044.15647   4665641.62945  21403128.3444                   21403126.0234
   3652929.69547   2837684.05145  21722626.2814                   21722622.4654
  10341226.94946   8037897.07843  23195984.3054                   23195982.9024
  -5740086.61746  -4469595.46543  22943963.3284                   22943960.4804
 11  8 22 17 26  0.0000000  0  9G03G24G07G08G11G13G19G23G28
   9990591.66846   7758812.39542  23765536.1024                   23765535.6214
  -5076309.47346  -3947741.60943  23849265.7424                   23849266.5664
  -5343816.55547  -4162239.22346  20669838.6334                   20669835.5554
  -8267062.07446  -6438393.66843  21883166.7504                   21883164.3754
  -8428010.43746  -6560483.75443  22414755.0704                   22414752.7114
   6112335.87147   4751583.18445  21424116.3914                   21424113.8524
   3744991.83647   2909420.74645  21740145.3204                   21740141.0744
  10477812.20746   8144327.00043  23221975.7894                   23221974.3984
  -5753046.45346  -4479694.00443  22941497.7034                   22941494.7854
 11  8 22 17 26 30.0000000  0  9G03G24G07G08G11G13G19G23G28
  10123628.53945   7862477.39842  23790852.1884                   23790851.1374
  -5123415.76246  -3984447.76243  23840301.4774                   23840302.5864
  -5352340.88347  -4168881.56246  20668216.7814                   20668213.4384
  -8312033.84846  -6473436.60543  21874609.3834                   21874606.7584
  -8464372.65246  -6588817.89543  22407835.2344                   22407833.6844
   6223025.28547   4837834.61345  21445179.8134                   21445177.7584
   3837520.69947   2981521.11745  21757752.3984                   21757748.8874
  10614532.71146   8250862.29343  23247993.4614                   23247992.2584
  -5765837.85947  -4489661.30143  22939062.6414                   22939060.3324
 11  8 22 17 27  0.0000000  0  9G03G24G07G08G11G13G19G23G28
  10256815.56646   7966259.50042  23816196.5004                   23816195.7304
  -5170473.64546  -4021116.18743  23831346.1484                   23831347.9734
  -5360587.13747  -4175307.22746  20666647.3284                   20666644.0394
  -8356919.44146  -6508412.42643  21866068.8284                   21866065.6994
  -8500410.85546  -6616899.55543  22400977.2114                   22400975.9614
   6334113.13747   4924396.52045  21466318.7344                   21466316.9614
   3930517.54747   3053986.14545  21775449.3594                   21775445.6054
  10751388.54346   8357503.05943  23274036.5634                   23274034.6254
  -5778458.22346  -4499495.34043  22936661.7194                   22936659.0234
 11  8 22 17 27 30.0000000  0  9G03G24G07G08G11G13G19G23G28
  10390142.12545   8070150.22342  23841567.2584                   23841567.0704
  -5217488.43046  -4057751.00843  23822399.9144                   23822401.3364
  -5368561.70347  -4181521.18446  20665129.6724                   20665126.7774
  -8401724.90246  -6543325.75843  21857541.8364                   21857540.3594
  -8536130.77346  -6644733.20344  22394180.4774                   22394178.9924
   6445588.54347   5011260.41444  21487531.9924                   21487529.8134
   4023971.47747   3126807.35245  21793233.5004                   21793229.2154
  10888369.00846   8464240.90643  23300104.2274                   23300100.9574
  -5790916.36346  -4509202.94943  22934290.3204                   22934288.4844
 11  8 22 17 28  0.0000000  0  9G03G24G07G08G11G13G19G23G28
  10523605.00845   8174147.19942  23866964.2114                   23866964.5594
  -5264457.77046  -4094350.43443  23813462.6024                   23813462.7274
  -5376263.50047  -4187522.59446  20663664.2034                   20663661.1374
  -8446449.14546  -6578175.79343  21849031.1254                   21849029.0434
  -8571529.90646  -6672316.89544  22387443.5784                   22387442.4804
   6557447.66847   5098423.31345  21508818.0474                   21508816.1804
   4117879.14547   3199982.12945  21811103.2974                   21811099.4344
  11025470.00446   8571072.67243  23326193.1564                   23326191.1994
  -5803214.16046  -4518785.62543  22931950.2114                   22931947.8714
 11  8 22 17 28 30.0000000  0  9G03G24G07G08G11G13G19G23G28
  10657197.86346   8278245.52042  23892387.3984                   23892385.6094
  -5311382.09846  -4130914.78142  23804531.7664                   23804533.7584
  -5383693.88347  -4193312.51646  20662250.4144                   20662246.9224
  -8491094.38346  -6612964.30143  21840535.4224                   21840533.6724
  -8606608.96146  -6699651.19144  22380768.7504                   22380766.9694
   6669684.14147   5185880.22745  21530176.6644                   21530174.2974
   4212234.66447   3273505.86745  21829058.6174                   21829054.2584
  11162684.96546   8677993.23443  23352304.3524                   23352302.3594
  -5815355.96146  -4528246.75043  22929639.8674                   22929637.6604
 11  8 22 17 29  0.0000000  0  9G03G24G07G08G11G13G19G23G28
  10790911.34045   8382437.77342  23917832.1564                   23917830.5784
  -5358265.48445  -4167447.23442  23795611.6334                   23795611.7074
  -5390858.14847  -4198895.07046  20660886.6174                   20660883.6454
  -8535665.34046  -6647694.87943  21832053.5784                   21832051.5554
  -8641371.83646  -6726739.09044  22374153.5314                   22374152.1294
   6782288.58647   5273623.88344  21551603.9614                   21551602.3444
   4307028.40247   3347371.07845  21847097.4614                   21847093.0824
  11300004.27046   8784995.14143  23378434.5784                   23378432.8954
  -5827349.51646  -4537592.34043  22927357.4384                   22927354.8984
 11  8 22 17 29 30.0000000  0  9G03G24G07G08G11G13G19G23G28
  10924748.81345   8486726.64142  23943300.2504                   23943299.9304
  -5405098.52746  -4203940.43443  23786699.3524                   23786700.1724
  -5397747.72347  -4204263.57846  20659575.7424                   20659572.7234
  -8580153.74646  -6682361.19143  21823587.6254                   21823585.5394
  -8675809.40646  -6753573.52044  22367600.2344                   22367598.7034
   6895264.53547   5361657.03544  21573102.5004                   21573100.7504
   4402264.27747   3421580.81645  21865220.5084                   21865215.8054
  11437431.47746   8892081.06343  23404586.4694                   23404585.3094
  -5839189.71946  -4546818.48043  22925104.3594                   22925102.1844
 11  8 22 17 30  0.0000000  0  9G03G24G07G08G11G13G19G23G28
  11058696.14546   8591101.14142  23968789.3134                   23968788.1684
  -5451889.75846  -4240401.06243  23777794.1724                   23777796.9224
  -5404372.39147  -4209425.67646  20658315.3444                   20658312.2814
  -8624569.43746  -6716970.78543  21815136.0394                   21815133.3634
  -8709930.46947  -6780161.31244  22361107.5784                   22361105.0744
   7008597.28547   5449968.19944  21594669.6094                   21594667.3364
   4497928.07447   3496123.99245  21883424.3594                   21883419.9964
  11574951.82446   8999239.59043  23430756.8524                   23430754.1604
  -5850888.86746  -4555934.67243  22922878.4614                   22922875.4024
 11  8 22 17 30 30.0000000  0  9G03G24G07G08G11G13G19G23G28
  11192753.83246   8695561.57042  23994300.2814                   23994299.5514
  -5498633.16046  -4276824.41442  23768900.0084                   23768900.9224
  -5410726.89547  -4214377.25046  20657106.1804                   20657103.1414
  -8668907.01246  -6751519.53943  21806698.6954                   21806695.6884
  -8743728.86746  -6806497.71144  22354675.9924                   22354673.9104
   7122287.63747   5538558.02044  21616304.5704                   21616301.3954
   4594020.53947   3571001.21145  21901709.4694                   21901706.0124
  11712565.57846   9106470.92643  23456943.6644                   23456941.4224
  -5862444.56646  -4564939.10243  22920679.0164                   22920676.3094
 11  8 22 17 31  0.0000000  0  9G03G24G07G08G11G13G19G23G28
  11326918.07846   8800105.05542  24019830.4384                   24019830.2074
  -5545327.22746  -4313209.34042  23760014.2584                   23760014.5514
  -5416810.84847  -4219118.00046  20655948.4454                   20655945.4654
  -8713166.09046  -6786007.14843  21798276.3754                   21798273.5354
  -8777203.34047  -6832581.68044  22348306.1024                   22348303.9454
   7236330.77747   5627422.74244  21638006.0004                   21638003.4494
   4690537.57447   3646209.26645  21920076.7114                   21920072.6054
  11850268.75846   9213771.93443  23483147.1724                   23483146.1454
  -5873859.02746  -4573833.47343  22918507.2814                   22918505.2384
 11  8 22 17 31 30.0000000  0  9G03G24G07G08G11G13G19G23G28
  11461181.83646   8904726.07843  24045380.4844                   24045380.2704
  -5591973.03946  -4349556.64843  23751137.7664                   23751138.9344
  -5422626.98847  -4223650.07446  20654841.8444                   20654838.8324
  -8757349.27046  -6820435.59043  21789869.0554                   21789865.8054
  -8810355.37546  -6858414.40244  22341997.6884                   22341995.4844
   7350719.69547   5716556.90644  21659773.0704                   21659770.8204
   4787472.13347   3721742.64145  21938522.4844                   21938518.7974
  11988053.72746   9321136.62142  23509367.7504                   23509366.1054
  -5885137.86346  -4582622.14143  22916360.9694                   22916358.4304
 11  8 22 17 32  0.0000000  0  9G03G24G07G08G11G13G19G23G28
  11595546.39846   9009425.69143  24070949.3524                   24070949.1374
  -5638563.74246  -4385861.04743  23742271.4064                   23742272.4804
  -5428169.02747  -4227968.56646  20653787.2424                   20653783.9884
  -8801451.06646  -6854800.60943  21781476.4614                   21781473.5314
  -8843177.87147  -6883990.35244  22335751.7974                   22335749.6804
   7465455.67247   5805961.48444  21681606.4064                   21681605.2584
   4884825.43447   3797602.32445  21957048.2194                   21957044.4494
  12125921.65646   9428565.99243  23535602.9694                   23535601.6764
  -5896277.79346  -4591302.60543  22914240.4774                   22914238.2114
 11  8 22 17 32 30.0000000  0  9G03G24G07G08G11G13G19G23G28
  11730010.12145   9114202.52342  24096537.2504                   24096536.5664
  -5685095.07946  -4422119.11542  23733416.5084                   23733417.9414
  -5433434.04747  -4232071.19146  20652785.2894                   20652782.0554
  -8845468.00446  -6889099.50043  21773100.2114                   21773097.6884
  -8875667.10946  -6909306.62144  22329568.5314                   22329566.9924
   7580536.87147   5895635.07044  21703505.6174                   21703504.1254
   4982596.11747   3873787.24245  21975653.2194                   21975649.5904
  12263870.60246   9536058.49243  23561853.6024                   23561852.1954
  -5907278.88246  -4599874.85343  22912147.9694                   22912145.6294
 11  8 22 17 33  0.0000000  0  9G03G24G07G08G11G13G19G23G28
  11864561.08645   9219047.35542  24122141.4924                   24122141.2734
  -5731573.50046  -4458335.97342  23724572.5164                   23724573.5004
  -5438429.34047  -4235963.63346  20651834.5474                   20651831.3754
  -8889407.16046  -6923337.77743  21764739.4304                   21764736.9184
  -8907829.87146  -6934368.49644  22323447.5634                   22323446.2894
   7695951.33247   5985568.35544  21725468.9694                   21725467.0434
   5080772.16847   3950288.03145  21994335.7034                   21994332.0394
  12401888.62546   9643604.80143  23588118.4384                   23588116.3014
  -5918151.06646  -4608346.66843  22910078.6484                   22910076.3364
 11  8 22 17 33 30.0000000  0  9G03G24G07G08G11G13G19G23G28
  11999197.49245   9323958.77742  24147760.8524                   24147762.1684
  -5777995.06646  -4494508.60542  23715738.4924                   23715738.8134
  -5443152.19147  -4239643.78146  20650935.5394                   20650933.0084
  -8933266.42646  -6957513.83243  21756393.1024                   21756390.5004
  -8939661.92646  -6959172.66044  22317390.9384                   22317388.2034
   7811696.53147   6075759.34844  21747493.8134                   21747492.2544
   5179351.91047   4027103.37945  22013095.7664                   22013091.1724
  12539973.51246   9751203.25043  23614394.9534                   23614392.9184
  -5928894.68746  -4616718.30543  22908034.4064                   22908031.5004
 11  8 22 17 34  0.0000000  0  9G03G24G07G08G11G13G19G23G28
  12133917.02045   9428934.93442  24173396.9144                   24173397.6024
  -5824356.64546  -4530634.39142  23706915.4774                   23706917.9414
  -5447600.72347  -4243110.16846  20650089.1414                   20650086.1174
  -8977043.38746  -6991625.72743  21748062.2274                   21748059.9654
  -8971160.75846  -6983717.19944  22311396.2584                   22311393.9414
   7927769.68447   6166205.89144  21769582.7584                   21769580.7814
   5278332.56347   4104231.12545  22031929.9774                   22031926.4184
  12678122.55546   9858851.63743  23640684.2034                   23640682.1804
  -5939510.40646  -4624990.27043  22906013.8134                   22906010.8754
 11  8 22 17 34 30.0000000  0  9G03G24G07G08G11G13G19G23G28
  12268718.94545   9533975.30942  24199049.7974                   24199049.7934
  -5870653.28146  -4566709.64843  23698106.0474                   23698107.3094
  -5451770.81647  -4246359.59846  20649295.9064                   20649292.7854
  -9020733.87146  -7025670.28143  21739748.6174                   21739745.9534
  -9002321.64546  -7007998.38344  22305466.7894                   22305464.1844
   8044170.39147   6256907.66444  21791732.9694                   21791731.0474
   5377713.75447   4181670.97745  22050842.7114                   22050838.2774
  12816334.54346   9966549.11743  23666985.0004                   23666982.9144
  -5949997.30146  -4633161.86344  22904017.7344                   22904015.8444
 11  8 22 17 35  0.0000000  0  9G03G24G07G08G11G13G19G23G28
  12403602.54345   9639079.41042  24224716.4064                   24224717.1214
  -5916879.77746  -4602730.23043  23689309.1174                   23689310.5594
  -5455658.75847  -4249389.16846  20648555.5864                   20648552.8484
  -9064333.87546  -7059644.29743  21731451.9384                   21731449.7344
  -9033139.47346  -7032012.25844  22299603.4064                   22299599.7704
   8160897.52047   6347863.79744  21813945.5864                   21813943.4614
   5477494.64847   4259422.29345  22069830.0394                   22069825.6414
  12954608.85746  10074295.15643  23693298.3594                   23693296.6374
  -5960354.09846  -4641232.06244  22902047.6334                   22902045.3754
 11  8 22 17 35 30.0000000  0  9G03G24G07G08G11G13G19G23G28
  12538556.469 5                  24250398.758
  -5963042.32046  -4638700.94943  23680524.9924                   23680526.1094
  -5459271.71947  -4252204.47346  20647868.1884                   20647865.0944
  -9107851.25446  -7093553.93743  21723171.0234                   21723168.1804
  -9063620.81247  -7055763.93443  22293802.7894                   22293799.1994
   8277938.93047   6439064.82044  21836217.8444                   21836215.8164
   5577663.64847   4337476.02345  22088891.4774                   22088887.1484
  13092933.30146  10182080.24243  23719619.8914                   23719618.6844
  -5970590.98846  -4649208.82844  22900099.1484                   22900097.8244
 11  8 22 17 36  0.0000000  0  9G03G24G07G08G11G13G19G23G28
  12673575.477 5                  24276091.563
  -6009140.21946  -4674621.30943  23671752.1724                   23671753.9734
  -5462610.01647  -4254805.75046  20647233.0004                   20647229.5704
  -9151286.00846  -7127399.18743  21714905.1024                   21714902.2664
  -9093765.00847  -7079252.88744  22288064.2664                   22288063.9414
   8395289.95747   6530507.09844  21858548.6644                   21858546.5704
   5678215.40647   4415828.01644  22108025.8204                   22108022.0434
  13231302.95746  10289900.55543  23745951.3054                   23745950.1484
  -5980711.19146  -4657094.69144  22898173.7664                   22898171.3524
 11  8 22 17 36 30.0000000  0  9G03G24G07G08G11G13G19G23G28
  12808657.473 5                  24301796.891
  -6055170.24646  -4710488.77043  23662993.2274                   23662994.6484
  -5465671.52747  -4257191.34445  20646650.4844                   20646647.6094
  -9194635.73046  -7161178.18743  21706655.6644                   21706653.1844
  -9123569.24247  -7102476.95744  22282393.8054                   22282391.7584
   8512947.13747   6622187.94944  21880938.2814                   21880936.2424
   5779147.64847   4494476.48845  22127232.4534                   22127228.8984
  13369714.95346  10397753.85543  23772290.2894                   23772289.8014
  -5990715.34446  -4664890.10544  22896270.5944                   22896267.9024
 11  8 22 17 37  0.0000000  0  8G24G07G08G11G13G19G23G28
  -6101133.10546  -4746303.92643  23654247.3364                   23654248.5944
  -5468458.00847  -4259362.64546  20646120.4614                   20646116.8794
  -9237902.10246  -7194892.24243  21698422.2274                   21698419.3324
  -9153034.71547  -7125437.05944  22276787.7424                   22276785.0984
   8630903.83646   6714102.16444  21903384.9454                   21903382.7504
   5880453.75446   4573416.27044  22146510.6484                   22146506.6134
  13508162.53946  10505634.87143  23798636.7274                   23798635.7274
  -6000608.65246  -4672599.16844  22894387.6804                   22894385.3524
 11  8 22 17 37 30.0000000  0  8G24G07G08G11G13G19G23G28
  -6147022.41846  -4782061.72343  23645514.5634                   23645516.3484
  -5470964.32447  -4261315.62545  20645643.3134                   20645640.3324
  -9281079.64846  -7228537.09443  21690205.4304                   21690203.5984
  -9182155.14147  -7148128.28544  22271245.6174                   22271243.4024
   8749160.59047   6806250.23444  21925887.9614                   21925886.5984
   5982134.09047   4652647.68045  22165859.3834                   22165855.7734
  13646646.22746  10613544.00843  23824989.4384                   23824988.4264
  -6010388.12146  -4680219.51244  22892526.3754                   22892524.2464
 11  8 22 17 38  0.0000000  0  8G24G07G08G11G13G19G23G28
  -6192828.02046  -4817754.31643  23636797.1174                   23636799.9264
  -5473181.49647  -4263043.30546  20645221.6174                   20645217.9384
  -9324159.74246  -7262105.99243  21682007.7584                   21682005.8134
  -9210920.70747  -7170543.00844  22265771.6254                   22265769.6804
   8867721.75847   6898635.48444  21948449.4774                   21948448.6644
   6084193.52046   4732174.47745  22185280.5394                   22185277.1334
  13785170.37946  10721484.66043  23851349.4304                   23851349.0164
  -6020047.81647  -4687746.55144  22890688.3984                   22890685.8164
 11  8 22 17 38 30.0000000  0  8G24G07G08G11G13G19G23G28
  -6238553.84446  -4853384.73443  23628095.7734                   23628098.6294
  -5475114.79747  -4264549.78146  20644853.4924                   20644850.6564
  -9367146.97746  -7295602.55943  21673827.8364                   21673825.4534
  -9239335.73047  -7192684.56644  22260364.4144                   22260362.5784
   8986577.07447   6991249.94944  21971067.7584                   21971066.0204
   6186622.23846   4811989.02744  22204772.3754                   22204768.4694
  13923724.68846  10829448.80143  23877716.0394                   23877714.5864
  -6029595.92246  -4695186.60544  22888871.5474                   22888868.9924
 11  8 22 17 39  0.0000000  0  8G24G07G08G11G13G19G23G28
  -7859613.39846  -6116547.98843  23319617.9224                   23319621.0004
  -7052177.24647  -5493429.62546  20344748.2734                   20344745.5234
 -10985455.77746  -8556622.37143  21365874.2894                   21365872.0594
 -10842813.32047  -8442147.61744  21955232.7504                   21955231.3204
   7530312.59047   5856498.32844  21693949.9144                   21693947.8364
   4714005.42646   3664495.37144  21924542.3834                   21924539.4144
  12486896.52746   9709842.23442  23604295.8834                   23604295.1254
  -7614448.35546  -5930136.53944  22587283.7034                   22587281.9024
 11  8 22 17 39 30.0000000  0  8G24G07G08G11G13G19G23G28
  -7905166.07845  -6152043.52743  23310949.7194                   23310952.0634
  -7053532.26647  -5494485.50045  20344491.0704                   20344487.6094
 -11028246.74246  -8589965.97743  21357731.4844                   21357729.9964
 -10870514.66847  -8463733.07844  21949961.6254                   21949959.9884
   7649752.12947   5949568.01244  21716678.4844                   21716676.8634
   4817168.86347   3744882.41844  21944174.2424                   21944170.5434
  12625507.94146   9817850.86342  23630673.7424                   23630672.3444
  -7623771.10546  -5937401.01244  22585509.5554                   22585507.7384
 11  8 22 17 40  0.0000000  0  8G24G07G08G11G13G19G23G28
  -7950632.34046  -6187471.65243  23302298.6334                   23302299.9614
  -7054599.93447  -5495317.46945  20344287.7114                   20344284.7234
 -11070941.28146  -8623234.46944  21349607.0634                   21349605.0274
 -10897860.07447  -8485041.17644  21944758.0084                   21944755.9024
   7769474.55947   6042858.13744  21739460.6094                   21739459.2934
   4920690.83646   3825548.84845  21963874.1174                   21963870.4494
  12764139.01246   9925874.85243  23657054.1564                   23657053.3914
  -7632987.36746  -5944582.51244  22583755.9924                   22583753.2194
 11  8 22 17 40 30.0000000  0  8G24G07G08G11G13G19G23G28
  -7996015.19146  -6222834.86342  23293662.1174                   23293663.3014
  -7055384.64147  -5495928.93745  20344137.8914                   20344135.3984
 -11113543.57446  -8656431.04343  21341500.1254                   21341497.5824
 -10924852.80547  -8506074.48444  21939621.3984                   21939619.1724
   7889470.47747   6136361.38744  21762294.6804                   21762293.1254
   5024562.35246   3906487.65245  21983639.8524                   21983636.3134
  12902780.36346  10033906.84443  23683437.6334                   23683436.2154
  -7642104.31647  -5951686.60544  22582020.3054                   22582018.8754
 11  8 22 17 41  0.0000000  0  8G24G07G08G11G13G19G23G28
  -8041305.78446  -6258126.18543  23285044.2814                   23285044.6954
  -7055878.62147  -5496313.87545  20344043.9694                   20344041.3164
 -11156045.33646  -8689549.32443  21333411.6724                   21333409.5864
 -10951484.57046  -8526826.51244  21934553.0084                   21934550.7584
   8009742.78147   6230079.97344  21785182.5004                   21785180.1174
   5128786.46947   3987701.18744  22003473.0784                   22003469.3554
  13041434.83246  10141949.07442  23709822.4924                   23709821.6644
  -7651116.85247  -5958709.35244  22580305.7814                   22580303.5664
 11  8 22 17 41 30.0000000  0  9G17G24G07G08G11G13G19G23G28
  -4878816.03515                  24493148.203
  -8086498.77346  -6293341.42643  23276443.5944                   23276444.3404
  -7056077.91447  -5496469.18445  20344006.8594                   20344003.8444
 -11198442.50446  -8722586.07443  21325343.3834                   21325341.6134
 -10977749.91846  -8547293.00044  21929555.8524                   21929552.9064
   8130290.95346   6324013.53144  21808121.9144                   21808120.2624
   5233362.77747   4069189.17244  22023373.5634                   22023369.5314
  13180102.03546  10250001.21143  23736210.3054                   23736209.3094
  -7660023.98047  -5965649.93444  22578611.5004                   22578608.3634
 11  8 22 17 42  0.0000000  0  9G17G24G07G08G11G13G19G23G28
  -4958642.086 5                  24477957.078
  -8131596.13346  -6328482.14143  23267861.8524                   23267863.0044
  -7055985.52347  -5496397.20745  20344024.4924                   20344020.6764
 -11240737.98446  -8755543.59443  21317295.5634                   21317292.9534
 -11003652.10946  -8567476.52344  21924626.6644                   21924624.0234
   8251106.90647   6418155.74644  21831112.4304                   21831110.5394
   5338283.32047   4150945.37545  22043338.8834                   22043335.0634
  13318773.81346  10358056.90243  23762599.1174                   23762598.0124
  -7668831.64847  -5972513.04344  22576934.4144                   22576932.4384
 11  8 22 17 42 30.0000000  0  9G17G24G07G08G11G13G19G23G28
  -5038407.340 5                  24462779.164
  -8176602.04746  -6363551.62143  23259297.8204                   23259298.4104
  -7055606.76247  -5496102.08245  20344096.0394                   20344092.9844
 -11282937.08246  -8788426.00443  21309265.7814                   21309262.9494
 -11029195.50847  -8587380.45744  21919765.6484                   21919763.1484
   8372180.26247   6512498.54744  21854151.3834                   21854150.0164
   5443537.95747   4232961.93044  22063368.3594                   22063364.3594
  13457440.47346  10466108.59043  23788986.2664                   23788985.9804
  -7677548.19947  -5979305.14144  22575276.0234                   22575273.5084
 11  8 22 17 43  0.0000000  0  9G17G24G07G08G11G13G19G23G28
  -5118106.352 5                  24447611.242
  -8221510.25046  -6398544.91443  23250752.0634                   23250752.8674
  -7054936.73847  -5495579.99645  20344223.0474                   20344220.6374
 -11325034.45746  -8821229.17243  21301254.4614                   21301251.9104
 -11054374.27747  -8607000.27344  21914974.1644                   21914971.5824
   8493511.34447   6607042.15644  21877240.7424                   21877239.4064
   5549127.28947   4315239.27744  22083461.4774                   22083457.8954
  13596102.41446  10574156.64143  23815372.8914                   23815372.4224
  -7686171.12147  -5986024.29344  22573635.4224                   22573632.9534
 11  8 22 17 43 30.0000000  0  9G17G24G07G08G11G13G19G23G28
  -5197735.684 5                  24432458.680
  -8266316.18446  -6433458.54343  23242226.2274                   23242225.4804
  -7053972.16047  -5494828.39545  20344406.9304                   20344404.3404
 -11367026.13346  -8853949.95343  21293264.1174                   21293262.1094
 -11079184.04347  -8626332.55944  21910253.2664                   21910250.5004
   8615098.60547   6701785.39144  21900377.7344                   21900376.4384
   5655050.09846   4397776.47744  22103618.1804                   22103614.7304
  13734758.21146  10682199.83643  23841758.6334                   23841758.3444
  -7694699.85947  -5992670.04744  22572012.7274                   22572009.6954
 11  8 22 17 44  0.0000000  0  9G17G24G07G08G11G13G19G23G28
  -5277286.035 5                  24417321.055
  -8311009.80146  -6468284.63343  23233721.5474                   23233721.6094
  -7052703.92247  -5493840.17246  20344648.5084                   20344645.3754
 -11408902.88346  -8886581.18744  21285294.8754                   21285292.5004
 -11103615.32847  -8645369.91044  21905604.1174                   21905601.4414
   8736946.07847   6796731.39144  21923565.2894                   21923563.3554
   5761310.66047   4480576.86744  22123839.3594                   22123835.0634
  13873412.13345  10790241.56642  23868143.7504                   23868143.6484
  -7703128.18447  -5999237.55944  22570408.0704                   22570406.0434
 11  8 22 17 44 30.0000000  0  9G17G24G07G08G11G13G19G23G28
  -5356750.012 5                  24402198.898
  -8355582.75846  -6503016.70343  23225238.2504                   23225239.1954
  -7051124.95347  -5492609.81645  20344948.8524                   20344945.6994
 -11450657.39846  -8919117.18444  21277349.7974                   21277347.0164
 -11127660.31647  -8664106.25844  21901028.9064                   21901025.8324
   8859056.12547   6891881.98844  21946801.1414                   21946800.0434
   5867911.37546   4563642.32444  22144124.2034                   22144120.5004
  14012066.50445  10898283.66043  23894528.7894                   23894528.9654
  -7711452.09046  -6005723.69144  22568824.1484                   22568821.8324
 11  8 22 17 45  0.0000000  0  9G17G24G07G08G11G13G19G23G28
  -5436125.434 5                  24387093.203
  -8400031.61346  -6537652.10243  23216780.5164                   23216780.9024
  -7049232.84047  -5491135.46545  20345308.7034                   20345305.8284
 -11492287.74246  -8951556.39544  21269427.0474                   21269425.0234
 -11151316.10547  -8682539.32444  21896526.5704                   21896524.0864
   8981425.54346   6987234.69544  21970088.0234                   21970086.5164
   5974849.35246   4646970.57044  22164474.1254                   22164469.6914
  14150718.71545  11006324.05943  23920914.1564                   23920913.7384
  -7719672.35947  -6012129.07844  22567260.3594                   22567257.9104
 11  8 22 17 45 30.0000000  0  9G17G24G07G08G11G13G19G23G28
  -5515405.375 5                  24372007.234
  -8444348.47746  -6572184.62543  23208346.9924                   23208347.4494
  -7047020.94147  -5489411.92646  20345730.1484                   20345726.7194
 -11533786.57046  -8983893.13744  21261530.2664                   21261528.5274
 -11174575.39847  -8700663.45744  21892100.3054                   21892098.5744
   9104056.32047   7082791.06643  21993423.7734                   21993422.3204
   6082127.03946   4730563.52744  22184888.3914                   22184884.2704
  14289370.58245  11114364.18842  23947298.5864                   23947298.3484
  -7727784.77347  -6018450.43444  22565716.2344                   22565714.0274
 11  8 22 17 46  0.0000000  0  9G17G24G07G08G11G13G19G23G28
  -5594583.102 6                  24356940.219
  -8488525.75846  -6606608.36743  23199940.3444                   23199939.8984
  -7044483.19947  -5487434.48046  20346213.3754                   20346209.7814
 -11575146.50846  -9016121.65644  21253659.3674                   21253657.9804
 -11197431.17647  -8718473.14844  21887750.8524                   21887749.0594
   9226949.94546   7178552.24644  22016809.2344                   22016808.0664
   6189746.32446   4814422.66844  22205367.5554                   22205363.6954
  14428024.33646  11222405.79343  23973682.3914                   23973682.6254
  -7735785.98447  -6024685.11744  22564193.6884                   22564191.3954
 11  8 22 17 46 30.0000000  0  9G17G24G07G08G11G13G19G23G28
  -5673657.16846  -4410350.70753  24341893.4224                   24341896.4654
  -8532561.07046  -6640921.52043  23191560.2114                   23191559.2274
  -7041618.44547  -5485202.22746  20346757.9614                   20346754.9064
 -11616366.34046  -9048240.98844  21245815.5164                   21245813.4414
 -11219881.79747  -8735967.13344  21883479.2584                   21883477.0824
   9350102.91846   7274515.52744  22040244.3054                   22040243.1724
   6297703.29346   4898544.93844  22225910.1954                   22225907.5634
  14566676.37146  11330446.07443  24000067.4694                   24000067.8874
  -7743677.99647  -6030834.73044  22562691.7344                   22562689.9184
 11  8 22 17 47  0.0000000  0  9G17G24G07G08G11G13G19G23G28
  -5752621.94946  -4471881.55143  24326867.5004                   24326868.9694
  -8576447.69546  -6675118.80543  23183209.1724                   23183207.8714
  -7038421.10247  -5482710.80946  20347366.0634                   20347363.4734
 -11657440.68046  -9080246.96544  21238000.3524                   21237997.4804
 -11241921.02047  -8753140.57044  21879285.7814                   21879283.1414
   9473515.49247   7370681.06344  22063729.5704                   22063727.8524
   6405998.81646   4982931.01244  22246519.4304                   22246515.3834
  14705327.12546  11438485.30943  24026452.9844                   24026452.2114
  -7751457.37547  -6036896.57844  22561211.3674                   22561208.7154
 11  8 22 17 47 30.0000000  0  9G17G24G07G08G11G13G19G23G28
  -5831471.87146  -4533322.85943  24311862.0474                   24311864.2814
  -8620178.89846  -6709194.96942  23174886.9534                   23174886.1764
  -7034885.76647  -5479956.02746  20348039.2664                   20348036.1414
 -11698363.46947  -9112134.85244  21230211.8984                   21230209.8954
 -11263542.53147  -8769988.48444  21875170.9144                   21875168.9224
   9597188.48446   7467049.55943  22087263.3134                   22087261.6994
   6514633.79346   5067581.60244  22267192.1804                   22267187.9024
  14843977.88746  11546524.61742  24052836.7974                   24052836.8634
  -7759121.89547  -6042868.90244  22559753.5474                   22559750.5434
 11  8 22 17 48  0.0000000  0  9G17G24G07G08G11G13G19G23G28
  -5910200.24646  -4594669.47343  24296880.2734                   24296881.4844
  -8663747.00446  -6743144.06642  23166596.1724                   23166595.2384
  -7031005.84447  -5476932.72346  20348777.6414                   20348774.5664
 -11739127.89847  -9143899.33644  21222455.2734                   21222452.5434
 -11284739.19147  -8786505.37544  21871137.5784                   21871135.2814
   9721123.41446   7563622.11344  22110847.5164                   22110846.7234
   6623610.11746   5152498.16844  22287929.1724                   22287925.7234
  14982630.38746  11654565.23842  24079222.8594                   24079222.5784
  -7766667.80147  -6048748.83244  22558317.2734                   22558314.4924
 11  8 22 17 48 30.0000000  0  9G17G24G07G08G11G13G19G23G28
  -5988812.80546  -4655925.85542  24281920.8524                   24281921.7464
  -8707156.86746  -6776969.79343  23158335.4694                   23158335.7774
  -7026787.59847  -5473645.79346  20349580.0634                   20349577.2854
 -11779739.80147  -9175544.98444  21214726.8914                   21214724.0274
 -11305516.94947  -8802695.83244  21867183.3754                   21867181.3284
   9845309.15647   7660390.14144  22134479.8524                   22134478.1724
   6732916.72746   5237672.11744  22308729.3674                   22308725.7704
  15121273.67246  11762598.65242  24105606.1484                   24105606.6644
  -7774104.14547  -6054543.35544  22556901.7734                   22556899.2114
 11  8 22 17 49  0.0000000  0  9G17G24G07G08G11G13G19G23G28
  -6067310.23445  -4717092.51642  24266983.7114                   24266984.0434
  -8750408.12946  -6810671.98442  23150105.5944                   23150105.1994
  -7022232.03147  -5470096.02746  20350447.2504                   20350443.9064
 -11820199.98846  -9207072.40644  21207027.4534                   21207026.0354
 -11325875.66047  -8818559.77044  21863309.0314                   21863307.2504
   9969740.04747   7757349.14844  22158158.2814                   22158156.8634
   6842548.29746   5323099.25844  22329591.8054                   22329587.9024
  15259902.51645  11870620.86342  24131986.2504                   24131987.3054
  -7781434.44947  -6060255.27044  22555506.8984                   22555504.5044
 11  8 22 17 49 30.0000000  0  9G17G24G07G08G11G13G19G23G28
  -6145687.92645  -4778165.89142  24252068.2974                   24252069.5984
  -8793495.34046  -6844246.34043  23141905.1884                   23141905.6484
  -7017334.56647  -5466279.83646  20351379.2424                   20351376.2854
 -11860503.35546  -9238477.60944  21199357.5784                   21199356.2274
 -11345810.52047  -8834093.43044  21859516.0474                   21859514.3404
  10094415.54746   7854498.80144  22181883.3834                   22181881.8014
   6952504.59846   5408779.45344  22350515.3674                   22350512.4384
  15398516.39545  11978631.46542  24158362.1954                   24158364.4804
  -7788657.37147  -6065883.50444  22554132.3204                   22554130.1804
 11  8 22 17 50  0.0000000  0  9G17G24G07G08G11G13G19G23G28
  -6223941.38345  -4839142.49642  24237174.6804                   24237177.6254
  -8836412.68446  -6877688.29743  23133738.6884                   23133739.1764
  -7012090.77747  -5462193.78946  20352377.1484                   20352373.9414
 -11900644.71946  -9269756.59044  21191719.0164                   21191717.4144
 -11365316.45747  -8849292.85944  21855803.4774                   21855802.0234
  10219335.10547   7951838.61744  22205654.8594                   22205654.0124
   7062785.09446   5494712.25444  22371501.8914                   22371497.7384
  15537115.60215                  24184736.055
  -7795771.09847  -6071426.64844  22552779.1334                   22552776.6684
 11  8 22 17 50 30.0000000  0  9G17G24G07G08G11G13G19G23G28
  -6302072.69545  -4900023.87543  24222307.5474                   24222309.5274
  -8879161.39546  -6910998.90643  23125603.7034                   23125604.2664
  -7006503.59047  -5457840.14546  20353440.4454                   20353437.0204
 -11940626.68047  -9300911.37144  21184110.8594                   21184108.7774
 -11384395.65647  -8864159.75444  21852173.5234                   21852171.4454
  10344491.41846   8049362.92644  22229471.2734                   22229470.6374
   7173382.74646   5580892.19544  22392547.9774                   22392543.7814
  15675692.563 5                  24211107.875
  -7802780.75047  -6076888.69944  22551444.5784                   22551442.7934
 11  8 22 17 51  0.0000000  0  9G17G24G07G08G11G13G19G23G28
  -6380082.99645  -4960810.96142  24207463.7344                   24207464.6454
  -8921741.02346  -6944177.74242  23117501.1094                   23117500.9494
  -7000573.68447  -5453219.46146  20354568.5634                   20354565.8444
 -11980449.50047  -9331942.12544  21176532.1804                   21176530.9884
 -11403048.33247  -8878694.30144  21848623.9454                   21848621.9144
  10469878.31646   8147066.91844  22253331.4774                   22253331.0394
   7284291.96146   5667314.91044  22413652.7894                   22413649.5944
  15814241.836 5                  24237474.875
  -7809690.28946  -6082272.74244  22550130.0164                   22550127.8794
 11  8 22 17 51 30.0000000  0  9G17G24G07G08G11G13G19G23G28
  -6457969.80945  -5021501.81643  24192641.7424                   24192643.7194
  -8964148.88346  -6977222.73843  23109430.7974                   23109431.5124
  -6994299.34847  -5448330.37546  20355762.9224                   20355759.8984
 -12020110.94146  -9362847.12544  21168985.5164                   21168983.5004
 -11421272.22747  -8892894.72744  21845155.1334                   21845153.5394
  10595492.86746   8244948.28543  22277235.6804                   22277234.5554
   7395509.69146   5753978.03944  22434817.1884                   22434812.9064
  15952760.453 6                  24263833.977
  -7816500.85946  -6087579.66044  22548834.4384                   22548831.9344
 11  8 22 17 52  0.0000000  0  9G17G24G07G08G11G13G19G23G28
  -6535729.23046  -5082093.39843  24177845.5004                   24177845.4964
  -9006379.44146  -7010129.53943  23101394.7974                   23101395.6094
  -6987676.64147  -5443169.83246  20357023.0004                   20357019.9224
 -12059606.69546  -9393623.04344  21161469.6724                   21161467.9494
 -11439062.74647  -8906757.48044  21841770.4614                   21841768.0944
  10721334.28946   8343006.44144  22301182.7584                   22301181.0864
   7507035.43046   5840881.16444  22456039.5084                   22456036.2504
  16091248.29346  12518421.91853  24290187.3284                   24290186.9774
  -7823210.92646  -6092808.26244  22547556.8364                   22547555.4574
 11  8 22 17 52 30.0000000  0  9G17G24G07G08G11G13G19G23G28
  -6613364.22746  -5142588.05942  24163071.0944                   24163071.8554
  -9048434.87946  -7042899.97343  23093392.8524                   23093392.2934
  -6980708.77347  -5437740.34446  20358348.8054                   20358345.9144
 -12098939.23846  -9424271.76644  21153985.0554                   21153982.5904
 -11456422.71147  -8920284.71144  21838466.6254                   21838464.7074
  10847394.37947   8441234.96944  22325171.2114                   22325169.3714
   7618861.10246   5928018.00844  22477319.1644                   22477315.6684
  16229697.21546  12626303.85243  24316534.0784                   24316533.7504
  -7829826.65246  -6097963.34044  22546298.1094                   22546295.6414
 11  8 22 17 53  0.0000000  0  9G17G24G07G08G11G13G19G23G28
  -6690871.91846  -5202983.48443  24148321.6254                   24148322.5744
  -9090311.14546  -7075530.78943  23085423.1724                   23085423.7034
  -6973393.15647  -5432039.86746  20359741.1334                   20359738.1414
 -12138105.69147  -9454791.07844  21146532.4224                   21146529.1214
 -11473348.85547  -8933473.90644  21835245.8984                   21835243.3594
  10973670.77346   8539632.05144  22349200.6564                   22349199.7074
   7730984.72746   6015387.02344  22498655.8204                   22498652.1254
  16368105.55946  12734154.18043  24342872.1954                   24342872.9064
  -7836348.23846  -6103045.08244  22545057.5394                   22545054.9024
 11  8 22 17 53 30.0000000  0  9G17G24G07G08G11G13G19G23G28
  -6768250.23446  -5263278.13343  24133597.3984                   24133597.6954
  -9132005.39846  -7108019.74243  23077488.9534                   23077489.6054
  -6965728.63747  -5426067.52346  20361199.8284                   20361196.1804
 -12177103.96146  -9485179.33644  21139111.4774                   21139107.8954
 -11489839.03547  -8946323.37944  21832107.8054                   21832105.5164
  11100160.37946   8638195.24644  22373271.4694                   22373269.6804
   7843403.58246   6102986.08644  22520047.9384                   22520044.6174
  16506470.65646  12841970.78143  24369202.4924                   24369202.9654
  -7842776.80147  -6108054.34044  22543834.0314                   22543831.7584
 11  8 22 17 54  0.0000000  0  9G17G24G07G08G11G13G19G23G28
  -6845505.38746  -5323476.82043  24118895.9454                   24118896.5204
  -9173522.57046  -7140370.74643  23069588.6954                   23069588.7774
  -6957721.30547  -5419828.05546  20362723.1024                   20362720.3484
 -12215939.74246  -9515440.99244  21131720.8834                   21131718.2734
 -11505899.09447  -8958837.69144  21829051.8594                   21829049.2624
  11226851.85246   8736915.76243  22397379.2194                   22397378.4534
   7956106.57846   6190806.56344  22541494.9304                   22541491.7194
  16644781.39146  12949745.08243  24395522.2194                   24395523.0124
  -7849121.22747  -6112998.00844  22542626.3834                   22542624.8524
 11  8 22 17 54 30.0000000  0  9G17G24G07G08G11G13G19G23G28
  -6922631.84046  -5383575.20743  24104218.6094                   24104220.5314
  -9214856.11346  -7172578.64843  23061723.2814                   23061724.2274
  -6949365.62547  -5413317.13746  20364313.3754                   20364310.5004
 -12254607.33246  -9545571.56244  21124362.6334                   21124360.1764
 -11521523.27347  -8971012.36344  21826078.5554                   21826076.0394
  11353745.84046   8835794.09844  22421526.8594                   22421525.1134
   8069094.32446   6278848.91844  22562995.7114                   22562992.8404
  16783038.55945  13057477.65642  24421831.1954                   24421832.5864
  -7855378.96547  -6117874.16844  22541435.8524                   22541433.1564
 11  8 22 17 55  0.0000000  0  9G17G24G07G08G11G13G19G23G28
  -6999629.81345  -5443573.49643  24089566.1804                   24089568.3204
  -9256005.10246  -7204642.72743  23053892.4144                   23053893.0434
  -6940661.84847  -5406534.98446  20365969.6254                   20365966.8014
 -12293106.06646  -9575570.57444  21117036.4844                   21117034.4494
 -11536711.08647  -8982847.00444  21823188.2814                   21823185.9734
  11480837.09446   8934826.14544  22445711.2814                   22445710.2274
   8182361.97746   6367109.37144  22584550.4304                   22584546.5004
  16921237.32445  13165164.60242  24448129.6644                   24448131.2734
  -7861553.02347  -6122685.09444  22540261.3204                   22540258.5434
 11  8 22 17 55 30.0000000  0  9G17G24G07G08G11G13G19G23G28
  -7076498.74645  -5503471.19943  24074938.8204                   24074939.8094
  -9296968.38746  -7236562.12543  23046097.7504                   23046098.1334
  -6931610.16047  -5399481.73446  20367692.2894                   20367689.1054
 -12331435.52046  -9605437.69144  21109742.9614                   21109740.3324
 -11551462.50047  -8994341.59044  21820381.8754                   21820378.7034
  11608120.52746   9034007.93443  22469932.9454                   22469932.4304
   8295904.94146   6455584.37944  22606157.8054                   22606153.7664
  17059373.43045  13272802.83242  24474416.9304                   24474417.9224
  -7867646.15647  -6127432.97344  22539101.1564                   22539099.2504
 11  8 22 17 56  0.0000000  0  8G17G24G07G08G11G13G19G28
  -7153236.37145  -5563266.62143  24060335.3134                   24060336.8524
  -9337742.27046  -7268333.94943  23038338.5864                   23038339.0434
  -6922208.39847  -5392155.70346  20369481.1884                   20369478.0044
 -12369593.20347  -9635170.92644  21102481.4694                   21102479.1294
 -11565774.59847  -9005493.86344  21817658.2504                   21817655.0164
  11735593.33246   9133337.31343  22494190.0004                   22494189.1804
   8409720.61746   6544271.87944  22627814.5474                   22627811.3164
  -7873659.10547  -6132118.36744  22537956.8054                   22537954.9454
 11  8 22 17 56 30.0000000  0  8G17G24G07G08G11G13G19G28
  -7229837.14546  -5622955.42643  24045759.2114                   24045759.3244
  -9378320.07446  -7299952.98843  23030616.9384                   23030616.3674
  -6912451.50447  -5384552.93446  20371337.7504                   20371335.0784
 -12407573.01647  -9664765.59044  21095254.1334                   21095251.8164
 -11579641.53547  -9016299.24244  21815019.0394                   21815016.0554
  11863256.64846   9232815.10543  22518483.9064                   22518482.7704
   8523809.87146   6633172.54344  22649526.2894                   22649522.5514
  -7879588.91847  -6136738.96144  22536828.6484                   22536826.6214
 11  8 22 17 57  0.0000000  0  8G17G24G07G08G11G13G19G28
  -7306296.47346  -5682534.03943  24031209.7504                   24031209.8594
  -9418696.43046  -7331415.05543  23022932.7664                   23022932.5394
  -6902335.03147  -5376669.98446  20373262.8364                   20373260.2034
 -12445370.30547  -9694218.01244  21088062.1564                   21088059.7154
 -11593058.91447  -9026754.31644  21812465.8834                   21812463.2934
  11991109.40646   9332440.53143  22542813.5704                   22542812.0594
   8638172.27046   6722286.03544  22671288.2114                   22671285.0234
  -7885434.07047  -6141293.60544  22535716.2344                   22535714.1454
 11  8 22 17 57 30.0000000  0  8G17G24G07G08G11G13G19G28
  -7382616.87546  -5742004.32443  24016686.6094                   24016686.4024
  -9458872.40246  -7362720.95743  23015288.1804                   23015287.7154
  -6891861.91047  -5368509.12546  20375255.5944                   20375252.8874
 -12482987.09046  -9723529.77744  21080903.3984                   21080901.3164
 -11606028.92247  -9036860.77344  21809997.7114                   21809994.8404
  12119144.21546   9432207.78543  22567178.0314                   22567176.7854
   8752800.75846   6811606.86744  22693102.1954                   22693098.0904
  -7891200.09046  -6145786.58644  22534619.6724                   22534616.6334
 11  8 22 17 58  0.0000000  0  8G17G24G07G08G11G13G19G28
  -7458793.37145  -5801362.47343  24002189.4064                   24002191.2034
  -9498841.94946  -7393866.00843  23007681.6884                   23007681.9104
  -6881027.10247  -5360066.43746  20377317.7034                   20377314.7114
 -12520417.71947  -9752696.52044  21073780.2194                   21073777.8834
 -11618546.31247  -9046614.57444  21807615.7194                   21807613.1094
  12247361.25046   9532117.03143  22591577.3444                   22591575.6054
   8867695.32046   6901135.03944  22714965.0394                   22714962.0394
  -7896884.49247  -6150215.98444  22533537.6954                   22533535.0354
 11  8 22 17 58 30.0000000  0  8G17G24G07G08G11G13G19G28
  -7534833.60946  -5860614.48843  23987719.4694                   23987721.3404
  -9538611.91846  -7424855.55943  23000114.1094                   23000113.4574
  -6869838.92247  -5351348.38346  20379447.0314                   20379443.7544
 -12557669.56647  -9781723.93044  21066691.3284                   21066688.9804
 -11630618.68447  -9056021.58644  21805317.9454                   21805315.4264
  12375747.33246   9632158.02743  22616007.0634                   22616006.2664
   8982843.12146   6990860.53544  22736877.2894                   22736873.1604
  -7902498.25847  -6154590.32044  22532469.3204                   22532466.4654
 11  8 22 17 59  0.0000000  0  8G17G24G07G08G11G13G19G28
  -7610737.19946  -5919760.00443  23973275.6644                   23973276.8404
  -9578180.81646  -7455688.42643  22992584.0704                   22992584.0434
  -6858297.28947  -5342354.91446  20381643.5394                   20381639.9614
 -12594742.07046  -9810611.60244  21059636.9304                   21059634.1604
 -11642245.51647  -9065081.42644  21803105.9614                   21803103.0044
  12504297.89146   9732327.15643  22640470.1804                   22640469.7584
   9098239.95346   7080780.10244  22758835.9064                   22758832.3754
  -7908044.21146  -6158911.82444  22531413.4064                   22531410.8554
 11  8 22 17 59 30.0000000  0  8G17G24G07G08G11G13G19G28
  -7686508.28146  -5978802.34043  23958857.9924                   23958857.5904
  -9617551.63346  -7486366.94543  22985091.8754                   22985092.3554
  -6846406.57047  -5333089.43045  20383905.5474                   20383902.9574
 -12631638.94147  -9839362.39844  21052615.6334                   21052613.3674
 -11653430.86747  -9073797.26244  21800977.9454                   21800974.7384
  12633004.04746   9832617.54743  22664961.6804                   22664961.7234
   9213877.16046   7170886.96144  22780840.8204                   22780837.6604
  -7913529.05546  -6163185.69944  22530370.0704                   22530367.2384
 11  8 22 18  0  0.0000000  0  8G17G24G07G08G11G13G19G28
  -7762147.96546  -6037742.30543  23944463.6254                   23944463.5274
  -9656724.20346  -7516890.97743  22977637.6334                   22977637.2814
  -6834167.84847  -5323552.78146  20386235.0554                   20386232.1054
 -12668360.89547  -9867976.91044  21045627.5704                   21045625.4064
 -11664175.72747  -9082169.85544  21798932.6174                   21798929.9884
  12761859.05946   9933023.93043  22689482.6174                   22689482.6134
   9329748.41446   7261176.19544  22802890.2734                   22802887.7814
  -7918956.73046  -6167415.04743  22529337.0084                   22529334.0124
 11  8 22 18  0 30.0000000  0  8G17G24G07G08G11G13G19G28
  -7837650.15646  -6096575.05543  23930094.8594                   23930095.9024
  -9695691.83246  -7547255.30943  22970222.7584                   22970223.2624
  -6821575.88347  -5313740.86345  20388630.8914                   20388628.1724
 -12704901.36747  -9896450.01244  21038674.8754                   21038671.6484
 -11674473.97747  -9090194.43444  21796972.6804                   21796970.4064
  12890863.95746  10033547.11743  22714031.7584                   22714030.7234
   9445854.72546   7351648.57944  22824985.4774                   22824982.2234
  -7924324.23446  -6171597.48043  22528315.4144                   22528312.5234
 11  8 22 18  1  0.0000000  0  8G17G24G07G08G11G13G19G28
  -7913015.73846  -6155301.36343  23915754.2974                   23915754.1454
  -9734454.07046  -7577459.61743  22962846.0784                   22962846.6604
  -6808631.77047  -5303654.55945  20391093.8914                   20391091.1214
 -12741260.84447  -9924782.05544  21031755.7974                   21031753.3444
 -11684326.14847  -9097871.44144  21795098.5314                   21795095.4964
  13020013.23046  10134182.82443  22738607.9384                   22738607.2344
   9562191.25046   7442300.36344  22847123.8754                   22847120.1524
  -7929635.19946  -6175735.89544  22527305.0784                   22527302.8404
 11  8 22 18  1 30.0000000  0  9G17G24G07G08G26G11G13G19G28
  -7988234.91846  -6213913.61742  23901440.2114                   23901440.2664
  -9773000.11746  -7607495.46143  22955510.8054                   22955511.5514
  -6795325.62547  -5293286.14845  20393626.3674                   20393623.3914
 -12777428.71947  -9952964.82044  21024873.2504                   21024871.2114
  -4856123.85515                  24193966.969
 -11693722.71547  -9105193.41844  21793309.8134                   21793307.4064
  13149311.41446  10234934.50443  22763212.1484                   22763212.2384
   9678762.36746   7533134.93844  22869306.7274                   22869303.1604
  -7934882.62546  -6179824.76643  22526306.9064                   22526303.6724
 11  8 22 18  2  0.0000000  0  9G17G24G07G08G26G11G13G19G28
  -8063306.66846  -6272410.99243  23887154.7424                   23887154.3674
  -9811327.56846  -7637360.96443  22948217.7664                   22948218.3364
  -6781656.99647  -5282635.28146  20396227.6254                   20396224.6374
 -12813403.65247  -9980997.23444  21018027.1254                   21018025.4654
  -4916999.750 5                  24182383.211
 -11702662.16047  -9112159.21144  21791608.4064                   21791606.3984
  13278754.73046  10335799.32443  22787845.0634                   22787844.1374
   9795564.46546   7624149.51644  22891533.5084                   22891529.7504
  -7940068.34846  -6183865.59844  22525319.7974                   22525317.0744
 11  8 22 18  2 30.0000000  0  9G17G24G07G08G26G11G13G19G28
  -8138227.43446  -6330790.76243  23872897.6644                   23872897.6604
  -9849432.01646  -7667052.71143  22940967.2584                   22940967.1374
  -6767622.78147  -5271699.53145  20398898.5554                   20398895.2464
 -12849181.81247 -10008876.32045  21011218.1254                   21011216.7734
  -4977507.023 5                  24170868.586
 -11711141.35947  -9118766.37144  21789995.4844                   21789992.9844
  13408341.37946  10436775.79743  22812504.9224                   22812504.3014
   9912596.27346   7715343.08244  22913803.6564                   22913800.0634
  -7945192.14846  -6187858.15244  22524344.6094                   22524342.4224
 11  8 22 18  3  0.0000000  0  9G17G24G07G08G26G11G13G19G28
  -8212999.35246  -6389054.51243  23858668.9144                   23858669.4924
  -9887315.00446  -7696571.89843  22933757.8914                   22933758.6884
  -6753225.52347  -5260480.90246  20401637.7664                   20401634.9184
 -12884765.05147 -10036603.51645  21004447.5394                   21004444.8834
                                  24159424.883
 -11719162.35547  -9125016.50444  21788468.6804                   21788466.3634
  13538063.78946  10537858.08643  22837189.6254                   22837189.0784
  10029850.94546   7806710.29744  22936116.5474                   22936113.1564
  -7950258.77046  -6191806.17244  22523380.7114                   22523378.3954
 11  8 22 18  3 30.0000000  0  9G17G24G07G08G26G11G13G19G28
  -8287622.14146  -6447202.00843  23844468.0784                   23844468.9844
  -9924974.54346  -7725916.97743  22926591.1414                   22926591.4844
  -6738464.89847  -5248979.12545  20404446.3524                   20404443.7704
 -12920152.00047 -10064177.76244  20997713.1644                   20997711.0944
  -5097419.32014                  24148050.000
 -11726724.78147  -9130909.29744  21787030.0784                   21787027.5084
  13667918.03546  10639043.10943  22861901.2274                   22861899.9184
  10147323.89846   7898247.59844  22958471.1804                   22958466.8014
  -7955270.65246  -6195711.51243  22522426.6024                   22522424.5744
 11  8 22 18  4  0.0000000  0  9G17G24G07G08G26G11G13G19G28
  -8362092.32846  -6505230.60243  23830297.4614                   23830297.1524
  -9962406.09846  -7755084.38743  22919468.1884                   22919468.6564
  -6723337.88747  -5237191.86745  20407325.0394                   20407322.1054
 -12955338.88747 -10091596.11744  20991017.5944                   20991015.7854
                                  24136744.320
 -11733824.97347  -9136441.92644  21785678.6804                   21785676.0864
  13797902.16046  10740329.32443  22886635.3674                   22886635.3094
  10265014.05946   7989954.16444  22980866.7974                   22980863.2814
  -7960226.95746  -6199573.57044  22521483.3674                   22521480.7934
 11  8 22 18  4 30.0000000  0  8G17G24G07G08G11G13G19G28
  -8436405.13746  -6563136.58643  23816156.0004                   23816156.8364
  -9999604.09446  -7784069.80543  22912389.6024                   22912390.3404
  -6707840.35547  -5225115.87546  20410273.9614                   20410271.6054
 -12990320.69947 -10118854.68445  20984360.9614                   20984358.3054
 -11740458.06247  -9141610.57044  21784416.2424                   21784413.3714
  13928015.94146  10841716.56643  22911396.0704                   22911394.7384
  10382921.36746   8081829.93844  23003303.1254                   23003300.0784
  -7965126.00046  -6203391.00844  22520551.1094                   22520548.6374
 11  8 22 18  5  0.0000000  0  8G17G24G07G08G11G13G19G28
  -8510558.02746  -6620917.96943  23802044.3984                   23802045.4964
 -10036564.67646  -7812870.23443  22905355.6254                   22905356.6884
  -6691969.61747  -5212749.08646  20413294.3284                   20413291.9884
 -13025093.86347 -10145950.65645  20977743.8834                   20977741.2894
 -11746621.68047  -9146413.41044  21783243.5474                   21783240.7814
  14058257.27346  10943203.19943  22936180.8444                   22936179.4494
  10501043.46946   8173873.08243  23025782.0474                   23025778.7194
  -7969967.84846  -6207163.87144  22519630.0314                   22519627.6214
 11  8 22 18  5 30.0000000  0  8G17G24G07G08G11G13G19G28
  -8584553.71546  -6678576.86343  23787962.7814                   23787965.0664
 -10073289.66446  -7841487.09443  22898367.8914                   22898368.3714
  -6675729.26647  -5200094.28945  20416384.9144                   20416382.1604
 -13059661.33247 -10172886.37145  20971165.9774                   20971163.3054
 -11752319.00447  -9150852.87544  21782159.5234                   21782156.7624
  14188618.03946  11044782.89543  22960987.2814                   22960986.5704
  10619373.22746   8266078.03143  23048299.1254                   23048295.4024
  -7974758.31646  -6210896.70344  22518718.5084                   22518715.6374
 11  8 22 18  6  0.0000000  0  8G17G24G07G08G11G13G19G28
  -8658389.01246  -6736110.77743  23773914.0394                   23773914.4104
 -10109774.39846  -7869916.73443  22891425.2664                   22891425.5164
  -6659116.16047  -5187149.03145  20419546.0314                   20419543.4384
 -13094018.62547 -10199658.29745  20964628.6254                   20964625.4884
 -11757546.50047  -9154926.26244  21781164.8524                   21781162.3134
  14319096.73846  11146454.48443  22985816.3984                   22985815.5744
  10737908.87546   8358443.41444  23070856.4064                   23070852.2154
  -7979496.96546  -6214589.15244  22517816.5944                   22517814.0274
 11  8 22 18  6 30.0000000  0  8G17G24G07G08G11G13G19G28
  -8732064.83246  -6793520.42243  23759893.4694                   23759894.0434
 -10146018.94946  -7898159.19943  22884527.6884                   22884528.5124
  -6642131.62947  -5173914.34845  20422777.9384                   20422775.4884
 -13128166.37547 -10226266.93745  20958130.0234                   20958127.4304
 -11762304.94547  -9158634.14144  21780259.8134                   21780256.7344
  14449687.39146  11248213.34843  23010667.3134                   23010666.1884
  10856644.68046   8450964.75244  23093450.3914                   23093447.4104
  -7984187.40246  -6218244.03944  22516924.8284                   22516921.8554
 11  8 22 18  7  0.0000000  0  8G17G24G07G08G11G13G19G28
  -8805573.81246  -6850800.06643  23745905.1884                   23745905.8914
 -10182014.72746  -7926207.80543  22877678.0314                   22877678.3284
  -6624768.83647  -5160384.92646  20426082.3134                   20426078.8164
 -13162097.09447 -10252706.46145  20951673.0234                   20951671.0234
 -11766587.43047  -9161971.14544  21779443.8674                   21779441.6334
  14580392.25046  11350061.15243  23035539.3524                   23035538.8054
  10975583.43846   8543644.23044  23116083.4534                   23116080.2664
  -7988825.10246  -6221857.82444  22516042.1414                   22516039.5824
 11  8 22 18  7 30.0000000  0  8G17G24G07G08G11G13G19G28
  -8878912.30146  -6907946.89143  23731949.4144                   23731949.5864
 -10217757.18746  -7954059.03943  22870876.2814                   22870876.4534
  -6607024.43447  -5146558.13746  20429458.9614                   20429456.0234
 -13195805.97347 -10278973.10945  20945258.0314                   20945256.3874
 -11770390.35547  -9164934.46144  21778720.9694                   21778717.9924
  14711209.93446  11451996.86743  23060433.1954                   23060432.8014
  11094724.03946   8636481.01643  23138756.5554                   23138751.7734
  -7993409.10546  -6225429.77044  22515169.3754                   22515167.2274
 11  8 22 18  8  0.0000000  0  8G17G24G07G08G11G13G19G28
  -8952083.99246  -6964963.70343  23718025.6644                   23718025.6524
 -10253248.81646  -7981714.80543  22864122.9064                   22864122.2704
  -6588902.12547  -5132436.88745  20432907.7974                   20432904.7734
 -13229296.11747 -10305069.33245  20938885.2974                   20938883.6174
 -11773717.52047  -9167527.06244  21778087.0314                   21778085.1804
  14842132.01646  11554013.92643  23085347.6174                   23085346.0824
  11214058.25446   8729468.65244  23161463.3834                   23161461.1254
  -7997945.86746  -6228964.89844  22514305.8134                   22514303.6294
 11  8 22 18  8 30.0000000  0  9G17G24G07G08G26G11G13G19G28
  -9025083.08246  -7021846.03543  23704134.1024                   23704134.1374
 -10288482.76646  -8009169.78943  22857417.4534                   22857416.9574
  -6570396.95347  -5118017.29346  20436429.2424                   20436426.0234
 -13262561.37147 -10330990.30145  20932555.0004                   20932553.1724
  -4785623.63315                  24038300.633
 -11776563.08247  -9169744.39844  21777546.1484                   21777543.4104
  14973159.35946  11656113.00043  23110281.0864                   23110280.2934
  11333587.21146   8822608.05144  23184207.7114                   23184206.5704
  -8002432.30946  -6232460.80944  22513452.1484                   22513449.9384
 11  8 22 18  9  0.0000000  0  9G17G24G07G08G26G11G13G19G28
  -9097906.80146  -7078591.66843  23690276.0634                   23690277.2034
 -10323455.05946  -8036420.87943  22850763.2664                   22850761.5124
  -6551506.25847  -5103297.29346  20440023.8134                   20440021.0124
 -13295598.67647 -10356733.66445  20926267.9304                   20926266.2664
  -4841137.168 5                  24027736.789
 -11778924.54747  -9171584.50044  21777096.8834                   21777094.0664
  15104289.38346  11758292.12143  23135234.1174                   23135233.4804
  11453308.62946   8915897.39844  23206991.1334                   23206988.3914
  -8006868.55946  -6235917.62144  22512607.6414                   22512605.7934
 11  8 22 18  9 30.0000000  0  9G17G24G07G08G26G11G13G19G28
  -9170554.07046  -7135199.84043  23676451.3754                   23676451.4614
 -10358163.66446  -8063466.47743  22844157.5704                   22844157.4104
  -6532229.51247  -5088276.47745  20443691.3914                   20443689.0164
 -13328405.68447 -10382297.57045  20920025.3834                   20920023.2424
  -4896246.535 5                  24017249.961
 -11780801.16847  -9173046.79744  21776738.9614                   21776736.8204
  15235518.43046  11860548.37943  23160206.5004                   23160205.7624
  11573218.83246   9009333.85243  23229810.0394                   23229807.1484
  -8011256.29347  -6239336.61744  22511773.5944                   22511771.1374
 11  8 22 18 10  0.0000000  0  9G17G24G07G08G26G11G13G19G28
  -9243022.68746  -7191668.82443  23662660.9614                   23662660.4654
 -10392605.18046  -8090303.96943  22837604.0084                   22837603.8134
  -6512564.95347  -5072953.46946  20447433.8674                   20447431.0594
 -13360979.40647 -10407679.69145  20913826.9774                   20913824.7304
  -4950948.730 5                  24006840.586
 -11782190.66447  -9174129.51644  21776474.7894                   21776472.3164
  15366844.17646  11962879.96543  23185196.5314                   23185195.9064
  11693316.20346   9102916.14844  23252663.2974                   23252660.8484
  -8015595.91447  -6242718.12944  22510946.9614                   22510944.5204
 11  8 22 18 10 30.0000000  0  9G17G24G07G08G26G11G13G19G28
  -9315307.81646  -7247994.79343  23648906.1644                   23648905.1454
 -10426773.79346  -8116928.78943  22831102.0704                   22831101.2854
  -6492508.01247  -5057324.71146  20451250.7424                   20451247.5474
 -13393315.00847 -10432876.27045  20907673.8284                   20907671.3874
  -5005238.398 5                  23996508.594
 -11783088.41447  -9174829.05944  21776304.3054                   21776302.3594
  15498265.99246  12065286.42643  23210205.3914                   23210205.0124
  11813600.30946   9196643.96143  23275553.5394                   23275550.3164
  -8019885.21946  -6246060.44144  22510130.7814                   22510128.4534
 11  8 22 18 11  0.0000000  0  9G17G24G07G08G26G11G13G19G28
  -9387408.75746  -7304177.22643  23635184.3204                   23635185.6454
 -10460667.48046  -8143339.41443  22824652.4694                   22824652.1484
  -6472058.26647  -5041389.86346  20455142.1174                   20455139.5434
 -13425410.56647 -10457885.79745  20901566.1094                   20901563.4184
  -5059113.820 5                  23986256.297
 -11783493.90647  -9175145.00444  21776226.4844                   21776224.5434
  15629780.10546  12167764.85243  23235232.4774                   23235231.3204
  11934067.52046   9290514.45344  23298477.2664                   23298474.2774
  -8024126.40247  -6249365.24644  22509324.1094                   22509321.3754
 11  8 22 18 11 30.0000000  0  9G17G24G07G08G26G11G13G19G28
  -9459319.30946  -7360211.35243  23621501.2424                   23621501.3014
 -10494279.68746  -8169530.69544  22818255.7664                   22818255.4574
  -6451210.18047  -5025144.62546  20459109.6254                   20459107.0044
 -13457259.79347 -10482703.37945  20895505.3054                   20895503.3364
  -5112568.633 5                  23976084.039
 -11783401.44947  -9175072.95344  21776245.0004                   21776241.4534
  15761387.63746  12270316.01643  23260275.8364                   23260276.6024
  12054719.14546   9384528.66443  23321436.3674                   23321432.8204
  -8028316.02347  -6252629.87145  22508527.0164                   22508523.9384
 11  8 22 18 12  0.0000000  0  9G17G24G07G08G26G11G13G19G28
 -11106468.42246  -8643704.12143  23308058.8914                   23308058.8874
 -12103036.55546  -9423107.41043  22512119.1884                   22512119.3984
  -8005390.22747  -6236194.03546  20163359.2274                   20163356.0514
 -15064289.57447 -11734934.36745  20589697.6094                   20589695.8674
                                  23666198.969
 -13358237.74247 -10402218.08244  21476563.4534                   21476560.6954
  14317661.51246  11145334.48443  22985543.1884                   22985544.0704
  10600127.88346   8251080.85943  23044637.1484                   23044633.9304
  -9607883.27347  -7483461.49245  22207944.6334                   22207942.3204
 11  8 22 18 12 30.0000000  0  9G17G24G07G08G26G11G13G19G28
 -11178006.58646  -8699448.07843  23294445.5234                   23294445.8714
 -12136089.53946  -9448862.92643  22505829.2274                   22505829.2384
  -7983755.04747  -6219335.46946  20167475.6884                   20167472.8244
 -15095652.02047 -11759372.63745  20583729.5084                   20583727.8244
  -6793649.88715                  23656185.938
 -13357158.00447 -10401376.70745  21476768.7344                   21476765.9734
  14449433.14146  11248013.50043  23010620.0784                   23010619.4654
  10721126.42246   8345365.35543  23067662.7504                   23067659.0314
  -9611985.86347  -7486658.30945  22207164.2344                   22207161.2854
 11  8 22 18 13  0.0000000  0  9G17G24G07G08G26G11G13G19G28
 -11249356.25446  -8755045.12944  23280868.2194                   23280868.4224
 -12168859.02746  -9474397.54343  22499593.3364                   22499593.9494
  -7961724.59847  -6202168.89546  20171668.1724                   20171665.2034
 -15126767.98847 -11783618.84045  20577808.4924                   20577806.3954
  -6845848.52015                  23646253.055
 -13355582.43447 -10400148.94544  21477068.7584                   21477066.0514
  14581281.54346  11350752.35943  23035709.9534                   23035709.5164
  10842293.80146   8439781.45343  23090720.3284                   23090716.9494
  -9616046.87547  -7489822.72745  22206391.3054                   22206388.9144
 11  8 22 18 13 30.0000000  0  9G17G24G07G08G26G11G13G19G28
 -11320508.95346  -8810488.69943  23267327.9144                   23267328.6604
 -12201335.62146  -9499703.91443  22493413.1024                   22493413.5044
  -7939290.76647  -6184688.00446  20175937.4844                   20175934.3914
 -15157627.82847 -11807665.46145  20571936.0864                   20571934.1914
  -6897616.89515                  23636403.047
 -13353503.17647 -10398528.73844  21477463.9384                   21477461.6134
  14713210.59846  11453554.08643  23060815.6724                   23060814.8054
  10963633.92246   8534332.10544  23113811.3594                   23113807.7304
  -9620059.94547  -7492949.79345  22205627.6174                   22205625.2234
 11  8 22 18 14  0.0000000  0  9G17G24G07G08G26G11G13G19G28
 -11391462.43046  -8865777.03144  23253826.3364                   23253826.7464
 -12233516.10246  -9524779.57443  22487289.4534                   22487290.4964
  -7916451.96147  -6166891.54346  20180283.1254                   20180280.5824
 -15188229.03947 -11831510.55145  20566112.7584                   20566111.4064
  -6948952.484 5                  23626633.109
 -13350918.37147 -10396514.57844  21477955.8524                   21477953.2384
  14845217.49246  11556416.43443  23085935.7194                   23085935.1954
  11085144.45346   8629015.57443  23136933.8754                   23136930.4734
  -9624025.56647  -7496039.87945  22204873.4774                   22204870.7854
 11  8 22 18 14 30.0000000  0  9G17G24G07G08G26G11G13G19G28
 -11462214.53946  -8920908.46543  23240361.2974                   23240362.3554
 -12265397.28146  -9549621.98843  22481222.2274                   22481223.3134
  -7893206.08647  -6148777.89846  20184706.9454                   20184704.3914
 -15218568.81247 -11855151.94145  20560339.0394                   20560336.9304
  -6999852.477 5                  23616946.781
 -13347826.02047 -10394104.91844  21478544.4614                   21478541.6414
  14977299.73046  11659337.50043  23111070.8524                   23111069.7974
  11206823.07846   8723830.04343  23160087.4534                   23160085.1174
  -9627944.54747  -7499093.62945  22204127.5474                   22204124.8244
 11  8 22 18 15  0.0000000  0  9G17G24G07G08G26G11G13G19G28
 -11532765.32846  -8975883.00043  23226935.9144                   23226937.0744
 -12296977.93046  -9574230.23443  22475213.0474                   22475213.4534
  -7869554.16047  -6130347.84446  20189208.3594                   20189204.8874
 -15248646.03147 -11878588.73045  20554614.9614                   20554613.7154
  -7050316.352 5                  23607342.438
 -13344226.57447 -10391300.14144  21479229.2974                   21479226.7504
  15109452.02346  11762313.13343  23136218.1564                   23136217.9734
  11328664.91846   8818771.69943  23183273.6024                   23183270.0824
  -9631819.21547  -7502112.84045  22203389.9224                   22203387.0514
 11  8 22 18 15 30.0000000  0  9G17G24G07G08G26G11G13G19G28
 -11603109.53946  -9030696.58243  23213549.8364                   23213551.3554
 -12328251.80546  -9598599.40643  22469261.2664                   22469261.5474
  -7845491.54347  -6111597.76246  20193786.7584                   20193783.8554
 -15278455.21947 -11901816.67245  20548943.2504                   20548940.1294
  -7100338.383 5                  23597823.445
 -13340115.10947 -10388096.37544  21480011.5944                   21480008.9184
  15241674.69546  11865343.62543  23161379.5314                   23161378.8324
  11450671.06646   8913841.37543  23206490.1254                   23206486.4494
  -9635647.68447  -7505096.05545  22202661.1804                   22202658.6914
 11  8 22 18 16  0.0000000  0  9G17G24G07G08G26G11G13G19G28
 -11673245.12946  -9085347.59443  23200203.8594                   23200203.7544
 -12359215.60246  -9622726.98043  22463370.1954                   22463369.3754
  -7821015.75447  -6092525.73446  20198444.6254                   20198441.3954
 -15307993.13347 -11924833.22745  20543322.4304                   20543319.4574
  -7149915.715 5                  23588389.492
 -13335489.85947 -10384492.27344  21480891.7584                   21480888.8244
  15373965.69946  11968427.34843  23186553.1644                   23186553.0984
  11572839.13746   9009037.20743  23229737.9844                   23229734.9494
  -9639429.36347  -7508042.80945  22201941.5704                   22201939.2234
 11  8 22 18 16 30.0000000  0  9G17G24G07G08G26G11G13G19G28
 -11743170.83646  -9139835.07843  23186897.8524                   23186897.3014
 -12389866.80546  -9646610.97343  22457536.5944                   22457535.6094
  -7796126.54747  -6073131.56246  20203180.4224                   20203177.4924
 -15337257.51247 -11947636.64145  20537753.7114                   20537751.0554
  -7199046.098 5                  23579040.938
 -13330349.82447 -10380487.05144  21481869.4304                   21481867.0864
  15506321.32446  12071561.42243  23211740.4224                   23211740.0084
  11695165.70346   9104356.55943  23253016.5634                   23253013.1454
  -9643166.13347  -7510954.56245  22201230.5234                   22201228.0514
 11  8 22 18 17  0.0000000  0  9G17G24G07G08G26G11G13G19G28
 -11812882.76246  -9194155.97743  23173632.3444                   23173632.2734
 -12420200.71546  -9670247.73043  22451764.7894                   22451764.3134
  -7770820.56247  -6053412.62946  20207996.3444                   20207993.3634
 -15366244.18047 -11970223.65245  20532237.6254                   20532235.5004
  -7247725.523 6                  23569778.414
 -13324691.75047 -10376078.15644  21482946.7814                   21482943.8404
  15638740.74246  12174745.23843  23236938.9064                   23236939.3984
  11817650.18846   9199798.96543  23276324.6804                   23276321.4844
  -9646856.66447  -7513830.28945  22200527.9224                   22200526.0354
 11  8 22 18 17 30.0000000  0  9G17G24G07G08G26G11G13G19G28
 -11882380.61346  -9248310.06643  23160407.7814                   23160407.3524
 -12450215.94946  -9693636.16843  22446052.7974                   22446052.3014
  -7745097.71947  -6033368.85946  20212891.3364                   20212888.1954
 -15394951.81647 -11992593.22745  20526774.4384                   20526772.2974
  -7295952.883 5                  23560601.266
 -13318515.88347 -10371265.79744  21484121.2974                   21484119.1484
  15771219.44146  12277975.19543  23262148.6484                   23262148.7774
  11940288.46546   9295361.20744  23299662.6414                   23299659.0664
  -9650503.27347  -7516671.79345  22199834.9304                   22199831.8954
 11  8 22 18 18  0.0000000  0  9G17G24G07G08G26G11G13G19G28
 -11951662.63746  -9302295.99643  23147222.9454                   23147222.7034
 -12479909.72746  -9716774.11343  22440401.7814                   22440401.2154
  -7718956.96947  -6012999.46146  20217865.6094                   20217863.1604
 -15423377.64547 -12014743.22745  20521365.8594                   20521363.4614
  -7343725.996 5                  23551510.188
 -13311820.41047 -10366048.55944  21485395.4534                   21485393.0474
  15903754.31346  12381248.90243  23287368.4924                   23287369.8874
  12063077.91846   9391041.22743  23323028.6254                   23323024.7854
  -9654106.67647  -7519479.62145  22199149.4534                   22199146.0784
 11  8 22 18 18 30.0000000  0  9G17G24G07G08G26G11G13G19G28
 -12020722.69546  -9356108.95743  23134081.2194                   23134080.5824
 -12509274.67646  -9739655.84843  22434814.7664                   22434814.5274
  -7692392.52747  -5992299.91446  20222920.8594                   20222917.8364
 -15451515.69947 -12036668.97745  20516011.1804                   20516009.1294
  -7391037.836 5                  23542505.531
 -13304599.91047 -10360422.19944  21486770.4534                   21486767.4884
  16036346.76246  12484567.53142  23312600.4304                   23312601.2114
  12186019.74646   9486839.99243  23346423.1254                   23346419.9804
  -9657663.28147  -7522250.98845  22198471.8134                   22198469.0084
 11  8 22 18 19  0.0000000  0  9G17G24G07G08G26G11G13G19G28
 -12089563.16846  -9409750.78543  23120981.2424                   23120981.6994
 -12538312.07846  -9762282.37943  22429288.6884                   22429288.1644
  -7665407.56647  -5971272.69146  20228055.6724                   20228052.3874
 -15479367.16447 -12058371.41045  20510711.2194                   20510709.0124
  -7437890.742 5                  23533590.461
 -13296857.10947 -10354388.85245  21488242.6724                   21488240.8874
  16168989.55146  12587925.34443  23337842.8284                   23337843.1094
  12309107.66046   9582752.55143  23369845.6804                   23369843.1094
  -9661177.87147  -7524989.61345  22197803.3284                   22197800.4884
 11  8 22 18 19 30.0000000  0  9G17G24G07G08G26G11G13G19G28
 -12158184.30146  -9463221.71143  23107922.2424                   23107922.4384
 -12567021.04346  -9784652.95743  22423825.3674                   22423825.6134
  -7638002.37147  -5949918.01245  20233270.8444                   20233267.7544
 -15506931.34447 -12079849.99245  20505465.4144                   20505463.6684
  -7484284.164 5                  23524762.320
 -13288592.75047 -10347949.10544  21489816.0394                   21489813.1564
  16301677.96546  12691318.76242  23363092.5784                   23363092.3674
  12432337.08646   9678775.40243  23393295.6174                   23393292.5944
  -9664653.36347  -7527697.77745  22197141.4304                   22197138.7034
 11  8 22 18 20  0.0000000  0  9G17G24G07G08G26G11G13G19G28
 -12226585.19946  -9516521.08243  23094906.5554                   23094906.1134
 -12595399.88746  -9806766.35244  22418425.4774                   22418425.0474
  -7610176.65247  -5928235.64546  20238566.2274                   20238563.1684
 -15534206.28947 -12101103.19945  20500275.6334                   20500273.5394
  -7530216.801 5                  23516021.359
 -13279806.37547 -10341102.57045  21491488.3594                   21491485.5594
  16434408.22746  12794744.75042  23388350.3834                   23388350.1684
  12555703.74645   9774905.25043  23416771.7974                   23416768.4104
  -9668091.07847  -7530376.50445  22196487.9614                   22196485.3984
 11  8 22 18 20 30.0000000  0  9G17G24G07G08G26G11G13G19G28
 -12294752.31246  -9569638.22343  23081935.1174                   23081934.1844
 -12623433.77046  -9828610.91044  22413090.6884                   22413090.6024
  -7581917.57447  -5906215.59446  20243943.1024                   20243940.3284
 -15561177.74647 -12122119.91845  20495143.2274                   20495141.4144
  -7575674.31615                  23507371.477
 -13270485.03147 -10333839.18744  21493261.8914                   21493259.4344
  16567189.24246  12898210.27742  23413617.2114                   23413617.8794
  12679217.67646   9871149.80943  23440275.2894                   23440272.6914
  -9671480.02047  -7533017.21945  22195842.5234                   22195840.0354
 11  8 22 18 21  0.0000000  0  9G17G24G07G08G26G11G13G19G28
 -12362688.43046  -9622575.37944  23069006.7504                   23069006.2854
 -12651124.51246  -9850188.09844  22407820.8524                   22407821.2194
  -7553228.59447  -5883860.56646  20249402.5084                   20249399.8284
 -15587848.05547 -12142901.98445  20490067.6334                   20490065.6884
  -7620659.215 5                  23498809.859
 -13260632.02347 -10326161.51244  21495137.1564                   21495134.2424
  16700013.16446  13001709.26242  23438893.5394                   23438893.3014
  12802871.46146   9967503.34043  23463807.3834                   23463803.7304
  -9674825.71947  -7535624.25045  22195206.4384                   22195203.5704
 11  8 22 18 21 30.0000000  0  9G17G24G07G08G26G11G13G19G28
 -12430396.04746  -9675334.48844  23056123.3834                   23056122.8444
 -12678473.46946  -9871498.96544  22402616.9304                   22402617.1374
  -7524112.48847  -5861172.70346  20254942.6644                   20254940.6134
 -15614218.42647 -12163450.32045  20485049.8134                   20485047.6254
  -7665173.414 5                  23490338.063
 -13250250.34447 -10318071.89844  21497112.3444                   21497109.7154
  16832873.23446  13105236.39842  23464175.8444                   23464175.3674
  12926658.12545  10063960.41043  23487362.1804                   23487358.6174
  -9678132.84047  -7538201.21545  22194576.7424                   22194574.0864
 11  8 22 18 22  0.0000000  0  9G17G24G07G08G26G11G13G19G28
 -12497870.54746  -9727911.94143  23043282.5634                   23043283.0084
 -12705475.12946  -9892539.20344  22397478.3134                   22397478.5474
  -7494565.09047  -5838148.77746  20260565.3054                   20260563.5864
 -15640283.59047 -12183760.83645  20480089.1954                   20480087.3204
  -7709211.469 5                  23481959.281
 -13239335.68447 -10309566.94944  21499189.5164                   21499186.3984
  16965769.28946  13208791.56343  23489465.5944                   23489465.0354
  13050578.15645  10160521.41443  23510943.3984                   23510940.2154
  -9681399.36747  -7540746.56245  22193954.4694                   22193952.5474
 11  8 22 18 22 30.0000000  0  9G17G24G07G08G26G11G13G19G28
 -12565105.96546  -9780303.11344  23030488.1884                   23030488.2114
 -12732122.18746  -9913303.13344  22392408.3984                   22392407.5904
  -7464580.97747  -5814784.54746  20266271.4064                   20266269.2464
 -15666036.48047 -12203828.03145  20475189.1024                   20475186.4184
  -7752767.187 5                  23473670.414
 -13227882.78447 -10300642.60244  21501368.9774                   21501366.0944
  17098702.67646  13312375.79343  23514762.3524                   23514762.7154
  13174633.40645  10257187.74643  23534550.5634                   23534547.4104
  -9684621.16847  -7543257.03545  22193342.0784                   22193339.2194
 11  8 22 18 23  0.0000000  0  9G17G24G07G08G26G11G13G19G28
 -12632098.87946  -9832505.28144  23017739.5634                   23017740.1254
 -12758410.32046  -9933787.37143  22387405.1334                   22387404.7464
  -7434157.35547  -5791077.84046  20272060.7504                   20272058.3244
 -15691473.30147 -12223648.92645  20470348.9534                   20470346.3284
  -7795836.746 5                  23465473.625
 -13215888.84447 -10291296.68044  21503650.7424                   21503648.4344
  17231671.94946  13415988.05543  23540065.4384                   23540066.1134
  13298822.37946  10353958.30943  23558183.5944                   23558179.4574
  -9687797.86347  -7545732.37145  22192736.7894                   22192734.4414
 11  8 22 18 23 30.0000000  0  9G17G24G07G08G26G11G13G19G28
 -12698849.03146  -9884518.31644  23005037.8594                   23005037.2624
 -12784338.35946  -9953991.00443  22382471.5474                   22382471.0704
  -7403294.69147  -5767029.02046  20277934.2344                   20277931.6454
 -15716592.73847 -12243222.51245  20465568.5704                   20465566.6954
  -7838419.223 5                  23457370.828
 -13203354.10247 -10281529.34044  21506035.2974                   21506034.0944
  17364673.05946  13519625.08243  23565374.8834                   23565374.7074
  13423141.27046  10450830.10943  23581839.9924                   23581836.1174
  -9690931.43747  -7548174.10544  22192141.0554                   22192138.7934
 11  8 22 18 24  0.0000000  0  9G17G24G07G08G26G11G13G19G28
 -12765348.51246  -9936336.03944  22992382.7734                   22992382.4384
 -12809897.58646  -9973907.25444  22377607.5634                   22377607.3874
  -7371985.79347  -5742632.48846  20283891.8834                   20283889.3834
 -15741385.96147 -12262541.91045  20460850.1884                   20460848.3834
  -7880506.629 5                  23449362.297
 -13190271.57047 -10271335.14845  21508525.5554                   21508523.0824
  17497709.05145  13623289.29342  23590689.9924                   23590691.0984
  13547593.74646  10547806.04743  23605523.3674                   23605518.1054
  -9694016.51247  -7550578.04345  22191553.9534                   22191551.9344
 11  8 22 18 24 30.0000000  0  9G17G24G07G08G26G11G13G19G28
 -12831597.12946  -9987958.27044  22979775.9304                   22979775.8244
 -12835086.73446  -9993535.10943  22372814.6334                   22372813.6024
  -7340230.78947  -5717888.34846  20289934.9144                   20289932.1524
 -15765852.11347 -12281606.44945  20456194.8054                   20456192.6484
  -7922098.121 6                  23441448.211
 -13176641.69947 -10260714.46545  21511119.5004                   21511117.0314
  17630775.66845  13726977.34043  23616011.6174                   23616013.5704
  13672175.58246  10644882.76243  23629230.4774                   23629225.8094
  -9697055.19547  -7552945.84045  22190975.7894                   22190973.2424
 11  8 22 18 25  0.0000000  0  9G17G24G07G08G26G11G13G19G28
 -12897587.88746 -10039379.58244  22967218.2814                   22967217.9804
 -12859897.20346 -10012867.91044  22368092.5004                   22368092.8244
  -7308023.07847  -5692791.44546  20296063.7974                   20296061.0234
 -15789982.79347 -12300409.57045  20451602.9534                   20451601.1094
  -7963186.176 6                  23433630.648
 -13162457.76247 -10249662.04744  21513818.2894                   21513816.1764
  17763875.49245  13830691.34043  23641340.0004                   23641342.3834
  13796889.59046  10742062.48443  23652961.8284                   23652958.7274
  -9700042.52747  -7555273.61345  22190407.1174                   22190405.2854
 11  8 22 18 25 30.0000000  0  9G17G24G07G08G26G11G13G19G28
 -12963316.69946 -10090596.75844  22954710.6024                   22954710.1914
 -12884324.03146 -10031901.76644  22363444.3674                   22363444.8834
  -7275359.11347  -5667339.02746  20302279.5234                   20302276.5554
 -15813772.78547 -12318947.22745  20447075.5164                   20447074.5744
  -8003766.191 6                  23425907.469
 -13147716.20747 -10238175.10944  21516623.7814                   21516621.3484
  17897008.12145  13934430.80542  23666674.2344                   23666676.5554
  13921736.14546  10839345.37943  23676720.2114                   23676716.6214
  -9702976.95347  -7557560.17245  22189848.7974                   22189846.6024
 11  8 22 18 26  0.0000000  0  9G17G24G07G08G26G11G13G19G28
 -13028772.60546 -10141601.30543  22942254.4694                   22942254.4104
 -12908355.14146 -10050627.25844  22358870.8134                   22358871.1484
  -7242228.73047  -5641523.16046  20308584.5784                   20308581.2734
 -15837210.45747 -12337210.34445  20442615.7504                   20442613.8714
  -8043826.547 6                  23418284.117
 -13132407.04347 -10226245.89144  21519537.7274                   21519534.8014
  18030179.72346  14038200.64142  23692016.4534                   23692018.3914
  14046721.64846  10936736.62143  23700503.5704                   23700500.6134
  -9705849.73847  -7559798.68445  22189302.2274                   22189299.9844
 11  8 22 18 26 30.0000000  0  9G17G24G07G08G26G11G13G19G28
 -13093952.30146 -10192390.60544  22929852.2114                   22929850.9024
 -12931986.38346 -10069041.16444  22354373.7734                   22354374.3634
  -7208629.21147  -5615341.73046  20314977.8054                   20314975.1884
 -15860292.19947 -12355196.10545  20438223.7974                   20438221.3834
  -8083364.035 5                  23410760.109
 -13116527.53147 -10213872.23844  21522558.6414                   21522556.6254
  18163389.10946  14141999.91842  23717366.0944                   23717366.9454
  14171845.24246  11034235.44943  23724314.4844                   23724310.8444
  -9708659.75047  -7561988.32045  22188767.9924                   22188765.7304
 11  8 22 18 27  0.0000000  0  9G17G24G07G08G26G11G13G19G28
 -13158862.59446 -10242969.96944  22917499.4304                   22917499.2504
 -12955223.40246 -10087147.91044  22349952.6174                   22349952.5204
  -7174567.84447  -5588800.42246  20321459.5164                   20321457.1294
 -15883023.85247 -12372909.07845  20433897.7274                   20433895.9694
  -8122384.777 5                  23403335.016
 -13100085.25047 -10201060.06645  21525688.3444                   21525684.9494
  18296625.18446  14245820.02042  23742720.3134                   23742720.4614
  14297095.58246  11131833.03943  23748148.4064                   23748145.9534
  -9711416.26247  -7564136.21944  22188242.7424                   22188240.7194
 11  8 22 18 27 30.0000000  0  9G17G24G07G08G26G11G13G19G28
 -13223492.56646 -10293330.90244  22905200.3204                   22905199.7624
 -12978054.41046 -10104938.27344  22345607.7504                   22345607.6994
  -7140034.74647  -5561891.53946  20328031.1334                   20328028.6884
 -15905393.28147 -12390339.79345  20429640.7814                   20429638.8364
  -8160877.754 6                  23396009.578
 -13083070.16047 -10187801.53944  21528925.6174                   21528923.1374
  18429893.75846  14349665.47342  23768080.4064                   23768080.4024
  14422479.53145  11229534.75443  23772007.9844                   23772005.7074
  -9714111.03147  -7566236.02044  22187730.1644                   22187727.1214
 11  8 22 18 28  0.0000000  0  9G17G24G07G08G26G11G13G19G28
 -13287843.36746 -10343474.32044  22892955.3594                   22892954.7424
 -13000479.33646 -10122412.19543  22341341.0084                   22341340.3524
  -7105031.20347  -5534616.07446  20334692.2504                   20334689.4144
 -15927400.31247 -12407488.12145  20425453.1484                   20425451.1914
  -8198842.984 5                  23388785.531
 -13065483.67247 -10174097.76644  21532271.9304                   21532269.4614
  18563190.05946  14453532.53542  23793446.0944                   23793446.4304
  14547992.19945  11327336.78943  23795891.8914                   23795889.5784
  -9716746.85947  -7568289.90244  22187228.7584                   22187226.0594
 11  8 22 18 28 30.0000000  0  9G17G24G07G08G26G11G13G19G28
 -13351914.23846 -10393399.60244  22880762.8134                   22880762.2304
 -13022496.83646 -10139568.66444  22337151.0234                   22337150.8874
  -7069557.30547  -5506974.09446  20341441.9454                   20341439.7074
 -15949043.77747 -12424353.15245  20421334.8834                   20421332.2814
  -8236280.156 5                  23381660.875
 -13047326.16447 -10159949.04744  21535727.7114                   21535724.6994
  18696510.07446  14557418.01642  23818815.7894                   23818816.0314
  14673629.94145  11425236.28543  23819800.1804                   23819796.8674
  -9719325.31647  -7570299.07044  22186738.2274                   22186735.4654
 11  8 22 18 29  0.0000000  0  9G17G24G07G08G26G11G13G19G28
 -13415707.03546 -10443108.19144  22868622.8984                   22868623.4384
 -13044107.50046 -10156408.11344  22333038.6884                   22333038.7734
  -7033615.49247  -5478967.50446  20348282.2344                   20348279.3094
 -15970324.38747 -12440935.45345  20417285.1414                   20417282.7704
  -8273190.406 5                  23374637.688
 -13028600.13747 -10145357.31244  21539291.0234                   21539288.3554
  18829847.34846  14661317.02042  23844189.7034                   23844190.3094
  14799387.11345  11523228.82442  23843730.5164                   23843727.9414
  -9721850.62147  -7572266.81644  22186257.2974                   22186255.1094
 11  8 22 18 29 30.0000000  0  9G17G24G07G08G26G11G13G19G28
 -13479225.79346 -10492603.22744  22856535.1024                   22856535.8914
 -13065314.38346 -10172932.92644  22329002.6254                   22329002.6214
  -6997210.26647  -5450599.82846  20355209.5084                   20355206.7544
 -15991245.21947 -12457237.39845  20413303.8524                   20413301.4104
  -8309577.398 6                  23367713.047
 -13009310.77347 -10130326.62544  21542961.3914                   21542958.8484
  18963193.30546  14765222.80142  23869564.9924                   23869566.0824
  14925254.89545  11621307.50442  23867683.0394                   23867680.0234
  -9724329.10547  -7574198.07444  22185785.9454                   22185783.3984
 11  8 22 18 30  0.0000000  0  9G17G24G07G08G26G11G13G19G28
 -13542465.92646 -10541881.18444  22844501.1564                   22844500.7704
 -13086111.74246 -10189138.64844  22325045.4454                   22325045.2814
  -6960337.77347  -5421868.03946  20362226.2814                   20362223.6684
 -16011800.67647 -12473254.63345  20409392.0394                   20409390.0704
  -8345436.141 6                  23360889.688
 -12989453.39847 -10114853.32444  21546740.5634                   21546737.6724
  19096548.67246  14869135.84842  23894941.5394                   23894943.4964
  15051234.60246  11719473.47743  23891655.7274                   23891653.0984
  -9726758.11747  -7576090.78944  22185323.5164                   22185321.1954
 11  8 22 18 30 30.0000000  0  9G17G24G07G08G26G11G13G19G28
 -13605426.30146 -10590941.13344  22832521.1484                   22832520.2424
 -13106497.48846 -10205023.60244  22321166.1254                   22321165.8634
  -6922997.60247  -5392771.81645  20369331.7034                   20369329.1564
 -16031988.75847 -12488985.60545  20405550.9534                   20405548.6844
  -8380765.031 6                  23354166.633
 -12969028.06247 -10098937.46944  21550627.0474                   21550623.9884
  19229909.86745  14973053.38342  23920319.7734                   23920320.8674
  15177323.09446  11817724.21543  23915651.0554                   23915647.1334
  -9729138.66047  -7577945.74244  22184870.2274                   22184868.0904
 11  8 22 18 31  0.0000000  0  9G17G24G07G08G26G11G13G19G28
 -13668102.71546 -10639779.80944  22820593.1094                   22820593.4344
 -13126466.34446 -10220583.72344  22317366.0704                   22317365.2154
  -6885186.01647  -5363308.26645  20376527.1804                   20376524.4384
 -16051804.35247 -12504426.33245  20401780.2194                   20401777.4804
  -8415559.672 5                  23347544.953
 -12948031.44547 -10082576.46144  21554622.1564                   21554619.7974
  19363276.85245  15076975.46942  23945697.3054                   23945700.8754
  15303520.46546  11916059.75843  23939664.9454                   23939662.4414
  -9731468.83247  -7579761.43444  22184427.2664                   22184424.7114
 11  8 22 18 31 30.0000000  0  9G17G24G07G08G26G11G13G19G28
 -13730501.05546 -10688401.83244  22808719.6884                   22808719.4964
 -13146023.23446 -10235822.85544  22313644.8204                   22313643.4574
  -6846910.15647  -5333482.93745  20383810.9304                   20383808.1524
 -16071252.37547 -12519580.62945  20398078.9614                   20398077.0394
  -8449825.840 5                  23341024.273
 -12926470.82447 -10065775.94944  21558725.0474                   21558722.6644
  19496639.01245  15180893.78142  23971077.8674                   23971080.0984
  15429816.41046  12014472.09443  23963699.2194                   23963694.7774
  -9733756.85547  -7581544.28944  22183992.0084                   22183989.8134
 11  8 22 18 32  0.0000000  0  9G17G24G07G08G26G11G13G19G28
 -13792616.64846 -10736803.52344  22796899.9064                   22796899.3754
 -13165162.60946 -10250736.61744  22310002.4384                   22310001.3874
  -6808165.66447  -5303292.44545  20391183.7894                   20391181.0474
 -16090327.19147 -12534444.12145  20394449.1094                   20394447.2504
  -8483558.512 5                  23334604.508
 -12904341.77747 -10048532.53544  21562936.3834                   21562933.9454
  19629996.93845  15284808.75842  23996454.7734                   23996456.1294
  15556211.87946  12112962.00443  23987751.2894                   23987748.0124
  -9735999.73447  -7583291.97344  22183564.7584                   22183562.1994
 11  8 22 18 32 30.0000000  0  9G17G24G07G08G26G11G13G19G28
 -13854454.75846 -10784989.00444  22785131.4844                   22785132.0704
 -13183888.47746 -10265328.17644  22306439.2734                   22306438.1604
  -6768958.02047  -5272741.05945  20398644.7734                   20398642.0944
 -16109032.74247 -12549019.86745  20390889.5394                   20390887.7584
  -8516762.047 5                  23328287.211
 -12881650.60547 -10030851.10544  21567254.6254                   21567251.6454
  19763341.16845  15388713.13342  24021828.9924                   24021831.0434
  15682697.96946  12211522.52343  24011819.7034                   24011817.8634
  -9738205.16847  -7585010.46144  22183145.4534                   22183142.5314
 11  8 22 18 33  0.0000000  0  9G17G24G07G08G26G11G13G19G28
 -13916014.37146 -10832957.44144  22773417.1724                   22773417.6174
 -13202199.18746 -10279596.23043  22302954.0474                   22302953.7974
  -6729287.35247  -5241828.86345  20406193.4224                   20406191.2624
 -16127367.30547 -12563306.53145  20387400.6884                   20387398.8054
  -8549436.078 5                  23322068.781
 -12858397.33647 -10012731.67244  21571679.4454                   21571677.0704
  19896667.84446  15492603.75442  24047201.0394                   24047201.2814
  15809271.31645  12310150.98442  24035906.4614                   24035903.0044
  -9740374.15647  -7586700.57044  22182731.9924                   22182730.3554
 11  8 22 18 33 30.0000000  0  9G17G24G07G08G26G11G13G19G28
 -13977291.21546 -10880705.59044  22761756.9224                   22761756.1764
 -13220089.44946 -10293536.66044  22299550.0944                   22299549.2774
  -6689150.13747  -5210553.14145  20413831.6414                   20413828.9884
 -16145325.65247 -12577300.04745  20383983.0314                   20383981.3914
  -8581575.34045  -7008311.82453  23315953.6804                   23315953.3984
 -12834578.39147  -9994171.44544  21576211.7114                   21576209.2384
  20029977.39546  15596481.07042  24072569.2274                   24072569.4734
  15935932.44145  12408847.98442  24060008.2034                   24060004.6484
  -9742504.50447  -7588360.56644  22182326.8674                   22182324.5944
 11  8 22 18 34  0.0000000  0  9G17G24G07G08G26G11G13G19G28
 -14038284.89146 -10928233.07044  22750150.2424                   22750149.5704
 -13237557.63746 -10307148.19944  22296226.4924                   22296225.6454
  -6648546.37547  -5178913.86745  20421558.2114                   20421555.6524
 -16162906.09847 -12590999.08645  20380637.7194                   20380635.7814
  -8613179.11746  -7032938.14542  23309939.2734                   23309938.9844
 -12810194.01247  -9975170.63344  21580852.2194                   21580849.8594
  20163266.04346  15700342.10242  24097933.4304                   24097933.8634
  16062677.91446  12507610.70742  24084127.0784                   24084124.2894
  -9744597.64847  -7589991.57444  22181928.6484                   22181926.3094
 11  8 22 18 34 30.0000000  0  9G17G24G07G08G26G11G13G19G28
 -14099000.36346 -10975543.76244  22738596.7974                   22738595.1644
 -13254608.17646 -10320434.31244  22292980.9144                   22292980.8244
  -6607482.05147  -5146915.72346  20429372.6954                   20429369.7424
 -16180113.04747 -12604407.09445  20377363.5084                   20377361.0704
  -8644252.68746  -7057151.30143  23304026.7584                   23304025.8244
 -12785250.49247  -9955734.13744  21585598.6174                   21585596.1844
  20296524.32446  15804179.45742  24123291.2274                   24123292.1564
  16189498.41846  12606431.80142  24108260.6804                   24108257.8874
  -9746660.89847  -7591599.28544  22181536.2504                   22181533.4804
 11  8 22 18 35  0.0000000  0  9G17G24G07G08G26G11G13G19G28
 -14159427.68746 -11022629.93044  22727096.9064                   22727096.8984
 -13271229.82446 -10333386.22744  22289818.4534                   22289817.2704
  -6565947.75447  -5114551.36345  20437276.6804                   20437273.7384
 -16196935.01647 -12617515.12145  20374162.7814                   20374160.1024
  -8674785.56646  -7080943.16043  23298216.6094                   23298215.9024
 -12759738.71947  -9935854.83244  21590453.0164                   21590451.1414
  20429757.99646  15907997.67242  24148645.0084                   24148646.1174
  16316400.57446  12705316.56643  24132410.7344                   24132407.4304
  -9748686.16047  -7593177.40244  22181150.6884                   22181148.5204
 11  8 22 18 35 30.0000000  0  9G17G24G07G08G26G11G13G19G28
 -14219571.43446 -11069495.10544  22715651.5704                   22715651.8954
 -13287426.32846 -10346006.84844  22286735.9454                   22286735.5274
  -6523948.91847  -5081825.03146  20445268.4534                   20445265.4924
 -16213375.97747 -12630326.26645  20371033.6254                   20371031.4534
  -8704782.18446  -7104317.13343  23292507.9304                   23292507.1294
 -12733664.46547  -9915537.25444  21595415.3364                   21595412.1994
  20562958.20745  16011789.85542  24173991.6484                   24173993.4844
  16443375.62546  12804258.09443  24156572.3594                   24156570.7154
  -9750680.22747  -7594731.21144  22180770.9774                   22180768.5514
 11  8 22 18 36  0.0000000  0  9G17G24G07G08G26G11G13G19G28
 -14279434.32046 -11116141.44544  22704260.3914                   22704259.5514
 -13303199.72346 -10358297.76644  22283734.0704                   22283734.4344
  -6481489.08647  -5048739.46546  20453348.5944                   20453345.7584
 -16229437.49647 -12642841.74645  20367977.1954                   20367974.7974
  -8734245.23846  -7127275.35543  23286901.6094                   23286901.6524
 -12707031.41847  -9894784.23844  21600483.2974                   21600480.8054
  20696118.02045  16115550.52042  24199332.0634                   24199333.4614
  16570416.93046  12903251.24643  24180747.1024                   24180745.3134
  -9752647.86747  -7596264.43444  22180397.1254                   22180393.5234
 11  8 22 18 36 30.0000000  0  9G17G24G07G08G26G11G13G19G28
 -14339016.01246 -11162568.69143  22692923.0704                   22692921.3754
 -13318548.33646 -10370257.71144  22280813.2274                   22280813.4104
  -6438568.27747  -5015294.71146  20461515.6884                   20461513.4574
 -16245117.98047 -12655060.30945  20364993.8054                   20364991.4264
  -8763173.72746  -7149817.00043  23281396.5864                   23281396.6644
 -12679839.87547  -9873596.02744  21605657.4454                   21605655.1684
  20829233.72745  16219276.80942  24224663.3364                   24224665.3364
  16697521.27345  13002293.51243  24204935.3594                   24204931.8404
  -9754590.37147  -7597778.06244  22180026.9534                   22180024.6334
 11  8 22 18 37  0.0000000  0  9G17G24G07G08G26G11G13G19G28
 -14398318.17646 -11208778.06244  22681638.1564                   22681637.4964
 -13333473.13346 -10381887.38344  22277973.5864                   22277973.7934
  -6395189.06647  -4981492.75846  20469770.6564                   20469767.6564
 -16260418.43047 -12666982.73045  20362081.9384                   20362079.5004
  -8791569.40646  -7171943.53543  23275993.3674                   23275992.0044
 -12652092.64547  -9851974.80944  21610937.8444                   21610935.4264
  20962299.28545  16322963.94542  24249985.7814                   24249986.8794
  16824682.90645  13101380.36742  24229132.4454                   24229130.2114
  -9756511.57046  -7599275.09444  22179661.6484                   22179659.1484
 11  8 22 18 37 30.0000000  0  9G17G24G07G08G26G11G13G19G28
 -14457335.85546 -11254765.78144  22670407.2194                   22670405.8484
 -13347968.09446 -10393182.12944  22275215.4694                   22275215.1644
  -6351347.18747  -4947330.27345  20478113.7584                   20478111.0864
 -16275332.67647 -12678604.22745  20359243.7734                   20359241.1524
  -8819426.99246  -7193650.69143  23270691.0864                   23270691.3554
 -12623785.57847  -9829917.35245  21616324.6564                   21616322.2934
  21095315.61745  16426612.77742  24275297.0474                   24275299.5044
  16951903.27346  13200512.99643  24253342.9534                   24253339.2424
  -9758408.25846  -7600753.02344  22179300.6094                   22179297.8284
 11  8 22 18 38  0.0000000  0  9G17G24G07G08G26G11G13G19G28
 -14516064.94146 -11300528.64544  22659231.0164                   22659230.4734
 -13362028.29346 -10404138.10244  22272539.6024                   22272539.9384
  -6307039.46147  -4912804.80546  20486544.8524                   20486542.2074
 -16289855.20747 -12689920.49245  20356480.0864                   20356477.6914
  -8846742.28546  -7214935.34443  23265493.8364                   23265492.5904
 -12594915.90647  -9807421.47744  21621817.9694                   21621815.5864
  21228282.84445  16530223.19542  24300600.5164                   24300602.6564
  17079182.66446  13299691.66443  24277562.5004                   24277559.9024
  -9760278.05146  -7602210.00444  22178945.1644                   22178942.3324
 11  8 22 18 38 30.0000000  0  9G17G24G07G08G26G11G13G19G28
 -14574513.57447 -11346072.95744  22648108.3914                   22648108.1374
 -13375660.91046 -10414760.89844  22269945.8524                   22269945.7974
  -6262274.66047  -4877923.16846  20495063.4844                   20495061.3954
 -16303993.62947 -12700937.44545  20353789.4844                   20353787.6094
  -8873523.23446  -7235803.60543  23260397.6024                   23260396.4534
 -12565492.83647  -9784494.41045  21627416.9924                   21627414.7584
  21361188.73445  16633786.00842  24325891.6414                   24325893.9264
  17206508.83246  13398906.83243  24301793.1564                   24301789.3284
  -9762131.46946  -7603654.19544  22178591.7584                   22178589.3284
 11  8 22 18 39  0.0000000  0  9G17G24G07G08G26G11G13G19G28
 -14632672.92646 -11391391.84844  22637041.6564                   22637041.1764
 -13388856.03146 -10425042.75444  22267433.8594                   22267434.4224
  -6217044.74647  -4842679.09845  20503671.0084                   20503668.1804
 -16317737.98847 -12711647.34845  20351174.2814                   20351172.5634
  -8899760.91046  -7256248.53543  23255404.2974                   23255404.0434
 -12535508.64147  -9761130.08244  21633123.3054                   21633120.0514
  21494037.77345  16737304.41042  24351171.8984                   24351174.7734
  17333887.48046  13498162.90243  24326031.5004                   24326028.2814
  -9763961.23446  -7605079.99644  22178243.4304                   22178241.2814
 11  8 22 18 39 30.0000000  0  9G17G24G07G08G26G11G13G19G28
 -14690549.60246 -11436490.47744  22626027.8594                   22626027.0044
 -13401619.40646 -10434988.21544  22265004.8204                   22265005.3954
  -6171356.96547  -4807078.25045  20512364.7274                   20512362.0784
 -16331093.64847 -12722054.35245  20348632.5394                   20348630.8984
  -8925461.58646  -7276275.03543  23250514.3054                   23250512.9224
 -12504970.68047  -9737334.27044  21638934.1884                   21638932.0474
  21626819.45745  16840770.31642  24376440.7734                   24376442.2074
  17461308.09846  13597451.64543  24350279.0944                   24350275.9734
  -9765776.10546  -7606494.16843  22177898.5784                   22177895.8094
 11  8 22 18 40  0.0000000  0  9G17G24G07G08G26G11G13G19G28
 -14748139.32846 -11481365.50844  22615068.7424                   22615067.7274
 -13413946.00446 -10444593.31644  22262659.3674                   22262659.8244
  -6125208.15247  -4771118.16445  20521146.3444                   20521143.9454
 -16344055.31247 -12732154.35545  20346166.6484                   20346164.5984
  -8950620.90646  -7295879.67243  23245726.1024                   23245725.7194
 -12473875.85247  -9713104.51244  21644851.7114                   21644849.1254
  21759534.12946  16944184.03542  24401694.7584                   24401697.2814
  17588771.28546  13696773.51643  24374535.0704                   24374531.4774
  -9767573.05946  -7607894.38343  22177556.8524                   22177553.6954
 11  8 22 18 40 30.0000000  0  9G17G24G07G08G26G11G13G19G28
 -14805438.15646 -11526013.89144  22604164.8444                   22604164.0314
 -13425830.84446 -10453854.21144  22260398.3204                   22260397.8754
  -6078594.80147  -4734796.08645  20530016.4534                   20530013.9494
 -16356618.09047 -12741943.52745  20343775.5234                   20343774.1484
  -8975235.06246  -7315059.52343  23241042.9534                   23241042.0784
 -12442221.49647  -9688438.77344  21650875.1804                   21650872.5084
  21892181.62145  17047545.44542  24426937.4384                   24426939.9224
  17716277.28146  13796128.82443  24398797.9144                   24398795.9264
  -9769350.17246  -7609279.12943  22177217.6644                   22177215.5354
 11  8 22 18 41  0.0000000  0  9G17G24G07G08G26G11G13G19G28
 -14862448.21146 -11570437.21144  22593315.9774                   22593316.1484
 -13437275.18746 -10462771.85544  22258220.1884                   22258220.7624
  -6031520.07047  -4698114.49245  20538974.8674                   20538972.2304
 -16368783.16847 -12751422.80545  20341460.5394                   20341458.7304
  -8999306.04346  -7333816.13743  23236462.4064                   23236461.2034
 -12410011.02747  -9663339.70345  21657004.2974                   21657001.8094
  22024755.37545  17150849.35542  24452165.3984                   24452168.4414
  17843819.94946  13895512.66443  24423069.0554                   24423065.8954
  -9771111.77346  -7610651.81643  22176883.5864                   22176880.0864
 11  8 22 18 41 30.0000000  0  9G17G24G07G08G26G11G13G19G28
 -14919173.64146 -11614638.77344  22582521.6254                   22582521.2504
 -13448282.35246 -10471348.84443  22256125.5864                   22256125.9024
  -5983988.77747  -4661077.13745  20548019.9144                   20548016.8634
 -16380553.47747 -12760594.47345  20339220.6644                   20339219.1454
  -9022837.60946  -7352152.41843  23231984.0164                   23231983.3364
 -12377249.53547  -9637811.26244  21663238.7814                   21663235.5784
  22157247.48446  17254089.65642  24477377.4844                   24477380.4064
  17971391.71145  13994919.20342  24447345.0004                   24447341.8404
  -9772863.77346  -7612017.02343  22176549.6804                   22176546.5554
 11  8 22 18 42  0.0000000  0  9G17G24G07G08G26G11G13G19G28
 -14975609.30546 -11658614.52744  22571781.7034                   22571780.9964
 -13458846.27746 -10479580.45344  22254115.5634                   22254115.2704
  -5935996.78147  -4623680.80545  20557151.9304                   20557149.6374
 -16391922.69147 -12769453.60545  20337057.3364                   20337055.3834
  -9045824.84446  -7370064.55143  23227609.5554                   23227608.1604
 -12343933.00847  -9611850.32844  21669579.1024                   21669575.7624
  22289659.03146  17357267.13742  24502576.3204                   24502578.6884
  18098994.39545  14094349.72742  24471627.3524                   24471624.2934
  -9774602.59446  -7613371.93043  22176218.2114                   22176216.0314
 11  8 22 18 42 30.0000000  0  9G17G24G07G08G26G11G13G19G28
 -15031749.30147 -11702359.89844  22561098.8364                   22561098.2584
 -13468960.42246 -10487461.56244  22252191.1334                   22252190.2344
  -5887539.02747  -4585921.53545  20566373.7664                   20566371.0944
 -16402883.79347 -12777994.72345  20334971.6094                   20334969.7344
  -9068261.80946  -7387547.90243  23223340.1094                   23223339.4344
 -12310056.85547  -9585453.34044  21676024.8524                   21676022.1804
  22421992.17245  17460383.57442  24527757.1954                   24527761.1644
  18226630.00846  14193806.02743  24495914.7974                   24495912.5434
  -9776324.22746  -7614713.44143  22175890.6564                   22175888.0864
 11  8 22 18 43  0.0000000  0  9G17G24G07G08G26G11G13G19G28
 -15087594.96947 -11745875.92644  22550472.1484                   22550471.1214
 -13478624.96146 -10494992.35244  22250351.8914                   22250351.3164
  -5838617.56647  -4547800.93445  20575683.0394                   20575680.3714
 -16413437.25847 -12786218.20345  20332963.7344                   20332961.4774
  -9090149.41046  -7404603.18043  23219174.8444                   23219174.4734
 -12275623.53947  -9558622.18744  21682577.4774                   21682574.5784
  22554241.63745  17563434.82442  24552923.7734                   24552927.1804
  18354294.02045  14293284.38743  24520209.2504                   24520206.9104
  -9778031.27346  -7616043.60543  22175565.8834                   22175563.6724
 11  8 22 18 43 30.0000000  0  9G17G24G07G08G26G11G13G19G28
 -15143145.52746 -11789161.99244  22539900.7734                   22539899.6844
 -13487838.24646 -10502171.51244  22248598.6724                   22248598.1764
  -5789232.15647  -4509318.82045  20585080.3524                   20585078.2544
 -16423580.88747 -12794122.32845  20331033.0554                   20331031.2704
  -9111487.07846  -7421229.91443  23215114.2584                   23215114.4494
 -12240633.18747  -9531356.98444  21689236.3364                   21689233.0594
  22686404.26645  17666418.33642  24578073.1724                   24578077.5864
  18481983.60545  14392782.74642  24544507.7814                   24544504.9104
  -9779724.65646  -7617363.10243  22175243.6954                   22175240.6804
 11  8 22 18 44  0.0000000  0  9G17G24G07G08G26G11G13G19G28
 -15198397.03946 -11832215.02744  22529386.4064                   22529386.8914
 -13496595.77746 -10508995.52344  22246931.7734                   22246931.5394
  -5739380.08647  -4470473.07445  20594566.8984                   20594564.6804
 -16433310.16847 -12801703.59445  20329181.5164                   20329179.2504
  -9132271.17646  -7437425.34443  23211159.0704                   23211159.0824
 -12205083.59047  -9503656.00444  21696000.4534                   21695997.9344
                                  24603206.094
  18609698.71546  14492300.96942  24568811.5314                   24568808.7894
  -9781402.83246  -7618670.77743  22174924.6334                   22174921.7194
 11  8 22 18 44 30.0000000  0  9G17G24G07G08G26G11G13G19G28
 -15253344.12146 -11875030.87544  22518930.3524                   22518929.9734
 -13504890.96946 -10515459.28944  22245353.5704                   22245353.0744
  -5689056.60947  -4431260.00445  20604143.7974                   20604140.8284
 -16442618.45347 -12808956.79345  20327410.3674                   20327407.7194
  -9152495.61746  -7453184.61743  23207310.8444                   23207311.1054
 -12168970.09447  -9475515.62144  21702873.1884                   21702869.6844
  22950469.99215                  24628324.844
  18737441.80945  14591840.95742  24593119.7814                   24593116.3954
  -9783061.70746  -7619963.39843  22174608.7814                   22174606.2504
 11  8 22 18 45  0.0000000  0  9G17G24G07G08G26G11G13G19G28
 -15307985.53146 -11917608.54344  22508532.9924                   22508532.2384
 -13512721.98046 -10521561.34844  22243863.7034                   22243862.3444
  -5638261.71147  -4391679.58245  20613809.2894                   20613806.7034
 -16451503.64547 -12815880.32445  20325719.5944                   20325717.2894
  -9172159.73446  -7468507.30543  23203569.4774                   23203568.7384
 -12132292.97347  -9446936.05944  21709852.8134                   21709849.4144
  23082372.074 5                  24653425.273
  18865210.34445  14691400.85542  24617433.3444                   24617430.2344
  -9784701.38346  -7621241.06643  22174296.9844                   22174294.0554
 11  8 22 18 45 30.0000000  0  9G17G24G07G08G26G11G13G19G28
 -15362317.83246 -11959945.33644  22498193.2424                   22498193.0434
 -13520084.61746 -10527298.42644  22242462.1644                   22242461.6564
  -5586992.89147  -4351729.87945  20623565.7424                   20623562.9694
 -16459960.55147 -12822470.11745  20324110.0474                   20324108.1174
  -9191260.03146  -7483390.67644  23199934.2894                   23199933.9344
 -12095050.19947  -9417915.72344  21716939.3754                   21716936.4104
  23214185.469 5                  24678508.492
  18993004.18045  14790980.44542  24641751.9064                   24641747.9494
  -9786320.57446  -7622502.75843  22173988.9694                   22173985.8284
 11  8 22 18 46  0.0000000  0  9G17G24G07G08G26G11G13G19G28
 -15416344.17246 -12002043.71144  22487912.3364                   22487912.4384
 -13526980.82046 -10532672.07444  22241149.8594                   22241148.8324
  -5535253.30947  -4311413.35545  20633411.4614                   20633408.8554
 -16467991.29347 -12828727.84045  20322581.8914                   20322579.9574
  -9209799.48446  -7497836.98844  23196406.2034                   23196406.0164
 -12057245.95747  -9388457.87544  21724133.3594                   21724130.4614
  23345903.633 5                  24703573.820
  19120817.10245  14890574.87542  24666073.2344                   24666069.8524
  -9787923.77746  -7623751.98843  22173683.9534                   22173680.5314
 11  8 22 18 46 30.0000000  0  9G17G24G07G08G26G11G13G19G28
 -15470063.40647 -12043902.79744  22477690.3594                   22477689.4534
 -13533409.17246 -10537681.14544  22239927.1024                   22239925.6914
  -5483043.55947  -4270730.45345  20643346.7734                   20643343.9454
 -16475593.76647 -12834651.85545  20321135.1254                   20321133.3054
  -9227776.93046  -7511845.39144  23192985.8444                   23192985.1454
 -12018880.49647  -9358562.69544  21731433.7734                   21731430.8404
  23477523.777 6                  24728620.852
  19248646.46945  14990182.08242  24690398.5394                   24690395.2544
  -9789511.63746  -7624989.28143  22173381.3364                   22173378.6214
 11  8 22 18 47  0.0000000  0  9G17G24G07G08G26G11G13G19G28
 -17098900.80547
 -13313126.68744                  22167732.8444                   22167731.9224
 -15114792.35946 -11769927.73844  21938999.4224                   21938998.7544
  -7005786.07847  -5457283.09445  20353578.0784                   20353575.9384
 -18058191.03147 -14067844.52745  20019976.9534                   20019974.8794
 -10820616.79746  -8753019.29344  22889877.9304                   22889878.2664
 -13555377.22347 -10555832.87944  21439048.3444   21439045.3404   22033622.766 6
  24453856.164    17801069.95346  13862200.27742  24414933.8594   24414931.6134
 -11366508.71946  -8853818.14143  21873288.7504                   21873285.2074
 11  8 22 18 47 30.0000000  0  9G17G24G07G08G26G11G13G19G28
 -17152003.81647
 -13354505.59045                  22157627.2034                   22157627.0594
 -15120280.15646 -11774203.92244  21937954.6094                   21937954.7034
  -6952636.09447  -5415867.55945  20363692.3134                   20363689.5234
 -18064932.02347 -14073097.25845  20018694.6564                   20018692.8444
 -10837468.82447  -8766150.74244  22886671.3134                   22886671.3674
 -13515890.92247 -10525064.31644  21446562.1334   21446559.5084   22165037.227 6
  24478863.820    17928924.68446  13961827.27743  24439264.5704   24439261.7154
 -11368068.01246  -8855033.17643  21872992.0004                   21872988.4774
 11  8 22 18 48  0.0000000  0  9G17G24G07G08G26G11G13G19G28
 -17204790.46547
 -13395637.98844                  22147582.5234                   22147581.7734
 -15125288.21546 -11778106.27044  21937002.2974                   21937001.8204
  -6899008.82447  -5374080.10246  20373897.5634                   20373894.5824
 -18071232.19547 -14078006.48045  20017495.6644                   20017493.6294
 -10853749.69546  -8778837.14544  22883573.4774                   22883573.4654
 -13475837.97747 -10493854.21944  21454183.9534   21454181.2504   22296351.637 6
  24503852.508    18056795.44546  14061466.76243  24463596.7424   24463594.9734
 -11369607.16046  -8856232.48043  21872699.6954                   21872695.3914
 11  8 22 18 48 30.0000000  0  9G17G24G07G08G26G11G13G19G28
 -17257259.95747
 -13436523.24244                  22137598.4924                   22137596.8324
 -15129814.85246 -11781633.48844  21936140.6174                   21936140.1484
  -6844904.57847  -5331920.97745  20384193.6564                   20384191.1024
 -18077089.65247 -14082570.73845  20016380.7584                   20016379.1884
 -10869458.86746  -8791078.05144  22880583.5004                   22880583.8164
 -13435218.80547 -10462202.92644  21461914.2504   21461910.8984   22427563.340 6
  24528820.852    18184679.62146  14161116.71143  24487933.3594   24487930.5204
 -11371126.59046  -8857416.44943  21872410.6564                   21872406.6884
 11  8 22 18 49  0.0000000  0  8G17G24G07G08G26G11G19G28
 -17309398.10547 -13477150.29744  22127676.1484                   22127675.1254
 -15133845.38346 -11784774.12144  21935373.6724                   21935373.4024
  -6790310.16447  -5289379.90645  20394581.9844                   20394579.4734
 -18082489.52747 -14086778.44146  20015353.2664                   20015351.5394
 -10884582.32846  -8802862.56244  22877705.7974                   22877705.5704
 -13394020.90247 -10430100.64844  21469752.9224                   21469750.8984
                  18312587.78546  14260785.36343  24512273.7974   24512271.2934
 -11372613.93746  -8858575.41443  21872127.0084                   21872124.0124
 11  8 22 18 49 30.0000000  0  8G17G24G07G08G26G11G19G28
 -17361204.19546 -13517518.62544  22117817.8674                   22117816.9774
 -15137378.18046 -11787526.93044  21934701.3444                   21934700.9804
  -6735225.59047  -5246456.88345  20405064.2424                   20405062.1684
 -18087429.78147 -14090627.99645  20014413.4614                   20014411.3364
 -10899119.40246  -8814190.12944  22874940.1804                   22874939.2274
 -13352244.63747 -10397547.71544  21477703.6954                   21477700.2894
                  18440517.65246  14360470.89843  24536618.4694   24536615.3794
 -11374069.76646  -8859709.79743  21871850.4614                   21871846.1994
 11  8 22 18 50  0.0000000  0  8G17G24G07G08G26G11G19G28
 -17412670.78947 -13557622.41044  22108024.1724                   22108023.0234
 -15140405.12546 -11789885.55144  21934124.7114                   21934124.6414
  -6679644.39147  -5203146.88745  20415641.3914                   20415638.4694
 -18091901.62147 -14094112.55145  20013561.8754                   20013560.3674
 -10913062.69946  -8825055.03944  22872286.1884                   22872285.9494
 -13309884.11347 -10364539.52344  21485763.7974                   21485761.3444
                  18568473.71145  14460176.86743  24560967.1414   24560964.8054
 -11375488.33646  -8860815.15243  21871579.6644                   21871576.8954
 11  8 22 18 50 30.0000000  0  8G17G24G07G08G26G11G19G28
 -17463783.08247 -13597450.12944  22098296.8594                   22098296.7034
 -15142910.66446 -11791837.90244  21933648.3364                   21933647.6954
  -6623552.77747  -5159439.16845  20426314.9534                   20426312.5004
 -18095889.37547 -14097219.90645  20012803.3364                   20012801.3014
 -10926397.89146  -8835446.08244  22869748.8754                   22869748.1524
 -13266925.84847 -10331065.55544  21493939.0164                   21493936.1844
                  18696466.91445  14559911.71542  24585322.7974   24585321.5434
 -11376855.98046  -8861880.83243  21871319.2114                   21871316.3094
 11  8 22 18 51  0.0000000  0  8G17G24G07G08G26G11G19G28
 -17514532.49247 -13636995.06644  22088640.0004                   22088639.3874
 -15144885.48447 -11793376.71144  21933272.6724                   21933271.5084
  -6566943.38347  -5115327.97345  20437087.4304                   20437085.2384
 -18099383.66047 -14099942.73845  20012138.4144                   20012136.3984
 -10939116.68046  -8845356.81644  22867328.1094                   22867328.0594
 -13223362.74647 -10297120.27344  21502229.2664                   21502225.9064
                  18824502.85245  14659679.96542  24609686.5234   24609684.4774
 -11378165.89146  -8862901.55143  21871070.7734                   21871067.2974
 11  8 22 18 51 30.0000000  0  8G17G24G07G08G26G11G19G28
 -17564924.77347 -13676261.74244  22079050.9844                   22079050.0474
 -15146334.46146 -11794505.75844  21932996.6804                   21932996.1334
  -6509822.98047  -5070818.60245  20447957.3204                   20447954.5354
 -18102388.59447 -14102284.25045  20011566.8594                   20011564.4304
 -10951224.84046  -8854791.72744  22865024.0004                   22865023.3484
 -13179201.90647 -10262709.23444  21510632.5474                   21510629.2464
                  18952572.49645  14759474.41842  24634059.0634   24634054.2114
 -11379425.19546  -8863882.79743  21870830.8284                   21870827.3284
 11  8 22 18 52  0.0000000  0  8G17G24G07G08G26G11G19G28
 -17614953.00047 -13715244.70344  22069530.3204                   22069529.7234
 -15147250.14546 -11795219.27344  21932823.1884                   21932821.8914
  -6452185.32847  -5025906.18045  20458925.0084                   20458922.3634
 -18104896.34447 -14104238.35245  20011089.2344                   20011086.7274
 -10962715.57446  -8863745.53944  22862836.4454                   22862837.4804
 -13134438.01247 -10227828.28544  21519150.5084                   21519147.7734
                  19080679.824 5                                  24658437.695
 -11380628.01246  -8864820.02743  21870602.0944                   21870599.0744
 11  8 22 18 52 30.0000000  0  8G17G24G07G08G26G11G19G28
 -17664620.12547 -13753946.30544  22060079.5784                   22060079.3364
 -15147634.34446 -11795518.61744  21932749.7894                   21932749.1484
  -6394033.87147  -4980593.39545  20469991.3364                   20469988.6254
 -18106908.68747 -14105806.41445  20010707.0164                   20010703.9614
 -10973591.73846  -8872220.46543  22860768.0084                   22860767.0824
 -13089074.98447 -10192480.48444  21527782.7194                   21527780.0124
                  19208818.984 5                                  24682820.914
 -11381778.40246  -8865716.43043  21870383.4384                   21870380.5984
 11  8 22 18 53  0.0000000  0  8G17G24G07G08G26G11G19G28
 -17713933.64547 -13792372.36744  22050694.9694                   22050694.3134
 -15147494.08646 -11795409.31244  21932776.2424                   21932775.9024
  -6335377.39147  -4934887.09045  20481153.6884                   20481150.4614
 -18108431.64147 -14106993.14545  20010417.1414                   20010413.8484
 -10983861.01646  -8880222.49643  22858813.7584                   22858812.5784
 -13043121.83647 -10156672.86744  21536527.4774                   21536524.4454
                  19336979.191 5                                  24707208.750
 -11382885.38746  -8866579.00043  21870172.3524                   21870169.0234
 11  8 22 18 53 30.0000000  0  7G17G24G07G08G26G11G28
 -17762885.87547 -13830516.90244  22041379.6334                   22041378.7034
 -15146821.18746 -11794884.96144  21932904.5944                   21932903.5664
  -6276209.47747  -4888782.25445  20492412.1254                   20492409.7504
 -18109457.01247 -14107792.14545  20010221.2814                   20010219.0084
 -10993516.35246  -8887746.12143  22856975.5554                   22856975.5664
 -12996572.57447 -10120400.71144  21545385.6724                   21545382.3054
 -11383942.83646  -8867402.98043  21869971.2194                   21869968.1884
 11  8 22 18 54  0.0000000  0  7G17G24G07G08G26G11G28
 -17811479.20747 -13868381.77744  22032133.1024                   22032131.6994
 -15145617.53146 -11793947.01244  21933133.6024                   21933132.6644
  -6216533.44547  -4842281.50445  20503768.5084                   20503766.0084
 -18109986.23447 -14108204.54346  20010120.7974                   20010118.3954
 -11002560.32446  -8894793.36343  22855255.4144                   22855254.8984
 -12949431.43747 -10083667.37544  21554355.8524                   21554353.1024
 -11384954.38346  -8868191.17643  21869778.8444                   21869775.4654
 11  8 22 18 54 30.0000000  0  7G17G24G07G08G26G11G28
 -17859704.66847 -13905960.00044  22022955.7504                   22022954.4844
 -15143873.17647 -11792587.75044  21933465.4304                   21933464.4924
  -6156341.09047  -4795378.41445  20515223.0084                   20515219.9734
 -18110008.94547 -14108222.25446  20010116.6094                   20010114.2114
 -11010984.10546  -8901357.33643  22853652.1414                   22853651.6914
 -12901690.62947 -10046466.76244  21563440.9694                   21563437.9614
 -11385912.13746  -8868937.48043  21869597.1334                   21869593.0634
 11  8 22 18 55  0.0000000  0  7G17G24G07G08G26G11G28
 -17907561.75447 -13943251.17644  22013849.2814                   22013847.9654
 -15141586.96546 -11790806.26244  21933899.8054                   21933899.6174
  -6095632.89547  -4748073.36745  20526775.6564                   20526772.3244
 -18109523.32447 -14107843.85246  20010208.8284                   20010206.4024
 -11018787.42646  -8907437.84843  22852167.4144                   22852166.8554
 -12853350.60547 -10008799.21944  21572639.7274                   21572636.4924
 -11386816.64546  -8869642.26243  21869423.8914                   21869421.0314
 11  8 22 18 55 30.0000000  0  7G17G24G07G08G26G11G28
 -17955061.90647 -13980264.22344  22004809.8594                   22004808.4924
 -15138769.98447 -11788611.19544  21934436.1724                   21934435.2854
  -6034421.76247  -4700376.42645  20538423.6024                   20538420.6024
 -18108540.21547 -14107077.80146  20010396.5864                   20010394.2194
 -11025982.34446  -8913044.27043  22850798.0394                   22850797.0554
 -12804425.30947  -9970675.61344  21581949.7974                   21581946.4024
 -11387681.14546  -8870315.88743  21869259.9064                   21869256.2194
 11  8 22 18 56  0.0000000  0  7G17G24G07G08G26G11G28
 -18002207.16047 -14017000.72344  21995837.9614                   21995837.6374
 -15135423.39146 -11786003.44144  21935073.2424                   21935071.8524
  -5972710.52047  -4652289.78545  20550166.4454                   20550164.7894
 -18107060.09847 -14105924.48046  20010677.9064                   20010675.7504
 -11032571.02346  -8918178.29743  22849543.5784                   22849543.1374
 -12754917.96947  -9932098.48044  21591371.0164                   21591367.7894
 -11388508.76646  -8870960.77343  21869102.4694                   21869099.9804
 11  8 22 18 56 30.0000000  0  7G17G24G07G08G26G11G28
 -18048995.21947 -14053458.90644  21986934.8204                   21986933.4224
 -15131544.02347 -11782980.53144  21935811.2814                   21935810.4964
  -5910497.63747  -4603812.25045  20562005.3594                   20562002.9924
 -18105079.89847 -14104381.47346  20011054.8134                   20011052.6804
 -11038551.35946  -8922838.30943  22848406.7034                   22848406.2034
 -12704827.57447  -9893067.02044  21600902.8834                   21600899.3484
 -11389297.97746  -8871575.74243  21868952.0864                   21868948.8244
 11  8 22 18 57  0.0000000  0  7G17G24G07G08G26G11G28
 -18095434.11747 -14089645.00044  21978097.7814                   21978097.2114
 -15127139.20347 -11779548.16444  21936649.7974                   21936647.9454
  -5847792.21147  -4554950.91045  20573937.9064                   20573935.6764
 -18102605.98847 -14102453.76646  20011525.3594                   20011523.1644
 -11043931.73846  -8927030.80944  22847382.5704                   22847381.5594
 -12654163.47746  -9853588.52044  21610543.1174                   21610541.2624
 -11390057.93046  -8872167.91843  21868808.0784                   21868804.4344
 11  8 22 18 57 30.0000000  0  7G17G24G07G08G26G11G28
 -18141518.16447 -14125554.59044  21969327.6334                   21969326.5784
 -15122202.97346 -11775701.73444  21937588.5704                   21937587.2384
  -5784590.06647  -4505702.51245  20585965.0634                   20585962.0434
 -18099632.13347 -14100136.47746  20012091.3054                   20012089.3094
 -11048706.83646  -8930751.66844  22846473.5314                   22846473.0234
 -12602922.00847  -9813660.10944  21620294.4924                   21620291.8204
 -11390784.33246  -8872733.93444  21868669.5314                   21868666.5004
 11  8 22 18 58  0.0000000  0  7G17G24G07G08G26G11G28
 -18187250.12147 -14161189.83644  21960625.8524                   21960624.1884
 -15116737.43046 -11771442.85544  21938629.2734                   21938627.8404
  -5720894.23447  -4456069.42645  20598086.0554                   20598083.8404
 -18096159.68447 -14097430.67646  20012752.1254                   20012750.7304
 -11052879.69146  -8934003.24244  22845679.5314                   22845680.1024
 -12551107.33247  -9773285.03144  21630154.7734                   21630152.1334
 -11391480.79346  -8873276.63344  21868536.0164                   21868533.9494
 11  8 22 18 58 30.0000000  0  7G17G24G07G08G26G11G28
 -18232630.10547 -14196550.80944  21951990.1644                   21951989.4804
 -15110742.18046 -11766771.20344  21939769.6884                   21939768.8484
  -5656706.52047  -4406053.05145  20610300.4614                   20610298.1134
 -18092188.04747 -14094335.90646  20013507.5944                   20013506.3364
 -11056450.84046  -8936785.96144  22845000.2814                   22844999.6994
 -12498721.18047  -9732464.68444  21640124.0634                   21640121.1414
 -11392148.75446  -8873797.12143  21868409.9694                   21868406.6294
 11  8 22 18 59  0.0000000  0  7G17G24G07G08G26G11G28
 -18277664.98447 -14231642.88345  21943420.4064                   21943419.1764
 -15104223.35946 -11761691.58244  21941009.9844                   21941009.5164
  -5592034.90247  -4355659.61745  20622606.9774                   20622604.5824
 -18087723.16847 -14090856.78946  20014357.3754                   20014355.8054
 -11059427.83246  -8939105.69944  22844433.6254                   22844433.8834
 -12445772.22347  -9691205.76244  21650199.7114                   21650197.2034
 -11392796.24646  -8874301.66043  21868286.5394                   21868283.6724
 11  8 22 18 59 30.0000000  0  7G17G24G07G08G26G11G28
 -18322351.83247 -14266463.75044  21934916.7664                   21934915.8874
 -15097177.54747 -11756201.33644  21942350.8284                   21942350.4534
  -5526877.00447  -4304887.25845  20635006.0314                   20635003.7114
 -18082760.36747 -14086989.67646  20015301.3444                   20015300.0204
 -11061807.90246  -8940960.29344  22843981.4304                   22843979.8874
 -12392258.97347  -9649507.13744  21660382.5634                   21660380.1454
 -11393421.12946  -8874788.57043  21868167.2194                   21868164.5274
 11  8 22 19  0  0.0000000  0  7G17G24G07G08G26G11G28
 -18366690.00847 -14301012.93045  21926479.6484                   21926478.4574
 -15089603.48847 -11750299.43744  21943792.4304                   21943791.8324
  -5461233.50047  -4253736.50445  20647497.8984                   20647495.6334
 -18077298.10947 -14082733.38746  20016340.9694                   20016339.6174
 -11063590.68446  -8942349.49644  22843641.1954                   22843641.4654
 -12338182.14147  -9607369.36744  21670672.7814                   21670670.5824
 -11394023.63346  -8875258.04343  21868052.5944                   21868049.6374
 11  8 22 19  0 30.0000000  0  7G17G24G07G08G26G11G28
 -18410678.93747 -14335289.97345  21918108.1094                   21918107.6914
 -15081499.90247 -11743984.94944  21945334.5944                   21945333.9224
  -5395104.78947  -4202207.67645  20660081.0634                   20660079.4694
 -18071334.85547 -14078086.69946  20017475.4694                   20017474.2194
 -11064776.19146  -8943273.23844  22843415.3134                   22843415.7274
 -12283543.04347  -9564793.44544  21681070.1174                   21681068.1484
 -11394604.27346  -8875710.50044  21867942.1804                   21867938.9344
 11  8 22 19  1  0.0000000  0  7G17G24G07G08G26G11G28
 -18454312.65247 -14369290.22744  21909804.2974                   21909804.3634
 -15072860.40647 -11737252.85244  21946978.6804                   21946977.7624
  -5328486.05947  -4150297.01245  20672758.2664                   20672756.4574
 -18064863.86747 -14073044.38346  20018707.2034                   20018705.1054
 -11065358.89846  -8943727.31243  22843304.1644                   22843305.0784
 -12228337.35947  -9521776.03944  21691575.7034                   21691572.9614
 -11395158.23846  -8876142.16843  21867837.4224                   21867833.3714
 11  8 22 19  1 30.0000000  0  7G17G24G07G08G26G11G28
 -18497594.76647 -14403016.50044  21901568.3674                   21901567.5354
 -15063688.27746 -11730105.71544  21948723.6094                   21948723.1094
  -5261382.08647  -4098008.24245  20685528.3204                   20685525.5864
 -18057887.56247 -14067608.30546  20020034.9534                   20020032.9534
 -11065342.98446  -8943714.90644  22843307.9924                   22843307.3324
 -12172570.33647  -9478321.23444  21702188.5864                   21702185.2584
 -11395690.07046  -8876556.57044  21867735.9454                   21867732.8754
 11  8 22 19  2  0.0000000  0  7G17G24G07G08G26G11G28
 -18540522.03547 -14436466.27044  21893400.0314                   21893399.0824
 -15053979.46546 -11722540.39144  21950571.3524                   21950570.8324
  -5193790.98447  -4045339.89545  20698390.2114                   20698388.1994
 -18050401.51247 -14061775.03146  20021459.5234                   20021457.3054
 -11064725.45746  -8943233.71943  22843425.0784                   22843425.5744
 -12116240.61347  -9434427.95344  21712907.1564                   21712904.8594
 -11396197.63746  -8876952.07844  21867638.3914                   21867636.6954
 11  8 22 19  2 30.0000000  0  7G17G24G07G08G26G11G28
 -18583097.69547 -14469642.06245  21885297.6484                   21885297.1764
 -15043736.66047 -11714558.96144  21952520.3444                   21952519.3594
  -5125716.54747  -3992294.92245  20711343.9064                   20711341.9694
 -18042407.60947 -14055546.02045  20022980.7274                   20022978.6954
 -11063509.98846  -8942286.61343  22843656.8914                   22843656.7934
 -12059352.03947  -9390099.19944  21723732.9304                   21723730.1134
 -11396684.46546  -8877331.43043  21867546.9454                   21867544.0514
 11  8 22 19  3  0.0000000  0  7G17G24G07G08G26G11G28
 -18625314.12947 -14502537.93745  21877264.3054                   21877263.4344
 -15032951.91047 -11706155.24244  21954572.5554                   21954571.9414
  -5057152.17247  -3938868.18745  20724391.9774                   20724389.7704
 -18033897.44947 -14048914.74245  20024600.6644                   20024598.2274
 -11061689.58646  -8940868.13743  22844003.1644                   22844002.0744
 -12001899.35247  -9345330.89544  21734666.0864                   21734663.5354
 -11397143.87946  -8877689.41043  21867458.5704                   21867456.3834
 11  8 22 19  3 30.0000000  0  7G17G24G07G08G26G11G28
 -18667171.47747 -14535153.99245  21869299.4144                   21869298.2274
 -15021625.03946 -11697329.09844  21956727.6564                   21956727.0274
  -4988099.60547  -3885061.04345  20737532.3914                   20737529.5634
 -18024869.82847 -14041880.23845  20026317.8984                   20026316.1134
 -11059265.35946  -8938979.14143  22844464.6334                   22844463.9454
 -11943885.02047  -9300124.94144  21745706.2974                   21745703.7234
 -11397577.40246  -8878027.22343  21867377.3054                   21867373.9064
 11  8 22 19  4  0.0000000  0  7G17G24G07G08G26G11G28
 -18708670.95747 -14567491.20345  21861402.0314                   21861401.1374
 -15009756.41047 -11688080.79344  21958986.2504                   21958985.3834
  -4918561.00447  -3830875.16845  20750764.9534                   20750762.4734
 -18015324.89847 -14034442.64545  20028134.6254                   20028132.5554
 -11056238.35946  -8936620.43743  22845040.5864                   22845039.8014
 -11885311.48047  -9254483.23844  21756851.0784                   21756849.5354
 -11397986.71146  -8878346.16044  21867298.5394                   21867296.4384
 11  8 22 19  4 30.0000000  0  7G17G24G07G08G26G11G28
 -18749818.47747 -14599554.14145  21853571.9144                   21853571.0554
 -14997351.55947 -11678414.65244  21961346.6024                   21961346.3634
  -4848543.36347  -3776316.01645  20764088.9064                   20764086.3054
 -18005267.76247 -14026605.93045  20030048.5554                   20030046.2114
 -11052615.33246  -8933797.33243  22845730.1334                   22845729.4104
 -11826186.30147  -9208411.68044  21768101.9614                   21768099.9144
 -11398378.75046  -8878651.64143  21867223.9694                   21867221.3164
 11  8 22 19  5  0.0000000  0  7G17G24G07G08G26G11G28
 -18790614.60247 -14631343.28945  21845809.2274                   21845807.3954
 -14984410.57847 -11668330.78144  21963810.3594                   21963809.4024
  -4778048.42247  -3721384.95345  20777503.8444                   20777501.1174
 -17994698.03547 -14018369.80545  20032059.8204                   20032057.4964
 -11048397.23046  -8930510.48043  22846533.0234                   22846532.4264
 -11766511.72347  -9161912.02344  21779459.0084                   21779455.8014
 -11398754.73446  -8878944.59444  21867152.8524                   21867149.9384
 11  8 22 19  5 30.0000000  0  7G17G24G07G08G26G11G28
 -18831053.74247 -14662854.25045  21838113.6484                   21838112.5084
 -14970927.61746 -11657824.57844  21966375.4224                   21966374.9304
  -4707071.74647  -3666078.50045  20791009.9304                   20791007.7974
 -17983609.23847 -14009729.19545  20034169.6564                   20034167.4304
 -11043579.26246  -8926756.24243  22847449.6484                   22847449.9024
 -11706283.73447  -9114981.13744  21790919.3524                   21790917.1094
 -11399109.74246  -8879221.23044  21867084.8754                   21867081.9574
 11  8 22 19  6  0.0000000  0  7G17G24G07G08G26G11G28
 -18871137.19147 -14694088.06645  21830486.2734                   21830484.8284
 -14956903.49247 -11646896.69544  21969043.9924                   21969043.7624
  -4635615.83647  -3610398.60945  20804608.1644                   20804605.7114
 -17972001.56247 -14000684.27345  20036379.1024                   20036376.3204
 -11038163.37546  -8922536.04343  22848481.0864                   22848480.3484
 -11645505.64147  -9067621.59844  21802485.3524                   21802482.8094
 -11399446.00046  -8879483.21543  21867021.7504                   21867018.2344
 11  8 22 19  6 30.0000000  0  7G17G24G07G08G26G11G28
 -18910863.77347 -14725043.80945  21822925.9144                   21822924.6374
 -14942336.48047 -11635545.77044  21971816.2274                   21971815.3594
  -4563680.35247  -3554345.03545  20818296.6484                   20818294.2934
 -17959872.46947 -13991233.04345  20038686.9454                   20038684.7154
 -11032148.85546  -8917849.44543  22849625.0234                   22849624.3444
 -11584177.83247  -9019833.71544  21814155.3524                   21814153.2234
 -11399762.94146  -8879730.19544  21866961.1954                   21866957.5274
 11  8 22 19  7  0.0000000  0  7G17G24G07G08G26G11G28
 -18950235.64847 -14755723.14545  21815434.0554                   21815432.5634
 -14927228.31247 -11623773.17644  21974690.7114                   21974690.5044
  -4491269.12147  -3497920.74645  20832076.4774                   20832074.1684
 -17947223.22347 -13981376.50845  20041094.3134                   20041091.6914
 -11025538.64146  -8912698.61343  22850883.4454                   22850882.6454
 -11522304.52347  -8971620.75844  21825929.4534                   21825927.2934
 -11400063.65246  -8879964.51244  21866903.3134                   21866900.9654
 11  8 22 19  7 30.0000000  0  7G17G24G07G08G26G11G28
 -18989254.86747 -14786127.68745  21808008.3914                   21808007.1844
 -14911580.56647 -11611580.13344  21977668.7974                   21977668.3554
  -4418385.05147  -3441128.00845  20845945.5394                   20845943.6564
 -17934054.69547 -13971115.32845  20043599.3914                   20043597.7624
 -11018335.14146  -8907085.50843  22852253.8054                   22852253.2584
 -11459889.39547  -8922985.60944  21837806.2584                   21837804.6134
 -11400350.52346  -8880188.04343  21866848.6174                   21866846.3794
 11  8 22 19  8  0.0000000  0  7G17G24G07G08G26G11G28
 -19027924.54347 -14816259.85245  21800649.8284                   21800648.8094
 -14895395.90247 -11598968.69544  21980748.9614                   21980748.8014
  -4345032.21547  -3383970.00845  20859904.1094                   20859902.3094
 -17920368.62947 -13960450.88345  20046204.4384                   20046202.0204
 -11010542.08246  -8901012.99643  22853736.4614                   22853736.5904
 -11396937.11347  -8873931.89144  21849786.3674                   21849784.2344
 -11400627.36746  -8880403.74644  21866796.4064                   21866793.8714
 11  8 22 19  8 30.0000000  0  7G17G24G07G08G26G11G28
 -19066242.09047 -14846117.62945  21793358.5944                   21793356.9224
 -14878671.70347 -11585936.85244  21983930.6884                   21983930.5784
  -4271209.77347  -3326446.07045  20873952.1254                   20873950.1334
 -17906162.25847 -13949381.00445  20048907.5164                   20048905.5124
 -11002157.96946  -8894479.91443  22855331.8134                   22855331.2734
 -11333447.20747  -8824459.24644  21861868.5234                   21861866.0354
 -11400892.38346  -8880610.25844  21866746.5944                   21866743.4414
 11  8 22 19  9  0.0000000  0  7G17G24G07G08G26G11G28
 -19104209.93747 -14875702.89545  21786133.2194                   21786131.4414
 -14861409.89146 -11572486.09044  21987216.0164                   21987215.2814
  -4196920.85947  -3268558.64545  20888088.8674                   20888086.9414
 -17891436.45747 -13937906.37545  20051709.8984                   20051707.8634
 -10993185.50446  -8887488.40243  22857039.9064                   22857038.7274
 -11269423.39547  -8774570.57444  21874050.8674                   21874049.3364
 -11401148.53146  -8880809.84044  21866698.0634                   21866694.6454
 11  8 22 19  9 30.0000000  0  7G17G24G07G08G26G11G28
 -19141827.93047 -14905015.55945  21778974.8754                   21778973.5554
 -14843610.18746 -11558616.20744  21990603.3914                   21990602.5514
  -4122166.96947  -3210308.90245  20902314.2424                   20902312.0554
 -17876190.88747 -13926026.72345  20054611.0394                   20054609.0554
 -10983625.63346  -8880039.16843  22858859.5164                   22858858.8954
 -11204867.74247  -8724267.47344  21886336.1954                   21886333.8524
 -11401396.46546  -8881003.03143  21866649.5394                   21866647.0044
 11  8 22 19 10  0.0000000  0  7G17G24G07G08G26G11G28
 -19179092.06647 -14934052.48445  21771883.7584                   21771882.0554
 -14825267.86346 -11544323.46944  21994092.8364                   21994092.8014
  -4046944.98047  -3151694.41045  20916628.5864                   20916626.5594
 -17860419.96147 -13913737.71945  20057612.2114                   20057610.0394
 -10973474.62946  -8872129.30143  22860789.9924                   22860789.5784
 -11139777.73447  -8673548.00844  21898721.7894                   21898719.7704
 -11401632.26246  -8881186.77044  21866604.7034                   21866601.9884
 11  8 22 19 10 30.0000000  0  7G17G24G07G08G26G11G28
 -19216003.71947 -14962814.75045  21764859.6484                   21764857.6684
 -14806383.78946 -11529608.61744  21997686.6024                   21997686.7894
  -3971256.96147  -3092716.78545  20931031.1884                   20931029.5824
 -17844123.99647 -13901039.58645  20060713.2894                   20060711.5044
 -10962734.49246  -8863760.36743  22862834.0784                   22862833.7034
 -11074156.67647  -8622414.72744  21911209.2814                   21911206.6414
 -11401857.66846  -8881362.40644  21866561.8284                   21866559.5434
 11  8 22 19 11  0.0000000  0  7G17G24G07G08G26G11G28
 -19252565.56647 -14991304.44545  21757902.3364                   21757900.0944
 -14786960.25846 -11514473.38344  22001383.1024                   22001382.6024
  -3895107.30147  -3033379.44145  20945522.4844                   20945520.3164
 -17827304.36347 -13887933.41445  20063913.9844                   20063911.9734
 -10951408.77746  -8854935.15243  22864989.7274                   22864988.6294
 -11008008.94547  -8570871.05144  21923796.3834                   21923794.6374
 -11402076.53146  -8881532.96543  21866520.9224                   21866517.7234
 11  8 22 19 11 30.0000000  0  7G17G24G07G08G26G11G28
 -19288780.28147 -15019523.66444  21751010.3284                   21751009.2854
 -14766999.88746 -11498919.84444  22005181.6024                   22005181.0824
  -3818499.90247  -2973685.42245  20960100.2194                   20960098.5514
 -17809963.32447 -13874420.94545  20067213.3834                   20067211.6604
 -10939501.18446  -8845656.49643  22867254.8834                   22867254.6844
 -10941339.18447  -8518920.60244  21936483.4774                   21936481.1954
 -11402291.81646  -8881700.69143  21866478.7344                   21866476.2424
 11  8 22 19 12  0.0000000  0  7G17G24G07G08G26G11G28
 -19324647.05947 -15047471.76245  21744184.6724                   21744184.0904
 -14746501.65246 -11482947.18044  22009080.9614                   22009081.4144
  -3741435.24247  -2913635.08246  20974764.9924                   20974763.3444
 -17792098.85547 -13860500.59445  20070613.0474                   20070611.5044
 -10927011.58646  -8835924.37143  22869631.6174                   22869631.3404
 -10874148.53547  -8466564.27744  21949269.3054                   21949267.0004
 -11402503.13346  -8881865.37144  21866438.9384                   21866435.8054
 11  8 22 19 12 30.0000000  0  7G17G24G07G08G26G11G28
 -19360167.02747 -15075149.62545  21737426.1484                   21737424.8594
 -14725466.46946 -11466556.13344  22013084.6724                   22013084.6294
  -3663915.95347  -2853230.49245  20989516.7734                   20989514.5274
 -17773711.35547 -13846172.69146  20074112.3984                   20074110.5984
 -10913941.91046  -8825740.19943  22872118.4064                   22872118.1484
 -10806440.20347  -8413804.55944  21962153.9534                   21962151.8404
 -11402712.34846  -8882028.39144  21866399.5314                   21866396.1954
 11  8 22 19 13  0.0000000  0  7G17G24G07G08G26G11G28
 -19395338.37147 -15102555.82845  21730732.4064                   21730732.0164
 -14703891.89146 -11449744.77044  22017190.5704                   22017189.9304
  -3585940.57047  -2792470.50845  21004354.7584                   21004352.6254
 -17754797.39547 -13831434.56246  20077711.5234                   20077709.6054
 -10900290.55146  -8815102.80543  22874716.7194                   22874716.0864
 -10738213.35547  -8360640.79344  21975136.9454                   21975134.8754
 -11402917.09047  -8882187.92644  21866361.3914                   21866357.4104
 11  8 22 19 13 30.0000000  0  7G17G24G07G08G26G11G28
 -19430158.64847 -15129688.47745  21724106.8524                   21724105.6094
 -14681775.74647 -11432511.39844  22021399.1254                   22021397.9964
  -3507508.64147  -2731354.77045  21019279.8594                   21019277.8444
 -17735354.39547 -13816284.19545  20081411.9064                   20081409.7154
 -10886056.68046  -8804011.48843  22877425.3284                   22877425.1414
 -10669468.28946  -8307073.24644  21988218.4694                   21988216.4924
 -11403116.20347  -8882343.09044  21866322.3444                   21866319.7544
 11  8 22 19 14  0.0000000  0  7G17G24G07G08G26G11G28
 -19464622.62547 -15156543.49245  21717548.6484                   21717547.2624
 -14659112.08647 -11414851.39144  22025711.1954                   22025710.9344
  -3428615.79347  -2669879.88745  21034292.8674                   21034291.2704
 -17715375.77047 -13800716.44945  20085213.2504                   20085211.2894
 -10871235.71146  -8792462.68043  22880245.9774                   22880244.8094
 -10600201.38347  -8253099.06644  22001400.6254                   22001397.8404
 -11403304.53547  -8882489.82844  21866287.5554                   21866284.1254
 11  8 22 19 14 30.0000000  0  7G17G24G07G08G26G11G28
 -19498734.45347 -15183124.09045  21711057.4064                   21711056.3674
 -14635904.75046 -11396767.75444  22030128.1254                   22030127.3014
  -3349267.64547  -2608050.20745  21049392.1724                   21049390.0084
 -17694864.80947 -13784733.90646  20089116.3754                   20089114.6414
 -10855832.53146  -8780460.21943  22883176.3674                   22883176.6374
 -10530418.51246  -8198722.82844  22014679.0234                   22014676.9804
 -11403486.73046  -8882631.80144  21866252.4304                   21866248.7274
 11  8 22 19 15  0.0000000  0  7G17G24G07G08G26G11G28
 -19532493.55147 -15209429.84045  21704632.8204                   21704631.4344
 -14612152.99247 -11378259.88744  22034647.2664                   22034646.9494
  -3269464.54747  -2545866.03145  21064578.4924                   21064576.5594
 -17673819.96147 -13768335.34445  20093120.9534                   20093118.9064
 -10839846.87546  -8768003.87143  22886217.7664                   22886218.2584
 -10460120.62947  -8143945.28944  22028056.6954                   22028054.1174
 -11403662.26247  -8882768.56643  21866219.1564                   21866215.3244
 11  8 22 19 15 30.0000000  0  7G17G24G07G08G26G11G28
 -19565902.84047 -15235463.00445  21698275.7894                   21698274.1214
 -14587859.68047 -11359330.02344  22039270.6414                   22039270.2584
  -3189210.87147  -2483330.74645  21079850.1334                   21079848.1684
 -17652243.60547 -13751522.62145  20097227.1804                   20097224.9534
 -10823283.35246  -8755097.27743  22889370.6644                   22889370.2624
 -10389313.06647  -8088770.60943  22041531.0944                   22041528.1564
 -11403834.50447  -8882902.80144  21866186.4064                   21866182.6054
 11  8 22 19 16  0.0000000  0  7G17G24G07G08G26G11G28
 -19598954.96547 -15261217.86745  21691985.7584                   21691984.5904
 -14563016.89547 -11339972.00444  22043998.1414                   22043997.3324
  -3108500.46547  -2420439.56645  21095209.0164                   21095206.6604
 -17630127.00047 -13734288.92245  20101435.7194                   20101433.5394
 -10806134.77746  -8741734.78943  22892634.6484                   22892633.6994
 -10317990.04346  -8033194.23844  22055103.3364                   22055101.0514
 -11403996.26247  -8883028.84444  21866154.9384                   21866152.1214
 11  8 22 19 16 30.0000000  0  7G17G24G07G08G26G11G28
 -19631659.39147 -15286701.79745  21685762.5004                   21685761.3284
 -14537634.33246 -11320193.37944  22048828.4614                   22048826.9024
  -3027343.87947  -2357200.71945  21110652.1644                   21110650.2814
 -17607478.83247 -13716641.01245  20105745.6954                   20105743.2464
 -10788411.83246  -8727924.72743  22896007.0474                   22896006.0634
 -10246163.05947  -7977225.19144  22068771.1564                   22068769.1374
 -11404157.53946  -8883154.51644  21866124.5394                   21866121.0744
 11  8 22 19 17  0.0000000  0  7G17G24G07G08G26G11G28
 -19664018.09047 -15311916.33645  21679604.7584                   21679603.5744
 -14511713.78946 -11299995.56244  22053760.4614                   22053759.4264
  -2945744.66447  -2293616.96545  21126180.0704                   21126178.2854
 -17584300.28547 -13698579.82445  20110156.4304                   20110154.3554
 -10770117.55146  -8713669.48043  22899487.6644                   22899487.7344
 -10173835.88347  -7920866.38344  22082535.1174                   22082532.9224
 -11404320.18747  -8883281.25443  21866093.7974                   21866089.9574
 11  8 22 19 17 30.0000000  0  7G17G24G07G08G26G11G28
 -19696032.36747 -15336862.48845  21673512.8524                   21673511.1024
 -14485256.22347 -11279379.25444  22058795.9924                   22058794.4654
  -2863705.37547  -2229690.30145  21141791.7814                   21141790.2704
 -17560591.78147 -13680105.68745  20114667.3204                   20114665.6564
 -10751253.96146  -8698970.61743  22903077.8754                   22903077.1914
 -10101011.60947  -7864120.21544  22096392.8284                   22096390.5594
 -11404485.75046  -8883410.25844  21866062.0944                   21866058.6024
 11  8 22 19 18  0.0000000  0  7G17G24G07G08G26G11G28
 -19727691.62947 -15361532.00845  21667488.1174                   21667486.6564
 -14458250.69547 -11258335.98044  22063934.0784                   22063933.4104
  -2781216.32047  -2165413.17645  21157489.4384                   21157487.1054
 -17536341.56247 -13661209.43045  20119282.4064                   20119280.3714
 -10731811.14846  -8683820.39143  22906777.7114                   22906777.4574
 -10027681.55947  -7806979.94944  22110347.2814                   22110344.5554
 -11404643.77046  -8883533.39144  21866031.3914                   21866028.6994
 11  8 22 19 18 30.0000000  0  7G17G24G07G08G26G11G28
 -19758992.46147 -15385922.23045  21661532.0314                   21661530.2114
 -14430693.80947 -11236863.08244  22069178.0394                   22069177.6334
  -2698275.87147  -2100784.31245  21173272.0864                   21173270.7854
 -17511545.46947 -13641887.82045  20124001.4144                   20123999.5594
 -10711786.96546  -8668217.18043  22910588.2194                   22910587.6134
  -9953844.48047  -7749444.59444  22124398.2504                   22124395.1954
 -11404791.42646  -8883648.44544  21866003.4064                   21866001.2154
 11  8 22 19 19  0.0000000  0  7G17G24G07G08G26G11G28
 -19789945.33247 -15410041.32445  21655640.6254                   21655640.1134
 -14402595.99646 -11214968.67244  22074525.3914                   22074524.2304
  -2614895.51247  -2035812.66045  21189139.2664                   21189137.4144
 -17486213.11747 -13622148.35545  20128821.6414                   20128819.4774
 -10691192.81246  -8652169.80943  22914507.6724                   22914506.4734
  -9879512.77747  -7691523.79744  22138542.6254                   22138539.9304
 -11404938.74246  -8883763.24244  21865976.3754                   21865972.8554
 11  8 22 19 19 30.0000000  0  7G17G24G07G08G26G11G28
 -19820544.55147 -15433884.84445  21649818.5164                   21649817.1724
 -14373951.56246 -11192648.33244  22079976.0704                   22079975.1524
  -2531071.05147  -1970494.94945  21205090.6254                   21205088.6134
 -17460337.99247 -13601985.93745  20133745.0864                   20133743.5554
 -10670024.15246  -8635674.78543  22918534.6644                   22918534.0204
  -9804682.75047  -7633214.70744  22152783.2504                   22152780.2074
 -11405080.74646  -8883873.91444  21865948.7034                   21865945.1604
 11  8 22 19 20  0.0000000  0  7G17G24G07G08G26G11G28
 -19850785.44547 -15457449.12945  21644064.1724                   21644062.6094
 -14344755.20347 -11169897.93444  22085532.5704                   22085531.3794
  -2446798.92647  -1904828.40645  21221127.0474                   21221125.5904
 -17433914.51647 -13581396.24245  20138773.6954                   20138771.9264
 -10648276.93746  -8618728.94943  22922673.3914                   22922673.3244
  -9729351.16846  -7574514.80144  22167117.7114                   22167114.8594
 -11405212.40247  -8883976.49644  21865923.6254                   21865920.4734
 11  8 22 19 20 30.0000000  0  7G17G24G07G08G26G11G28
 -19880672.34847 -15480737.59045  21638376.9064                   21638374.5704
 -14315011.36747 -11146720.90644  22091191.5864                   22091190.9694
  -2362084.45347  -1838817.18045  21237247.5394                   21237245.8834
 -17406946.33247 -13560382.09845  20143905.5474                   20143903.9454
 -10625956.65246  -8601336.53543  22926920.4924                   22926919.9534
  -9653524.45747  -7515429.08244  22181546.9924                   22181544.6254
 -11405337.93746  -8884074.32444  21865900.0394                   21865896.2114
 11  8 22 19 21  0.0000000  0  7G17G24G07G08G26G11G28
 -19910197.04347 -15503743.80545  21632759.2114                   21632756.8554
 -14284711.68446 -11123110.78144  22096957.2814                   22096957.1254
  -2276921.05947  -1772456.13745  21253453.4064                   21253451.8484
 -17379424.14847 -13538936.27045  20149143.1094                   20149140.9694
 -10603055.79746  -8583491.74243  22931278.5704                   22931278.6374
  -9577196.37547  -7455952.70344  22196071.8914                   22196069.1644
 -11405449.53946  -8884161.30144  21865878.2034                   21865875.4344
 11  8 22 19 21 30.0000000  0  7G17G24G07G08G26G11G28
 -19939358.73447 -15526467.15645  21627209.1024                   21627207.2304
 -14253855.50846 -11099067.00044  22102828.8834                   22102828.6884
  -2191309.17247  -1705745.62945  21269745.0394                   21269743.7194
 -17351346.73847 -13517057.79345  20154485.7584                   20154483.9694
 -10579575.02346  -8565195.03143  22935747.7344                   22935746.7734
  -9500368.12547  -7396086.55944  22210692.3444                   22210688.9924
 -11405546.51246  -8884236.85544  21865859.8054                   21865857.1954
 11  8 22 19 22  0.0000000  0  7G17G24G07G08G26G11G28
 -19968161.86347 -15548911.10945  21621728.0394                   21621726.2544
 -14222447.16446 -11074592.99244  22108806.6334                   22108805.7074
  -2105254.72347  -1638690.27045  21286120.8054                   21286118.8134
 -17322717.30547 -13494749.16445  20159933.5314                   20159931.8674
 -10555519.73046  -8546450.66843  22940324.8204                   22940324.2584
  -9423046.20346  -7335835.73043  22225405.8524                   22225402.6844
 -11405633.01646  -8884304.26244  21865844.4844                   21865840.6914
 11  8 22 19 22 30.0000000  0  7G17G24G07G08G26G11G28
 -19996607.94947 -15571076.85945  21616315.0164                   21616313.4774
 -14190488.14846 -11049689.85244  22114887.8134                   22114887.2304
  -2018760.62547  -1571292.33245  21302579.6644                   21302578.3674
 -17293536.73447 -13472011.08645  20165487.2034                   20165484.8404
 -10530892.57446  -8527260.70743  22945010.7974                   22945010.6214
  -9345234.39147  -7275203.18443  22240213.1884                   22240210.0124
 -11405710.96946  -8884365.02044  21865828.5784                   21865825.7424
 11  8 22 19 23  0.0000000  0  7G17G24G07G08G26G11G28
 -20024697.17247 -15592964.52045  21610969.3914                   21610967.9964
 -14157978.32846 -11024357.55944  22121074.2814                   22121073.4694
  -1931828.09047  -1503552.75045  21319122.9614                   21319121.0634
 -17263804.39547 -13448843.05545  20171145.5234                   20171142.9884
 -10505694.73046  -8507626.03143  22949805.7664                   22949805.3984
  -9266934.28547  -7214190.15244  22255112.9844                   22255110.5234
 -11405779.94946  -8884418.76244  21865814.4224                   21865812.6374
 11  8 22 19 23 30.0000000  0  7G17G24G07G08G26G11G28
 -21627853.23847 -16842177.01245  21305898.9614                   21305897.5124
 -15700339.41847 -12226197.36344  21827573.3204                   21827572.4024
  -3419878.43047  -2663072.56345  21035956.5004                   21035954.0864
 -18808941.25047 -14652845.82445  19877114.9454                   19877112.5474
 -12055349.14146  -9715148.96543  22654916.3054                   22654916.0124
 -10763568.10247  -8380398.34843  21970313.2194                   21970310.0704
 -12981262.79346 -10112067.74244  21566012.4694                   21566008.6134
 11  8 22 19 24  0.0000000  0  7G17G24G07G08G26G11G28
 -21655229.43446 -16863509.07445  21300689.4454                   21300688.1334
 -15666728.78546 -12200007.27044  21833968.7814                   21833967.9144
  -3332073.85547  -2594653.47345  21052664.7344                   21052663.0124
 -18778103.62947 -14628816.53945  19882983.3134                   19882981.0824
 -12029013.37146  -9694627.59043  22659928.2504                   22659927.3674
 -10684297.99646  -8318629.47744  21985397.5234                   21985395.1604
 -12981314.26646 -10112107.85944  21566001.8594                   21565999.0704
 11  8 22 19 24 30.0000000  0  7G17G24G07G08G26G11G28
 -21682253.94547 -16884567.11345  21295546.6334                   21295545.3244
 -15632572.54346 -12173392.02744  21840468.1724                   21840468.0164
  -3243839.87947  -2525899.78945  21069455.3284                   21069452.9924
 -18746717.11747 -14604359.53545  19888955.4844                   19888954.1524
 -12002115.22346  -9673668.02743  22665046.0164                   22665045.6254
 -10604550.51247  -8256488.59843  22000572.9694                   22000570.8014
 -12981361.79746 -10112144.89544  21565993.1644                   21565989.6844
 11  8 22 19 25  0.0000000  0  7G17G24G07G08G26G11G28
 -21708925.84847 -16905350.38345  21290471.0394                   21290469.5394
 -15597869.97346 -12146351.07844  21847072.3754                   21847071.8674
  -3155177.32047  -2456812.13345  21086327.4304                   21086325.2664
 -18714780.29747 -14579473.72745  19895033.4534                   19895031.4264
 -11974655.26646  -9652270.66043  22670271.7894                   22670271.2854
 -10524327.40646  -8193977.10543  22015839.3914                   22015836.4064
 -12981404.58246 -10112178.23444  21565982.2274                   21565980.8594
 11  8 22 19 25 30.0000000  0  7G17G24G07G08G26G11G28
 -21735243.32846 -16925857.48445  21285462.9224                   21285461.4144
 -15562618.88747 -12118882.70744  21853779.7974                   21853779.4614
  -3066085.14547  -2387389.70745  21103280.8054                   21103279.1174
 -18682290.28947 -14554156.85945  19901215.6954                   19901214.0944
 -11946632.39546  -9630434.69143  22675604.2424                   22675604.6484
 -10443627.68446  -8131094.25843  22031196.1484                   22031193.1994
 -12981440.24246 -10112206.01244  21565976.3914                   21565974.5394
 11  8 22 19 26  0.0000000  0  7G17G24G07G08G26G11G28
 -21761207.38347 -16946089.19145  21280522.2974                   21280520.5314
 -15526820.41846 -12090987.80944  21860592.1334                   21860591.8954
  -2976565.86347  -2317634.46945  21120315.9064                   21120314.9184
 -18649247.41447 -14528409.18745  19907503.8284                   19907502.0514
 -11918048.69546  -9608161.69943  22681043.5784                   22681043.8714
 -10362454.75846  -8067842.64544  22046642.5314                   22046639.3954
 -12981469.70746 -10112228.96144  21565971.0474                   21565969.1054
 11  8 22 19 26 30.0000000  0  7G17G24G07G08G26G11G28
 -21786814.92247 -16966043.07845  21275649.4064                   21275647.7274
 -15490472.05947 -12062664.42244  21867508.7584                   21867508.6844
  -2886618.27347  -2247545.48045  21137432.5084                   21137430.9924
 -18615648.09047 -14502227.91845  19913897.2194                   19913895.7544
 -11888902.73846  -9585450.59044  22686590.6174                   22686589.9144
 -10280808.29746  -8004222.03544  22062179.2664                   22062176.5784
 -12981489.96146 -10112244.75844  21565968.2664                   21565965.3134
 11  8 22 19 27  0.0000000  0  7G17G24G07G08G26G11G28
 -21812066.43747 -16985719.56645  21270843.6884                   21270842.7384
 -15453573.85247 -12033912.57044  21874530.5634                   21874530.4964
  -2796243.87947  -2177123.92645  21154630.6484                   21154628.9774
 -18581491.46147 -14475612.38745  19920396.9694                   19920395.5594
 -11859195.75846  -9562302.29743  22692243.6804                   22692242.7304
 -10198690.11746  -7940233.90244  22077805.5474                   22077803.7664
 -12981500.90646 -10112253.30144  21565964.3364                   21565963.7854
 11  8 22 19 27 30.0000000  0  7G17G24G07G08G26G11G28
 -21836966.67247 -17005122.30545  21266105.7814                   21266104.3594
 -15416130.51647 -12004735.97344  21881655.6174                   21881655.1334
  -2705448.68447  -2106374.48445  21171908.2034                   21171906.5664
 -18546782.14847 -14448566.19545  19927002.3674                   19927000.2234
 -11828933.52746  -9538721.35243  22698001.6564                   22698002.0354
 -10116106.91446  -7875883.36344  22093520.9454                   22093518.4414
 -12981506.85546 -10112257.94544  21565965.2974                   21565962.3524
 11  8 22 19 28  0.0000000  0  7G17G24G07G08G26G11G28
 -21861501.81247 -17024240.57045  21261436.4384                   21261435.5204
 -15378128.34047 -11975123.90244  21888887.7974                   21888887.4224
  -2614220.10547  -2035287.33645  21189268.4534                   21189266.8874
 -18511505.68047 -14421078.06245  19933715.5314                   19933713.1454
 -11798103.55946  -9514698.02343  22703869.1174                   22703868.8554
 -10033046.80146  -7811161.22744  22109326.6334                   22109324.4844
 -12981493.50447 -10112247.55544  21565966.6024                   21565964.6334
 11  8 22 19 28 30.0000000  0  7G17G24G07G08G26G11G28
 -21885678.32847 -17043079.38345  21256836.5784                   21256835.1644
 -15339574.10247 -11945081.65244  21896224.3054                   21896224.1094
  -2522566.53947  -1963869.03145  21206709.7894                   21206707.8134
 -18475667.67247 -14393152.36345  19940535.1724                   19940533.2384
 -11766713.90646  -9490238.56243  22709842.6024                   22709842.2384
  -9949518.39847  -7746074.19144  22125222.1724                   22125219.3484
 -12981467.75847 -10112227.50044  21565971.5394                   21565969.0984
 11  8 22 19 29  0.0000000  0  7G17G24G07G08G26G11G28
 -21909496.07047 -17061638.63345  21252303.7734                   21252302.4574
 -15300467.63747 -11914609.07844  21903666.2344                   21903664.9494
  -2430488.78147  -1892120.19945  21224230.2894                   21224229.7464
 -18439267.30147 -14364788.45745  19947461.8444                   19947459.8284
 -11734765.49246  -9465343.74643  22715921.3834                   22715921.4884
  -9865523.51247  -7680623.67643  22141205.6804                   22141202.8984
 -12981428.79747 -10112197.13744  21565980.4844                   21565977.3444
 11  8 22 19 29 30.0000000  0  7G17G24G07G08G26G11G28
 -21932956.05147 -17079919.10945  21247839.7974                   21247838.3204
 -15260809.84047 -11883706.91044  21911212.8204                   21911211.9884
  -2337988.68047  -1820042.25845  21241833.6884                   21241832.3364
 -18402304.83647 -14335986.56245  19954495.7274                   19954493.7664
 -11702260.04346  -9440014.84443  22722108.0784                   22722106.4304
  -9781064.84046  -7614811.75844  22157277.3444                   22157275.0824
 -12981376.88347 -10112156.69944  21565988.5004                   21565986.9574
 11  8 22 19 30  0.0000000  0  7G17G24G07G08G26G11G28
 -21956057.97747 -17097920.58245  21243443.4774                   21243441.8524
 -15220600.94547 -11852375.32844  21918864.3284                   21918863.4884
  -2245068.20747  -1747636.74645  21259515.9694                   21259514.0904
 -18364779.57047 -14306746.12945  19961636.8364                   19961634.9024
 -11669199.09046  -9414253.08243  22728398.5554                   22728398.9884
  -9696144.60546  -7548640.16843  22173437.4694                   22173434.3754
 -12981311.68447 -10112105.89844  21566001.8524                   21565998.9024
 11  8 22 19 30 30.0000000  0  7G17G24G07G08G26G11G28
 -21978801.51647 -17115642.80145  21239115.7664                   21239114.1564
 -15179840.56647 -11820614.00844  21926620.8914                   21926619.9534
  -2151727.97747  -1674904.16445  21277277.4534                   21277276.5824
 -18326690.58647 -14277066.43045  19968884.6644                   19968882.7584
 -11635583.39846  -9388059.08243  22734795.7424                   22734795.5904
  -9610764.20746  -7482110.03543  22189684.4844                   22189681.9884
 -12981232.67247 -10112044.32844  21566016.6564                   21566013.7624
 11  8 22 19 31  0.0000000  0  7G17G24G07G08G26G11G28
 -22001189.01647 -17133087.55545  21234855.4924                   21234853.5824
 -15138531.30947 -11788424.99644  21934481.3364                   21934480.9534
  -2057971.81347  -1601847.48045  21295119.1414                   21295117.8834
 -18288039.34047 -14246948.60246  19976239.6024                   19976238.1684
 -11601416.49646  -9361435.55943  22741297.6094                   22741296.8094
  -9524927.91847  -7415224.66843  22206018.8914                   22206015.9804
 -12981141.50847 -10111973.30144  21566034.2344                   21566031.3794
 11  8 22 19 31 30.0000000  0  7G17G24G07G08G26G11G28
 -22023213.48447 -17150249.44945  21230663.8444                   21230662.1024
 -15096666.23847 -11755802.88344  21942448.0084                   21942447.4144
  -1963794.06647  -1528462.27045  21313040.6414                   21313039.1054
 -18248818.18747 -14216386.69545  19983703.4224                   19983701.6214
 -11566692.57046  -9334377.99243  22747905.4694                   22747904.8244
  -9438630.54746  -7347980.00043  22222440.3914                   22222438.6094
 -12981030.64847 -10111886.92244  21566055.9454                   21566052.5904
 11  8 22 19 32  0.0000000  0  7G17G24G07G08G26G11G28
 -22044874.32847 -17167127.99245  21226542.5004                   21226540.3204
 -15054244.71947 -11722747.17644  21950520.6024                   21950519.7934
  -1869195.41047  -1454749.09845  21331042.3284                   21331040.7384
 -18209025.85947 -14185379.71946  19991275.1564                   19991273.8324
 -11531412.23046  -9306886.83243  22754618.9614                   22754618.9844
  -9351873.58247  -7280377.19943  22238949.9774                   22238947.7664
 -12980898.89147 -10111784.25844  21566080.3204                   21566077.5084
 11  8 22 19 32 30.0000000  0  7G17G24G07G08G26G11G28
 -22066173.34047 -17183724.59445  21222489.2974                   21222487.0594
 -15011269.14147 -11689259.70744  21958699.2034                   21958697.7344
  -1774179.24647  -1380710.57845  21349123.3674                   21349121.3244
 -18168664.16047 -14153929.07845  19998955.7664                   19998954.3634
 -11495579.16846  -9278964.99243  22761438.5634                   22761437.1414
  -9264661.06646  -7212419.44943  22255546.0394                   22255544.1214
 -12980748.13347 -10111666.79344  21566109.6724                   21566106.3874
 11  8 22 19 33  0.0000000  0  7G17G24G07G08G26G11G28
 -22087116.07447 -17200043.57045  21218503.7034                   21218501.5904
 -14967745.12147 -11655344.90244  21966980.7344                   21966979.9344
  -1678752.20747  -1306351.90645  21367283.1024                   21367280.4804
 -18127737.76647 -14122038.42245  20006744.0634                   20006742.7934
 -11459199.85946  -9250617.50843  22768359.9454                   22768360.3204
  -9177000.19946  -7144112.32443  22272227.1724                   22272224.8364
 -12980582.79347 -10111537.94944  21566140.4144                   21566137.3484
 11  8 22 19 33 30.0000000  0  7G17G24G07G08G26G11G28
 -22107689.63347 -17216074.89145  21214588.7814                   21214586.7034
 -14923660.12947 -11620992.99244  21975370.0164                   21975369.2854
  -1582903.10247  -1231664.35545  21385521.9384                   21385520.6254
 -18086233.12547 -14089697.17645  20014641.9694                   20014640.6024
 -11422262.76646  -9221835.40243  22775389.5004                   22775389.4804
  -9088880.39546  -7075447.60943  22288995.4924                   22288993.9344
 -12980389.70747 -10111387.49644  21566177.6024                   21566174.5354
 11  8 22 19 34  0.0000000  0  7G17G24G07G08G26G11G28
 -22127893.72747 -17231818.30545  21210744.3834                   21210742.0984
 -14879013.87547 -11586203.71144  21983866.2734                   21983865.1844
  -1486632.79347  -1156648.60245  21403841.6884                   21403839.8524
 -18044149.24247 -14056904.58245  20022650.4844                   20022648.9264
 -11384768.77346  -9192619.33643  22782523.9694                   22782523.6414
  -9000303.22346  -7006426.46143  22305852.2034                   22305849.4534
 -12980167.85947 -10111214.63345  21566219.2114                   21566216.2034
 11  8 22 19 34 30.0000000  0  7G17G24G07G08G26G11G28
 -22147729.71547 -17247274.88745  21206969.4144                   21206967.5354
 -14833807.77047 -11550978.19944  21992468.0164                   21992467.5744
  -1389944.05547  -1081306.80145  21422241.5944                   21422239.8054
 -18001487.03147 -14023661.34045  20030768.9224                   20030767.2704
 -11346720.46146  -9162971.32844  22789764.8134                   22789764.1844
  -8911271.64546  -6937051.25443  22322793.8364                   22322791.1684
 -12979917.86347 -10111019.84445  21566266.8284                   21566264.3444
 11  8 22 19 35  0.0000000  0  7G17G24G07G08G26G11G28
 -22167190.40247 -17262439.03145  21203266.4614                   21203264.3524
 -14788034.85947 -11515311.01244  22001179.4614                   22001177.9384
  -1292831.16847  -1005634.48845  21440720.5314                   21440719.5354
 -17958238.77047 -13989961.43045  20038998.4614                   20038997.3364
 -11308112.30546  -9132887.10243  22797111.9924                   22797111.3164
  -8821780.91046  -6867318.25043  22339822.2034                   22339820.5904
 -12979632.11347 -10110797.17644  21566321.2974                   21566319.0044
 11  8 22 19 35 30.0000000  0  7G17G24G07G08G26G11G28
 -22186279.46147 -17277313.59845  21199634.0554                   21199632.1094
 -14741699.11347 -11479205.26644  22009996.4614                   22009996.3054
  -1195298.96947   -929635.44144  21459280.4844                   21459279.4694
 -17914407.67247 -13955807.35945  20047339.5864                   20047337.8014
 -11268949.26646  -9102370.46543  22804563.6414                   22804563.9654
  -8731836.77346  -6797231.96143  22356939.3914                   22356936.8594
 -12979313.63347 -10110549.00845  21566382.2584                   21566379.3014
 11  8 22 19 36  0.0000000  0  7G17G24G07G08G26G11G28
 -22205000.38347 -17291901.32045  21196070.7114                   21196069.6604
 -14694804.47347 -11442664.01644  22018920.6094                   22018919.2854
  -1097352.66847   -853313.71144  21477918.7814                   21477917.4884
 -17869996.92647 -13921201.62545  20055790.8984                   20055788.9654
 -11229236.24646  -9071425.30143  22812121.3054                   22812121.0474
  -8641444.33646  -6726796.33644  22374140.5394                   22374137.8324
 -12978965.27747 -10110277.57045  21566448.6484                   21566445.1684
 11  8 22 19 36 30.0000000  0  7G17G24G07G08G26G11G28
 -22223353.01247 -17306202.05545  21192578.6174                   21192576.9304
 -14647350.86747 -11405687.19544  22027950.2344                   22027949.5984
   -998993.37547   -776670.16845  21496636.1254                   21496635.2934
 -17825005.82047 -13886143.64545  20064352.5704                   20064350.4574
 -11188974.53146  -9040052.56243  22819782.6024                   22819782.0554
  -8550605.68046  -6656013.00044  22391426.9844                   22391423.7704
 -12978586.13747 -10109982.13745  21566520.0704                   21566517.6844
 11  8 22 19 37  0.0000000  0  7G17G24G07G08G26G11G28
 -22241334.66447 -17320213.71945  21189156.7894                   21189155.3634
 -14599335.91847 -11368272.96944  22037087.2814                   22037086.5204
   -900220.01647   -699703.98845  21515432.1564                   21515431.3594
 -17779430.80147 -13850630.68445  20073024.9614                   20073023.3014
 -11148162.82046  -9008251.28143  22827548.7584                   22827548.5824
  -8459319.71146  -6584881.12144  22408797.4224                   22408795.5594
 -12978172.83647 -10109660.08245  21566599.4454                   21566596.6334
 11  8 22 19 37 30.0000000  0  7G17G24G07G08G26G11G28
 -22258949.80947 -17333939.78145  21185804.9224                   21185802.8524
 -14550764.46547 -11330425.09844  22046329.8834                   22046330.0634
   -801038.23047   -622419.55945  21534306.2974                   21534305.1804
 -17733276.02347 -13814665.94945  20081807.8594                   20081806.2074
 -11106806.87946  -8976025.90243  22835418.5474                   22835418.2274
  -8367593.20346  -6513405.98843  22426252.7034                   22426250.6254
 -12977728.86747 -10109314.13745  21566683.9924                   21566681.1524
 11  8 22 19 38  0.0000000  0  7G17G24G07G08G26G11G28
 -22276193.36347 -17347376.30145  21182523.5474                   21182521.8094
 -14501631.98046 -11292140.06644  22055679.4064                   22055679.3364
   -701444.38747   -544814.03545  21553257.8914                   21553256.6994
 -17686536.57047 -13778245.63345  20090701.6804                   20090700.2854
 -11064903.28946  -8943373.81243  22843392.4694                   22843392.5204
  -8275423.14546  -6441585.18843  22443793.1254                   22443790.4414
 -12977248.75047 -10108940.02345  21566775.2034                   21566772.7624
 11  8 22 19 38 30.0000000  0  7G17G24G07G08G26G11G28
 -22293056.85947 -17360516.66045  21179314.4924                   21179312.6054
 -14451930.18046 -11253411.40244  22065137.7894                   22065137.3164
   -601431.56347   -466882.03945  21572290.6414                   21572288.8794
 -17639203.00847 -13741362.37545  20099709.5474                   20099708.0124
 -11022444.96546  -8910289.44543  22851471.4304                   22851472.1684
  -8182803.09046  -6369413.75044  22461417.6414                   22461415.4414
 -12976722.83247 -10108530.22345  21566875.1174                   21566872.6054
 11  8 22 19 39  0.0000000  0  8G17G24G07G08G26G11G04G28
 -22309549.59847 -17373368.13745  21176176.3914                   21176174.1524
 -14401668.42646 -11214246.41444  22074702.4224                   22074701.3594
   -501010.12147   -388631.63345  21591400.1414                   21591398.3204
 -17591284.06247 -13704022.97345  20108828.1094                   20108826.6134
 -10979442.37546  -8876780.97743  22859655.7504                   22859655.5394
  -8089744.15246  -6296900.34444  22479125.3204                   22479123.5394
  -9622119.73415                  24562274.195
 -12976160.07047 -10108091.70745  21566982.8134                   21566979.7504
 11  8 22 19 39 30.0000000  0  8G17G24G07G08G26G11G04G28
 -22325670.18047 -17385929.60945  21173107.8984                   21173106.4574
 -14350846.33247 -11174644.79744  22084373.1804                   22084372.7384
   -400180.55547   -310063.20745  21610587.3674                   21610586.2504
 -17542778.41447 -13666226.39145  20118058.3364                   20118056.7664
 -10935896.18046  -8842848.89543  22867942.7034                   22867941.8094
  -7996247.22346  -6224045.63743  22496918.1644                   22496915.0864
  -9713214.508 5                  24544939.836
 -12975558.23447 -10107622.75045  21567096.3204                   21567094.5944
 11  8 22 19 40  0.0000000  0  8G17G24G07G08G26G11G04G28
 -22341413.21947 -17398196.89845  21170112.6334                   21170110.8874
 -14299458.50447 -11134602.32444  22094151.9924                   22094151.8244
   -298938.96147   -231173.72345  21629852.6414                   21629851.9264
 -17493680.18447 -13627968.06245  20127401.8594                   20127400.5984
 -10891801.99646  -8808489.83243  22876332.7584                   22876332.8594
  -7902308.64546  -6150846.77743  22514793.3914                   22514791.3404
  -9804365.555 5                  24527594.203
 -12974910.99247 -10107118.39845  21567219.9304                   21567217.9964
 11  8 22 19 40 30.0000000  0  8G17G24G07G08G26G11G04G28
 -22356774.98447 -17410167.08645  21167188.5164                   21167187.3014
 -14247500.99246 -11094115.97344  22104039.5864                   22104038.4144
   -197282.26647   -151960.77345  21649196.9844                   21649196.8054
 -17443984.95747 -13589244.54345  20136858.2504                   20136857.0124
 -10847157.07046  -8773701.62943  22884828.8134                   22884828.1414
  -7807926.11346  -6077301.98043  22532753.8914                   22532751.9924
  -9895565.848 5                  24510239.953
 -12974213.20347 -10106574.66845  21567352.5784                   21567350.0744
 11  8 22 19 41  0.0000000  0  8G17G24G07G08G26G11G04G28
 -22371742.86347 -17421830.35945  21164340.8984                   21164339.1564
 -14194962.18447 -11053176.64544  22114037.5314                   22114036.6294
    -95199.77747    -72416.03945  21668623.2274                   21668622.8524
 -17393680.04747 -13550045.94545  20146431.0944                   20146429.3054
 -10801950.89846  -8738476.08643  22893431.3594                   22893430.8984
  -7713089.66446  -6003403.50843  22550800.7814                   22550798.2584
  -9986800.445 5                  24492876.898
 -12973451.84447 -10105981.39145  21567497.6334                   21567495.1994
 11  8 22 19 41 30.0000000  0  8G17G24G07G08G26G11G04G28
 -22386316.55147 -17433186.46545  21161567.4224                   21161566.2424
 -14141841.77747 -11011784.12144  22124145.2274                   22124145.3094
      7307.72747      7459.86345  21688129.5704                   21688129.2774
 -17342764.34847 -13510371.40245  20156120.2344                   20156118.4264
 -10756184.45746  -8702813.99243  22902141.0314                   22902140.3284
  -7617800.57846  -5929152.28943  22568933.4064                   22568930.9694
 -10078065.84815                  24475509.367
 -12972625.32847 -10105337.35245  21567654.6804                   21567652.8874
 11  8 22 19 42  0.0000000  0  8G17G24G07G08G26G11G04G28
 -22400483.60547 -17444225.70745  21158871.5704                   21158869.2584
 -14088127.97346 -10969929.24244  22134366.5554                   22134366.4494
    110251.21147     87675.48045  21707719.1094                   21707718.2774
 -17291225.11347 -13470210.99645  20165927.4774                   20165926.6484
 -10709846.66846  -8666706.63343  22910958.2584                   22910958.3094
  -7522048.26246  -5854540.13343  22587154.3134                   22587151.9184
 -10169346.656 5                  24458140.148
 -12971720.55947 -10104632.34045  21567827.4384                   21567824.7274
 11  8 22 19 42 30.0000000  0  8G17G24G07G08G26G11G04G28
 -22414242.44547 -17454946.86345  21156253.4304                   21156251.7034
 -14033819.89546 -10927611.27044  22144700.6254                   22144701.0124
    213630.61747    168230.78544  21727392.1954                   21727389.8714
 -17239061.06647 -13429563.71945  20175854.2194                   20175852.1684
 -10662937.87946  -8630154.37943  22919884.5554                   22919884.6334
  -7425833.44946  -5779567.59843  22605463.8834                   22605461.2894
 -10260638.457 6                  24440767.320
 -12970734.92647 -10103864.31245  21568014.8914                   21568012.3524
 11  8 22 19 43  0.0000000  0  8G17G24G07G08G26G11G04G28
 -22427586.18447 -17465344.55545  21153713.9844                   21153712.3674
 -13978911.23447 -10884825.30544  22155149.7814                   22155149.6684
    317450.90647    249129.62145  21747147.8364                   21747146.9454
 -17186265.04347 -13388423.98445  20185901.0474                   20185899.2234
 -10615452.89546  -8593153.15243  22928921.2114                   22928919.8404
  -7329151.96546  -5704231.44543  22623862.0554                   22623859.1174
 -10351931.707 6                  24423394.078
 -12969661.19547 -10103027.63345  21568219.3204                   21568216.2384
 11  8 22 19 43 30.0000000  0  8G17G24G07G08G26G11G04G28
 -22440512.40647 -17475416.92245  21151254.2034                   21151252.4454
 -13923399.25847 -10841569.22744  22165713.3834                   22165713.0634
    421713.69947    330373.25444  21766988.8594                   21766987.3554
 -17132833.69947 -13346789.19945  20196068.8754                   20196067.0514
 -10567390.43446  -8555701.90643  22938066.3444                   22938066.3484
  -7232002.30946  -5628530.43443  22642348.7344                   22642346.6954
 -10443220.578 6                  24406022.648
 -12968495.00447 -10102118.91445  21568441.0554                   21568438.2504
 11  8 22 19 44  0.0000000  0  8G17G24G07G08G26G11G04G28
 -22453019.85947 -17485162.96145  21148873.9384                   21148872.7624
 -13867283.29746 -10797842.51644  22176392.1884                   22176391.2704
    526419.15247    411961.85544  21786913.6334                   21786912.4344
 -17078764.94547 -13304657.73845  20206357.2274                   20206355.7344
 -10518750.48846  -8517800.69543  22947322.9614                   22947322.4024
  -7134385.08646  -5552465.10243  22660925.1254                   22660922.4384
 -10534500.574 5                  24388651.953
 -12967234.16847 -10101136.44945  21568681.1954                   21568677.9734
 11  8 22 19 44 30.0000000  0  8G17G24G07G08G26G11G04G28
 -22465114.32047 -17494587.19545  21146572.7974                   21146571.0864
 -13810569.76647 -10753650.15244  22187184.2584                   22187183.9774
    631559.51247    493889.32444  21806921.6414                   21806920.0634
 -17024065.18047 -13262034.56645  20216766.3984                   20216764.6374
 -10469540.92646  -8479455.63343  22956686.6414                   22956687.1024
  -7036308.57846  -5476041.91843  22679588.7584                   22679586.4264
 -10625774.895 6                  24371283.422
 -12965883.97747 -10100084.36345  21568937.9064                   21568934.6524
 11  8 22 19 45  0.0000000  0  8G17G24G07G08G26G11G04G28
 -22476802.03147 -17503694.48045  21144348.4924                   21144347.0554
 -13753265.55147 -10708997.52744  22198089.6884                   22198088.8634
    737127.07447    576149.69144  21827009.9384                   21827008.9804
 -16968740.43047 -13218924.41845  20227294.0474                   20227292.6134
 -10419769.55146  -8440672.79743  22966158.3594                   22966158.0984
  -6937780.67646  -5399266.96143  22698337.5704                   22698335.7894
 -10717046.51246  -8340819.41853  24353914.6174                   24353918.4964
 -12964449.25047 -10098966.37945  21569211.1334                   21569207.9144
 11  8 22 19 45 30.0000000  0  8G17G24G07G08G26G11G04G28
 -22488081.85247 -17512483.93045  21142201.8674                   21142200.4184
 -13695369.72347 -10663883.91844  22209106.2034                   22209105.3554
    843121.68047    658742.80944  21847180.7814                   21847179.3714
 -16912789.41047 -13175326.25445  20237942.1094                   20237939.9654
 -10369436.62146  -8401452.36743  22975736.0394                   22975735.9734
  -6838802.19546  -5322140.93443  22717172.1804                   22717170.4064
 -10808311.32846  -8411934.61343  24336547.9774                   24336552.1174
 -12962927.54747 -10097780.63345  21569500.9614                   21569497.6374
 11  8 22 19 46  0.0000000  0  8G17G24G07G08G26G11G04G28
 -22498960.52047 -17520960.78545  21140132.0084                   21140130.1294
 -13636889.62947 -10618315.01644  22220235.0004                   22220234.3954
    949535.06647    741662.25844  21867429.8054                   21867429.3954
 -16856218.44947 -13131245.02745  20248706.9064                   20248704.3404
 -10318550.44946  -8361800.86743  22985419.2734                   22985419.8594
  -6739382.26646  -5244670.92243  22736091.2584                   22736088.7664
 -10899573.12545  -8483047.41442  24319180.5784                   24319185.1054
 -12961324.71547 -10096531.67645  21569805.4534                   21569802.5864
 11  8 22 19 46 30.0000000  0  8G17G24G07G08G26G11G04G28
 -22509437.16047 -17529124.38745  21138138.1414                   21138136.3524
 -13577824.89846 -10572290.56244  22231475.2584                   22231474.1134
   1056367.00447    824907.84045  21887759.5864                   21887759.2624
 -16799026.52347 -13086679.94545  20259589.5704                   20259588.3364
 -10267111.69146  -8321718.79343  22995208.6334                   22995208.2624
  -6639521.50846  -5166857.34443  22755094.1884                   22755091.6644
 -10990827.64545  -8554154.55142  24301815.1334                   24301820.3594
 -12959638.72347 -10095217.91445  21570126.2194                   21570123.4184
 11  8 22 19 47  0.0000000  0  8G17G24G07G08G26G11G04G28
 -22519513.68747 -17536976.20345  21136220.8444                   21136219.5084
 -13518178.11346 -10525812.55544  22242824.7734                   22242824.6134
   1163613.83247    908476.73044  21908167.8914                   21908167.5474
 -16741215.10947 -13041632.13345  20270591.0634                   20270589.3204
 -10215124.09846  -8281209.00443  23005101.0234                   23005101.0594
  -6539223.96946  -5088703.48843  22774180.3594                   22774177.8874
 -11082073.96145  -8625255.31642  24284450.8594                   24284456.3444
 -12957870.36747 -10093839.97345  21570462.7974                   21570459.9924
 11  8 22 19 47 30.0000000  0  8G17G24G07G08G26G11G04G28
 -22529195.01647 -17544520.07445  21134378.4614                   21134376.3794
 -13457954.69946 -10478885.24644  22254284.4064                   22254284.6054
   1271269.23847    992363.96145  21928654.2664                   21928653.0634
 -16682789.03147 -12996105.36745  20281709.7894                   20281707.7384
 -10162594.19146  -8240276.68043  23015096.6644                   23015097.1914
  -6438496.43446  -5010214.54343  22793348.2664                   22793346.1764
 -11173313.62945  -8696350.85242  24267089.5164                   24267094.0164
 -12956023.53947 -10092400.89145  21570814.3984                   21570810.9304
 11  8 22 19 48  0.0000000  0  8G17G24G07G08G26G11G04G28
 -22538481.91847 -17551756.59445  21132611.0234                   21132609.7464
 -13397155.55146 -10431509.31644  22265854.3754                   22265854.7424
   1379331.10947   1076567.92644  21949218.4534                   21949216.7894
 -16623748.68447 -12950099.94145  20292945.1174                   20292942.7154
 -10109524.06346  -8198923.41043  23025195.9304                   23025196.7544
  -6337341.44546  -4931392.52043  22812597.8364                   22812595.6294
 -11264544.17645  -8767439.30942  24249728.1254                   24249733.1024
 -12954097.33647 -10090899.94545  21571180.7114                   21571177.6994
 11  8 22 19 48 30.0000000  0  8G17G24G07G08G26G11G04G28
 -22547373.60247 -17558685.15645  21130918.5634                   21130917.0314
 -13335780.75846 -10383684.81244  22277534.4144                   22277533.5704
   1487798.69947   1161088.02344  21969858.6644                   21969857.9344
 -16564093.57447 -12903615.48045  20304296.7114                   20304294.8674
 -10055914.74646  -8157149.97343  23035398.1094                   23035398.4734
  -6235760.57046  -4852238.64543  22831927.2894                   22831925.8524
 -11355761.87155  -8838517.72752  24232368.6484                   24232375.1764
 -12952090.09447 -10089335.85945  21571562.7584                   21571559.8284
 11  8 22 19 49  0.0000000  0  8G17G24G07G08G26G11G04G28
 -22555878.14847 -17565312.05545  21129301.0314                   21129298.7624
 -13273838.80546 -10335418.37944  22289320.5084                   22289320.5864
   1596662.53547   1245916.89144  21990574.9694                   21990573.9734
 -16503831.17647 -12856657.80945  20315764.1954                   20315763.0904
 -10001775.82046  -8114963.85943  23045700.2194                   23045700.2384
  -6133763.41446  -4772760.39143  22851336.8284                   22851335.4454
 -11446971.40645  -8909589.83242  24215012.1644                   24215017.3404
 -12950008.56647 -10087713.89145  21571958.3364                   21571955.7974
 11  8 22 19 49 30.0000000  0  8G17G24G07G08G26G11G04G28
 -22563994.21547 -17571636.23045  21127756.2194                   21127754.6024
 -13211328.89546 -10286709.38344  22301216.5314                   22301216.0664
   1705922.90247   1331054.75445  22011366.9454                   22011365.6604
 -16442959.96147 -12809225.74245  20327347.4064                   20327346.2384
  -9947107.46546  -8072365.22343  23056102.3754                   23056103.0394
  -6031350.66046  -4692958.29343  22870826.1174                   22870824.1374
 -11538168.07446  -8980651.89842  24197658.3364                   24197662.6174
 -12947849.93447 -10086031.84045  21572369.1954                   21572366.6094
 11  8 22 19 50  0.0000000  0  8G17G24G07G08G26G11G04G28
 -22571731.73847 -17577665.44945  21126283.7424                   21126282.1374
 -13148261.91846 -10237566.32044  22313217.3754                   22313217.2974
   1815567.89847   1416492.32044  22032231.2814                   22032230.9104
 -16381490.05147 -12761327.13345  20339044.6334                   20339043.1954
  -9891921.51246  -8029363.21943  23066604.7034                   23066604.7734
  -5928534.14546  -4612841.57043  22890390.1484                   22890389.3364
 -11629358.83246  -9051709.41442  24180306.4454                   24180308.7664
 -12945622.84447 -10084296.45345  21572793.0554                   21572790.4694
 11  8 22 19 50 30.0000000  0  8G17G24G07G08G26G11G04G28
 -22579099.35247 -17583406.43445  21124882.3524                   21124880.1414
 -13084646.77346 -10187996.09844  22325322.6334                   22325322.8754
   1925587.93746   1502222.13344  22053167.6414                   22053166.9964
 -16319429.86747 -12712968.58645  20350853.9534                   20350853.0084
  -9836228.11746  -7985965.82843  23077203.2344                   23077203.2464
  -5825324.28546  -4532418.35943  22910031.2424                   22910029.9574
 -11720548.91446  -9122766.32042  24162952.9224                   24162955.3244
 -12943334.77747 -10082513.54745  21573228.5234                   21573225.8524
 11  8 22 19 51  0.0000000  0  8G17G24G07G08G26G11G04G28
 -22586090.49647 -17588854.06645  21123551.7274                   21123549.5744
 -13020477.86346 -10137994.38744  22337533.4534                   22337533.5784
   2035987.49647   1588247.69145  22074176.1484                   22074175.9844
 -16256773.02047 -12664145.10245  20362777.7584                   20362776.2114
  -9780022.69946  -7942169.48443  23087898.8914                   23087898.7344
  -5721716.68046  -4451685.19543  22929747.9384                   22929745.6024
 -11811728.81346  -9193815.38742  24145600.6644                   24145603.4844
 -12940978.05547 -10080677.14545  21573677.2424                   21573674.4494
 11  8 22 19 51 30.0000000  0  8G17G24G07G08G26G11G04G28
 -22592710.54347 -17594012.52745  21122291.7194                   21122289.5824
 -12955760.99646 -10087565.66444  22349849.4844                   22349849.3164
   2146760.29747   1674564.05944  22095254.8284                   22095254.8714
 -16193524.76647 -12614860.77345  20374812.9454                   20374811.9884
  -9723312.09446  -7897979.45343  23098689.6334                   23098690.9304
  -5617718.63746  -4370647.80143  22949537.6564                   22949535.1844
 -11902900.52046  -9264857.98042  24128252.3834                   24128254.2384
 -12938556.32447 -10078790.08645  21574138.0554                   21574135.2344
 11  8 22 19 52  0.0000000  0  8G17G24G07G08G26G11G04G28
 -22598960.48047 -17598882.60545  21121102.5944                   21121100.6414
 -12890497.58646 -10036711.09444  22362268.7274                   22362268.3524
   2257903.78946   1761169.28544  22116405.3524                   22116405.1484
 -16129685.55147 -12565115.96145  20386961.3284                   20386960.6914
  -9666098.76646  -7853397.70743  23109577.9454                   23109578.2424
  -5513332.78946  -4289308.22343  22969401.3054                   22969399.0984
 -11994061.28145  -9335892.08242  24110902.8834                   24110907.2734
 -12936069.69547 -10076852.44945  21574611.5314                   21574608.5984
 11  8 22 19 52 30.0000000  0  8G17G24G07G08G26G11G04G28
 -22604847.57847 -17603469.94145  21119981.9224                   21119980.3054
 -12824695.60947  -9985436.84844  22374790.2814                   22374790.2074
   2369409.45747   1848056.73044  22137624.4534                   22137623.8754
 -16065262.74647 -12514916.42245  20399221.2114                   20399219.7734
  -9608391.89146  -7808431.39843  23120559.4774                   23120559.4614
  -5408568.27746  -4207673.61343  22989337.0314                   22989335.1374
 -12085215.21945  -9406920.84842  24093557.2034                   24093561.2274
 -12933523.43847 -10074868.36745  21575096.1954                   21575092.5124
 11  8 22 19 53  0.0000000  0  8G17G24G07G08G26G11G04G28
 -22610373.98847 -17607776.23445  21118930.3914                   21118928.6884
 -12758357.60946  -9933744.91444  22387413.8984                   22387413.7274
   2481273.58647   1935223.48844  22158911.1254                   22158910.7734
 -16000258.75447 -12464263.98445  20411590.7504                   20411589.7774
  -9550194.92646  -7763083.15243  23131633.6644                   23131633.9414
  -5303429.18446  -4125747.09043  23009345.0394                   23009342.7774
 -12176361.21546  -9477943.40242  24076213.6804                   24076217.4884
 -12930918.17247 -10072838.28145  21575591.3054                   21575589.1724
 11  8 22 19 53 30.0000000  0  8G17G24G07G08G26G11G04G28
 -22615541.14547 -17611802.57845  21117946.9224                   21117945.4574
 -12691486.06646  -9881637.26244  22400139.5164                   22400139.1844
   2593492.97347   2022667.07844  22180265.9064                   22180264.9924
 -15934675.28547 -12413160.04345  20424071.1884                   20424069.8984
  -9491511.43046  -7717355.81643  23142800.3754                   23142801.0044
  -5197918.91446  -4043531.37143  23029422.9384                   23029420.4924
 -12267497.32845  -9548958.30142  24058870.4064                   24058874.1684
 -12928254.40247 -10070762.61345  21576098.1174                   21576095.9694
 11  8 22 19 54  0.0000000  0  8G17G24G07G08G26G11G04G28
 -22620349.12547 -17615549.05945  21117032.3134                   21117030.9574
 -12624081.58247  -9829114.30544  22412966.3834                   22412965.2114
   2706066.12146   2110386.30544  22201688.3754                   22201687.5124
 -15868512.41047 -12361604.59845  20436661.6724                   20436660.1954
  -9432343.52346  -7671251.02743  23154060.0314                   23154060.7464
  -5092039.60546  -3961028.07843  23049570.5634                   23049568.9774
 -12358620.43046  -9619963.09042  24041529.4224                   24041534.4344
 -12925530.76647 -10068640.30545  21576616.7114                   21576613.8594
 11  8 22 19 54 30.0000000  0  8G17G24G07G08G26G11G04G28
 -22624799.40647 -17619016.80145  21116185.8054                   21116184.3164
 -12556146.34447  -9776177.77744  22425893.8204                   22425893.3554
   2818990.33646   2198379.07844  22223177.0864                   22223175.7734
 -15801771.18847 -12309598.51245  20449361.9774                   20449360.3284
  -9372693.89846  -7624770.88343  23165410.7664                   23165412.1294
  -4985794.76646  -3878239.96143  23069789.2344                   23069786.6054
 -12449728.43845  -9690956.04742  24024191.9694                   24024196.9264
 -12922747.01647 -10066471.14145  21577146.1174                   21577143.6724
